[[{"header":{"parameterUnit":"m.s-1","parameterCategory":1,"la1":31.0,"la2":29.5877,"lo1":-88.7671,"lo2":-86.6584,"dy":0.0162,"dx":0.0185,"nx":115,"ny":88,"refTime":"2024-04-05T06:00:00:Z","depth":0,"parameterNumber":2,"parameterNumberName":"U-component_of_WINDS"},"data":[0.0,0.0,0.0,0.0,0.0,0.0,0.0,0.0,0.0,0.0,0.0,0.0,0.0,0.0,0.0,0.0,0.0,0.0,0.0,0.0,0.0,0.0,0.0,0.0,0.0,0.0,0.0,0.0,0.0,0.0,0.0,0.0,0.0,0.0,0.0,0.0,0.0,0.0,0.0,0.0,0.0,0.0,0.0,0.0,0.0,0.0,0.0,0.0,0.0,0.0,0.0,0.0,0.0,0.0,0.0,0.0,0.0,0.0,0.0,0.0,0.0,0.0,0.0,0.0,0.0,0.0,0.0,0.0,0.0,0.0,0.0,0.0,0.0,0.0,0.0,0.0,0.0,0.0,0.0,0.0,0.0,0.0,0.0,0.0,0.0,0.0,0.0,0.0,0.0,0.0,0.0,0.0,0.0,0.0,0.0,0.0,0.0,0.0,0.0,0.0,0.0,0.0,0.0,0.0,0.0,0.0,0.0,0.0,0.0,0.0,0.0,0.0,0.0,0.0,0.0,0.0,0.0,0.0,0.0,0.0,0.0,0.0,0.0,0.0,0.0,0.0,0.0,0.0,0.0,0.0,0.0,0.0,0.0,0.0,0.0,0.0,0.0,0.0,0.0,0.0,0.0,0.0,0.0,0.0,0.0,0.0,0.0,0.0,0.0,0.0,0.0,0.0,0.0,0.0,0.0,0.0,0.0,0.0,0.0,0.0,0.0,0.0,0.0,0.0,0.0,0.0,0.0,0.0,0.0,0.0,0.0,0.0,0.0,0.0,0.0,0.0,0.0,0.0,0.0,0.0,0.0,0.0,0.0,0.0,0.0,0.0,0.0,0.0,0.0,0.0,0.0,0.0,0.0,0.0,0.0,0.0,0.0,0.0,0.0,0.0,0.0,0.0,0.0,0.0,0.0,0.0,0.0,0.0,0.0,0.0,0.0,0.0,0.0,0.0,0.0,0.0,0.0,0.0,0.0,0.0,0.0,0.0,0.0,0.0,0.0,0.0,0.0,0.0,0.0,0.0,0.0,0.0,0.0,0.0,0.0,0.0,0.0,0.0,0.0,0.0,0.0,0.0,0.0,0.0,0.0,0.0,0.0,0.0,0.0,0.0,0.0,0.0,0.0,0.0,0.0,0.0,0.0,0.0,0.0,0.0,0.0,0.0,0.0,0.0,0.0,0.0,0.0,0.0,0.0,0.0,0.0,0.0,0.0,0.0,0.0,0.0,0.0,0.0,0.0,0.0,0.0,0.0,0.0,0.0,0.0,0.0,0.0,0.0,0.0,0.0,0.0,0.0,0.0,0.0,0.0,0.0,0.0,0.0,0.0,0.0,0.0,0.0,0.0,0.0,0.0,0.0,0.0,0.0,0.0,0.0,0.0,0.0,0.0,0.0,0.0,0.0,0.0,0.0,0.0,0.0,0.0,0.0,0.0,0.0,0.0,0.0,0.0,0.0,0.0,0.0,0.0,0.0,0.0,0.0,0.0,0.0,0.0,0.0,0.0,0.0,0.0,0.0,0.0,0.0,0.0,0.0,0.0,0.0,0.0,0.0,0.0,0.0,0.0,0.0,0.0,0.0,0.0,0.0,0.0,0.0,0.0,0.0,0.0,0.0,0.0,0.0,0.0,0.0,0.0,0.0,0.0,0.0,0.0,0.0,0.0,0.0,0.0,0.0,0.0,0.0,0.0,0.0,0.0,0.0,0.0,0.0,0.0,0.0,0.0,0.0,0.0,0.0,0.0,0.0,0.0,0.0,0.0,0.0,0.0,0.0,0.0,0.0,0.0,0.0,0.0,0.0,0.0,0.0,0.0,0.0,0.0,0.0,0.0,0.0,0.0,0.0,0.0,0.0,0.0,0.0,0.0,0.0,0.0,0.0,0.0,0.0,0.0,0.0,0.0,0.0,0.0,0.0,0.0,0.0,0.0,0.0,0.0,0.0,0.0,0.0,0.0,0.0,0.0,0.0,0.0,0.0,0.0,0.0,0.0,0.0,0.0,0.0,0.0,0.0,0.0,0.0,0.0,0.0,0.0,0.0,0.0,0.0,0.0,0.0,0.0,0.0,0.0,0.0,0.0,0.0,0.0,0.0,0.0,0.0,0.0,0.0,0.0,0.0,0.0,0.0,0.0,0.0,0.0,0.0,0.0,0.0,0.0,0.0,0.0,0.0,0.0,0.0,0.0,0.0,0.0,0.0,0.0,0.0,0.0,0.0,0.0,0.0,0.0,0.0,0.0,0.0,0.0,0.0,0.0,0.0,0.0,0.0,0.0,0.0,0.0,0.0,0.0,0.0,0.0,0.0,0.0,0.0,0.0,0.0,0.0,0.0,0.0,0.0,0.0,0.0,0.0,0.0,0.0,0.0,0.0,0.0,0.0,0.0,0.0,0.0,0.0,0.0,0.0,0.0,0.0,0.0,0.0,0.0,0.0,0.0,0.0,0.0,0.0,0.0,0.0,0.0,0.0,0.0,0.0,0.0,0.0,0.0,0.0,0.0,0.0,0.0,0.0,0.0,0.0,0.0,0.0,0.0,0.0,0.0,0.0,0.0,0.0,0.0,0.0,0.0,0.0,0.0,0.0,0.0,0.0,0.0,0.0,0.0,0.0,0.0,0.0,0.0,0.0,0.0,0.0,0.0,0.0,0.0,0.0,0.0,0.0,0.0,0.0,0.0,0.0,0.0,0.0,0.0,0.0,0.0,0.0,0.0,0.0,0.0,0.0,0.0,0.0,0.0,0.0,0.0,0.0,0.0,0.0,0.0,0.0,0.0,0.0,0.0,0.0,0.0,0.0,0.0,0.0,0.0,0.0,0.0,0.0,0.0,0.0,0.0,0.0,0.0,0.0,0.0,0.0,0.0,0.0,0.0,0.0,0.0,0.0,0.0,0.0,0.0,0.0,0.0,0.0,0.0,0.0,0.0,0.0,0.0,0.0,0.0,0.0,0.0,0.0,0.0,0.0,0.0,0.0,0.0,0.0,0.0,0.0,0.0,0.0,0.0,0.0,0.0,0.0,0.0,0.0,0.0,0.0,0.0,0.0,0.0,0.0,0.0,0.0,0.0,0.0,0.0,0.0,0.0,0.0,0.0,0.0,0.0,0.0,0.0,0.0,0.0,0.0,0.0,0.0,0.0,0.0,0.0,0.0,0.0,0.0,0.0,0.0,0.0,0.0,0.0,0.0,0.0,0.0,0.0,0.0,0.0,0.0,0.0,0.0,0.0,0.0,0.0,0.0,0.0,0.0,0.0,0.0,0.0,0.0,0.0,0.0,0.0,0.0,0.0,0.0,0.0,0.0,0.0,0.0,0.0,0.0,0.0,0.0,0.0,0.0,0.0,0.0,0.0,0.0,0.0,0.0,0.0,0.0,0.0,0.0,0.0,0.0,0.0,0.0,0.0,0.0,0.0,0.0,0.0,0.0,0.0,0.0,0.0,0.0,0.0,0.0,0.0,0.0,0.0,0.0,0.0,0.0,0.0,0.0,0.0,0.0,0.0,0.0,0.0,0.0,0.0,0.0,0.0,0.0,0.0,0.0,0.0,0.0,0.0,0.0,0.0,0.0,0.0,0.0,0.0,0.0,0.0,0.0,0.0,0.0,0.0,0.0,0.0,0.0,0.0,0.0,0.0,0.0,0.0,0.0,0.0,0.0,0.0,0.0,0.0,0.0,0.0,0.0,0.0,0.0,0.0,0.0,0.0,0.0,0.0,0.0,0.0,0.0,0.0,0.0,0.0,0.0,0.0,0.0,0.0,0.0,0.0,0.0,0.0,0.0,0.0,0.0,0.0,0.0,0.0,0.0,0.0,0.0,0.0,0.0,0.0,0.0,0.0,0.0,0.0,0.0,0.0,0.0,0.0,0.0,0.0,0.0,0.0,0.0,0.0,0.0,0.0,0.0,0.0,0.0,0.0,0.0,0.0,0.0,0.0,0.0,0.0,0.0,0.0,0.0,0.0,0.0,0.0,0.0,0.0,0.0,0.0,0.0,0.0,0.0,0.0,0.0,0.0,0.0,0.0,0.0,0.0,0.0,0.0,0.0,0.0,0.0,0.0,0.0,0.0,0.0,0.0,0.0,0.0,0.0,0.0,0.0,0.0,0.0,0.0,0.0,0.0,0.0,0.0,0.0,0.0,0.0,0.0,0.0,0.0,0.0,0.0,0.0,0.0,0.0,0.0,0.0,0.0,0.0,0.0,0.0,0.0,0.0,0.0,0.0,0.0,0.0,0.0,0.0,0.0,0.0,0.0,0.0,0.0,0.0,0.0,0.0,0.0,1.5313,0.0,0.0,0.0,0.0,0.0,0.0,0.0,0.0,0.0,0.0,0.0,0.0,0.0,0.0,0.0,0.0,0.0,0.0,0.0,0.0,0.0,0.0,0.0,0.0,0.0,0.0,0.0,0.0,0.0,0.0,0.0,0.0,0.0,0.0,0.0,0.0,0.0,0.0,0.0,0.0,0.0,0.0,0.0,0.0,0.0,0.0,0.0,0.0,0.0,0.0,0.0,0.0,0.0,0.0,0.0,0.0,0.0,0.0,0.0,0.0,0.0,0.0,0.0,0.0,0.0,0.0,0.0,0.0,0.0,0.0,0.0,0.0,0.0,0.0,0.0,0.0,0.0,0.0,0.0,0.0,0.0,0.0,0.0,0.0,0.0,0.0,0.0,0.0,0.0,0.0,0.0,0.0,0.0,0.0,0.0,0.0,0.0,0.0,0.0,0.0,0.0,0.0,0.0,0.0,0.0,0.0,0.0,0.0,0.0,0.0,1.5418,1.5429,1.5405,1.5365,1.5334,0.0,0.0,0.0,0.0,0.0,0.0,0.0,0.0,0.0,0.0,0.0,0.0,0.0,0.0,0.0,0.0,0.0,0.0,0.0,0.0,0.0,0.0,0.0,0.0,0.0,0.0,0.0,0.0,0.0,0.0,0.0,0.0,0.0,0.0,0.0,0.0,0.0,0.0,0.0,0.0,0.0,0.0,0.0,0.0,0.0,0.0,0.0,0.0,0.0,0.0,0.0,0.0,0.0,0.0,0.0,0.0,0.0,0.0,0.0,0.0,0.0,0.0,0.0,0.0,0.0,0.0,0.0,0.0,0.0,0.0,0.0,0.0,0.0,0.0,0.0,0.0,0.0,0.0,0.0,0.0,0.0,0.0,0.0,0.0,0.0,0.0,0.0,0.0,0.0,0.0,0.0,0.0,0.0,0.0,0.0,0.0,0.0,0.0,0.0,0.0,0.0,0.0,0.0,0.0,0.0,0.0,0.0,0.0,0.0,0.0,0.0,0.0,1.5401,1.5475,1.5629,0.0,0.0,0.0,0.0,0.0,0.0,0.0,0.0,0.0,0.0,0.0,0.0,0.0,0.0,0.0,0.0,0.0,0.0,0.0,0.0,0.0,0.0,0.0,0.0,0.0,0.0,0.0,0.0,0.0,0.0,0.0,0.0,0.0,0.0,0.0,0.0,0.0,0.0,0.0,0.0,0.0,0.0,0.0,0.0,0.0,0.0,0.0,0.0,0.0,0.0,0.0,0.0,0.0,0.0,0.0,0.0,0.0,0.0,0.0,0.0,0.0,0.0,0.0,0.0,0.0,0.0,0.0,0.0,0.0,0.0,0.0,0.0,0.0,0.0,0.0,0.0,0.0,0.0,0.0,0.0,0.0,0.0,0.0,0.0,0.0,0.0,0.0,0.0,0.0,0.0,0.0,0.0,0.0,0.0,0.0,0.0,0.0,0.0,0.0,0.0,0.0,0.0,0.0,0.0,0.0,0.0,0.0,0.0,0.0,0.0,1.5427,1.5429,1.541,0.0,1.6417,0.0,0.0,0.0,0.0,0.0,0.0,0.0,0.0,0.0,0.0,0.0,0.0,0.0,0.0,0.0,0.0,0.0,0.0,0.0,0.0,0.0,0.0,0.0,0.0,0.0,0.0,0.0,0.0,0.0,0.0,0.0,0.0,0.0,0.0,0.0,0.0,0.0,0.0,0.0,0.0,0.0,0.0,0.0,0.0,0.0,0.0,0.0,0.0,0.0,0.0,0.0,0.0,0.0,0.0,0.0,0.0,0.0,0.0,0.0,0.0,0.0,0.0,0.0,0.0,0.0,0.0,0.0,0.0,0.0,0.0,0.0,0.0,0.0,0.0,0.0,0.0,0.0,0.0,0.0,0.0,0.0,0.0,0.0,0.0,0.0,0.0,0.0,0.0,0.0,0.0,0.0,0.0,0.0,0.0,0.0,0.0,0.0,0.0,0.0,0.0,0.0,0.0,0.0,0.0,0.0,0.0,0.0,0.0,0.0,0.0,1.6169,1.6171,1.6109,1.6486,0.0,0.0,0.0,0.0,0.0,0.0,0.0,0.0,0.0,0.0,0.0,0.0,0.0,0.0,0.0,0.0,0.0,0.0,0.0,0.0,0.0,0.0,0.0,0.0,0.0,0.0,0.0,0.0,0.0,0.0,0.0,0.0,0.0,0.0,0.0,0.0,0.0,0.0,0.0,0.0,0.0,0.0,0.0,0.0,0.0,0.0,0.0,0.0,0.0,0.0,0.0,0.0,0.0,0.0,0.0,0.0,0.0,0.0,0.0,0.0,0.0,0.0,0.0,0.0,0.0,0.0,0.0,0.0,0.0,0.0,0.0,0.0,0.0,0.0,0.0,0.0,0.0,0.0,0.0,0.0,0.0,0.0,0.0,0.0,0.0,0.0,0.0,0.0,0.0,0.0,0.0,0.0,0.0,0.0,0.0,0.0,0.0,0.0,0.0,0.0,0.0,0.0,0.0,0.0,0.0,0.0,0.0,0.0,0.0,0.0,1.662,1.7031,1.7023,1.6984,1.7124,1.7456,0.0,0.0,0.0,0.0,0.0,0.0,0.0,0.0,0.0,0.0,0.0,0.0,0.0,0.0,0.0,0.0,0.0,0.0,0.0,0.0,0.0,0.0,0.0,0.0,0.0,0.0,0.0,0.0,0.0,0.0,0.0,0.0,0.0,0.0,0.0,0.0,0.0,0.0,0.0,0.0,0.0,0.0,0.0,0.0,0.0,0.0,0.0,0.0,0.0,0.0,0.0,0.0,0.0,0.0,0.0,0.0,0.0,0.0,0.0,0.0,0.0,0.0,0.0,0.0,0.0,0.0,0.0,0.0,0.0,0.0,0.0,0.0,0.0,0.0,0.0,0.0,0.0,0.0,0.0,0.0,0.0,0.0,0.0,0.0,0.0,0.0,0.0,0.0,0.0,0.0,0.0,0.0,0.0,0.0,0.0,0.0,0.0,0.0,0.0,0.0,0.0,0.0,0.0,0.0,0.0,0.0,0.0,0.0,1.658,1.7446,1.789,1.788,1.7831,1.7481,0.0,0.0,0.0,0.0,0.0,0.0,0.0,0.0,0.0,0.0,0.0,0.0,0.0,0.0,0.0,0.0,0.0,0.0,0.0,0.0,0.0,0.0,0.0,0.0,0.0,0.0,0.0,0.0,0.0,0.0,0.0,0.0,0.0,0.0,0.0,0.0,0.0,0.0,0.0,0.0,0.0,0.0,0.0,0.0,0.0,0.0,0.0,0.0,0.0,0.0,0.0,0.0,0.0,0.0,0.0,0.0,0.0,0.0,0.0,0.0,0.0,0.0,0.0,0.0,0.0,0.0,0.0,0.0,0.0,0.0,0.0,0.0,0.0,0.0,0.0,0.0,0.0,0.0,0.0,0.0,0.0,0.0,0.0,0.0,0.0,0.0,0.0,0.0,0.0,0.0,0.0,0.0,0.0,0.0,0.0,0.0,0.0,0.0,0.0,0.0,0.0,0.0,0.0,0.0,0.0,0.0,0.0,0.0,0.0,1.7472,1.8359,1.9068,1.9512,1.9027,1.8328,0.0,0.0,0.0,0.0,0.0,0.0,0.0,0.0,0.0,0.0,0.0,0.0,0.0,0.0,0.0,0.0,0.0,0.0,0.0,0.0,0.0,0.0,0.0,0.0,0.0,0.0,0.0,0.0,0.0,0.0,0.0,0.0,0.0,0.0,0.0,0.0,0.0,0.0,0.0,0.0,0.0,0.0,0.0,0.0,0.0,0.0,0.0,0.0,0.0,0.0,0.0,0.0,0.0,0.0,0.0,0.0,0.0,0.0,0.0,0.0,0.0,0.0,0.0,0.0,0.0,0.0,0.0,0.0,0.0,0.0,0.0,0.0,0.0,0.0,0.0,0.0,0.0,0.0,0.0,0.0,0.0,0.0,0.0,0.0,0.0,0.0,0.0,0.0,0.0,0.0,0.0,0.0,0.0,0.0,0.0,0.0,0.0,0.0,0.0,0.0,0.0,0.0,0.0,0.0,0.0,0.0,0.0,0.0,0.0,1.8785,0.0,1.9945,2.0449,1.9895,1.9168,0.0,0.0,0.0,0.0,0.0,0.0,0.0,0.0,0.0,0.0,0.0,0.0,0.0,0.0,0.0,0.0,0.0,0.0,0.0,0.0,0.0,0.0,0.0,0.0,0.0,0.0,0.0,0.0,0.0,0.0,0.0,0.0,0.0,0.0,0.0,0.0,0.0,0.0,0.0,0.0,0.0,0.0,0.0,0.0,0.0,0.0,0.0,0.0,0.0,0.0,0.0,0.0,0.0,0.0,0.0,0.0,0.0,0.0,0.0,0.0,0.0,0.0,0.0,0.0,0.0,0.0,0.0,0.0,0.0,0.0,0.0,0.0,0.0,0.0,0.0,0.0,0.0,0.0,0.0,0.0,0.0,0.0,0.0,0.0,0.0,0.0,0.0,0.0,0.0,0.0,0.0,0.0,0.0,0.0,0.0,0.0,0.0,0.0,0.0,0.0,0.0,0.0,0.0,0.0,0.0,0.0,0.0,0.0,1.9597,2.0542,2.0546,2.0592,2.0521,2.0449,1.9999,0.0,0.0,0.0,0.0,0.0,0.0,0.0,0.0,0.0,0.0,0.0,0.0,0.0,0.0,0.0,0.0,0.0,0.0,0.0,0.0,0.0,0.0,0.0,0.0,0.0,0.0,0.0,0.0,0.0,0.0,0.0,0.0,0.0,0.0,0.0,0.0,0.0,0.0,0.0,0.0,0.0,0.0,0.0,0.0,0.0,0.0,0.0,0.0,0.0,0.0,0.0,0.0,0.0,0.0,0.0,0.0,0.0,0.0,0.0,0.0,0.0,0.0,0.0,0.0,0.0,0.0,0.0,0.0,0.0,0.0,0.0,0.0,0.0,0.0,0.0,0.0,0.0,0.0,0.0,0.0,0.0,0.0,0.0,0.0,0.0,0.0,0.0,0.0,0.0,0.0,0.0,0.0,0.0,0.0,0.0,0.0,0.0,0.0,0.0,0.0,0.0,0.0,0.0,0.0,0.0,0.0,0.0,0.0,0.0,2.1427,2.1989,2.1996,2.1414,2.1318,2.0615,0.0,0.0,0.0,0.0,0.0,0.0,0.0,0.0,0.0,0.0,0.0,0.0,0.0,0.0,0.0,0.0,0.0,0.0,0.0,0.0,0.0,0.0,0.0,0.0,0.0,0.0,0.0,0.0,0.0,0.0,0.0,0.0,0.0,0.0,0.0,0.0,0.0,0.0,0.0,0.0,0.0,0.0,0.0,0.0,0.0,0.0,0.0,0.0,0.0,0.0,0.0,0.0,0.0,0.0,0.0,0.0,0.0,0.0,0.0,0.0,0.0,0.0,0.0,0.0,0.0,0.0,0.0,0.0,0.0,0.0,0.0,0.0,0.0,0.0,0.0,0.0,0.0,0.0,0.0,0.0,0.0,0.0,0.0,0.0,0.0,0.0,0.0,0.0,0.0,0.0,0.0,0.0,0.0,0.0,0.0,0.0,0.0,0.0,0.0,0.0,0.0,0.0,0.0,0.0,0.0,0.0,0.0,0.0,0.0,2.3261,2.3164,2.2986,2.2773,2.2105,2.1214,2.0111,0.0,0.0,0.0,0.0,0.0,0.0,0.0,0.0,0.0,0.0,0.0,0.0,0.0,0.0,0.0,0.0,0.0,0.0,0.0,0.0,0.0,0.0,0.0,0.0,0.0,0.0,0.0,0.0,0.0,0.0,0.0,0.0,0.0,0.0,0.0,0.0,0.0,0.0,0.0,0.0,0.0,0.0,0.0,0.0,0.0,0.0,0.0,0.0,0.0,0.0,0.0,0.0,0.0,0.0,0.0,0.0,0.0,0.0,0.0,0.0,0.0,0.0,0.0,0.0,0.0,0.0,0.0,0.0,0.0,0.0,0.0,0.0,0.0,0.0,0.0,0.0,0.0,0.0,0.0,0.0,0.0,0.0,0.0,0.0,0.0,0.0,0.0,0.0,0.0,0.0,0.0,0.0,0.0,0.0,0.0,0.0,0.0,0.0,0.0,0.0,0.0,0.0,0.0,0.0,0.0,0.0,0.0,0.0,2.5847,2.4246,2.3747,2.4402,2.2904,2.1917,0.0,0.0,0.0,0.0,0.0,0.0,0.0,0.0,0.0,0.0,0.0,0.0,0.0,0.0,0.0,0.0,0.0,0.0,0.0,0.0,0.0,0.0,0.0,0.0,0.0,0.0,0.0,0.0,0.0,0.0,0.0,0.0,0.0,0.0,0.0,0.0,0.0,0.0,0.0,0.0,0.0,0.0,0.0,0.0,0.0,0.0,0.0,0.0,0.0,0.0,0.0,0.0,0.0,0.0,0.0,0.0,0.0,0.0,0.0,0.0,0.0,0.0,0.0,0.0,0.0,0.0,0.0,0.0,0.0,0.0,0.0,0.0,0.0,0.0,0.0,0.0,0.0,0.0,0.0,0.0,0.0,0.0,0.0,0.0,0.0,0.0,0.0,0.0,0.0,0.0,0.0,0.0,0.0,0.0,0.0,0.0,0.0,0.0,0.0,0.0,0.0,0.0,0.0,0.0,0.0,0.0,0.0,0.0,0.0,2.7559,2.7169,2.6444,2.5395,2.4851,2.3708,0.0,0.0,0.0,0.0,0.0,0.0,0.0,0.0,0.0,0.0,0.0,0.0,0.0,0.0,0.0,0.0,0.0,0.0,0.0,0.0,0.0,0.0,0.0,0.0,0.0,0.0,0.0,0.0,0.0,0.0,0.0,0.0,0.0,0.0,0.0,0.0,0.0,0.0,0.0,0.0,0.0,0.0,0.0,0.0,0.0,0.0,0.0,0.0,0.0,0.0,0.0,0.0,0.0,0.0,0.0,0.0,0.0,0.0,0.0,0.0,0.0,0.0,0.0,0.0,0.0,0.0,0.0,0.0,0.0,0.0,0.0,0.0,0.0,0.0,0.0,0.0,0.0,0.0,0.0,0.0,0.0,0.0,0.0,0.0,0.0,0.0,0.0,0.0,0.0,0.0,0.0,0.0,0.0,0.0,0.0,0.0,0.0,0.0,0.0,0.0,0.0,0.0,0.0,0.0,0.0,0.0,0.0,0.0,2.763,2.9311,2.9391,2.8899,2.7928,2.6435,2.4569,0.0,0.0,0.0,0.0,0.0,0.0,0.0,0.0,0.0,0.0,0.0,0.0,0.0,0.0,0.0,0.0,0.0,0.0,0.0,0.0,0.0,0.0,0.0,0.0,0.0,0.0,0.0,0.0,0.0,0.0,0.0,0.0,0.0,0.0,0.0,0.0,0.0,0.0,0.0,0.0,0.0,0.0,0.0,0.0,0.0,0.0,0.0,0.0,0.0,0.0,0.0,0.0,0.0,0.0,0.0,0.0,0.0,0.0,0.0,0.0,0.0,0.0,0.0,0.0,0.0,0.0,0.0,0.0,0.0,0.0,0.0,0.0,0.0,0.0,0.0,0.0,0.0,0.0,0.0,0.0,0.0,0.0,0.0,0.0,0.0,0.0,0.0,0.0,0.0,0.0,0.0,0.0,0.0,0.0,0.0,0.0,0.0,0.0,0.0,0.0,0.0,0.0,0.0,0.0,0.0,0.0,0.0,0.0,2.9113,3.0755,3.0877,3.0925,3.0816,2.7687,2.513,0.0,0.0,0.0,0.0,0.0,0.0,0.0,0.0,0.0,0.0,0.0,0.0,0.0,0.0,0.0,0.0,0.0,0.0,0.0,0.0,0.0,0.0,0.0,0.0,0.0,0.0,0.0,0.0,0.0,0.0,0.0,0.0,0.0,0.0,0.0,0.0,0.0,0.0,0.0,0.0,0.0,0.0,0.0,0.0,0.0,0.0,0.0,0.0,0.0,0.0,0.0,0.0,0.0,0.0,0.0,0.0,0.0,0.0,0.0,0.0,0.0,0.0,0.0,0.0,0.0,0.0,0.0,0.0,0.0,0.0,0.0,0.0,0.0,0.0,0.0,0.0,0.0,0.0,0.0,0.0,0.0,0.0,0.0,0.0,0.0,0.0,0.0,0.0,0.0,0.0,0.0,0.0,0.0,0.0,0.0,0.0,0.0,0.0,0.0,0.0,0.0,0.0,0.0,0.0,0.0,0.0,0.0,0.0,2.9129,3.0818,3.0895,3.0929,3.0884,2.8818,2.6848,0.0,0.0,0.0,0.0,0.0,0.0,0.0,0.0,0.0,0.0,0.0,0.0,0.0,0.0,0.0,0.0,0.0,0.0,0.0,0.0,0.0,0.0,0.0,0.0,0.0,0.0,0.0,0.0,0.0,0.0,0.0,0.0,0.0,0.0,0.0,0.0,0.0,0.0,0.0,0.0,0.0,0.0,0.0,0.0,0.0,0.0,0.0,0.0,2.0996,0.0,0.0,0.0,0.0,0.0,0.0,0.0,0.0,0.0,0.0,0.0,0.0,0.0,0.0,0.0,0.0,0.0,0.0,0.0,0.0,0.0,0.0,0.0,0.0,0.0,0.0,0.0,0.0,0.0,0.0,0.0,0.0,0.0,0.0,0.0,0.0,0.0,0.0,0.0,0.0,0.0,0.0,0.0,0.0,0.0,0.0,0.0,0.0,0.0,0.0,0.0,0.0,0.0,0.0,0.0,0.0,0.0,0.0,0.0,2.9324,3.144,3.1484,3.1445,3.1406,3.0111,2.8207,0.0,0.0,0.0,0.0,0.0,0.0,0.0,0.0,0.0,0.0,0.0,0.0,0.0,0.0,0.0,0.0,0.0,0.0,0.0,0.0,0.0,0.0,0.0,0.0,0.0,0.0,0.0,0.0,0.0,0.0,0.0,0.0,0.0,0.0,0.0,0.0,0.0,0.0,0.0,0.0,0.0,0.0,0.0,0.0,0.0,0.0,0.0,0.0,0.0,0.0,0.0,0.0,0.0,0.0,0.0,0.0,0.0,0.0,0.0,0.0,0.0,0.0,0.0,0.0,0.0,0.0,0.0,0.0,0.0,0.0,0.0,0.0,0.0,0.0,0.0,0.0,0.0,0.0,0.0,0.0,0.0,0.0,0.0,0.0,0.0,0.0,0.0,0.0,0.0,0.0,0.0,0.0,0.0,0.0,0.0,0.0,0.0,0.0,0.0,0.0,0.0,0.0,0.0,0.0,0.0,0.0,0.0,2.842,2.9786,3.2248,3.2341,3.2282,3.2285,3.1364,2.9387,2.6196,0.0,0.0,0.0,0.0,0.0,0.0,0.0,0.0,0.0,0.0,0.0,0.0,0.0,0.0,0.0,0.0,0.0,0.0,0.0,0.0,0.0,0.0,0.0,0.0,0.0,0.0,0.0,0.0,0.0,0.0,0.0,0.0,0.0,0.0,0.0,0.0,0.0,0.0,1.7624,1.9969,0.0,0.0,0.0,0.0,0.0,0.0,0.0,0.0,2.2978,0.0,0.0,0.0,0.0,0.0,0.0,0.0,0.0,0.0,0.0,0.0,0.0,0.0,0.0,0.0,0.0,0.0,0.0,0.0,0.0,0.0,0.0,0.0,0.0,0.0,0.0,0.0,0.0,0.0,0.0,0.0,0.0,0.0,0.0,0.0,0.0,0.0,0.0,0.0,0.0,0.0,0.0,0.0,0.0,0.0,0.0,0.0,0.0,0.0,0.0,0.0,0.0,0.0,0.0,0.0,0.0,2.8254,2.9042,3.0648,3.3107,3.3203,3.3192,3.3144,3.2208,3.0467,2.7906,0.0,0.0,0.0,0.0,0.0,0.0,0.0,0.0,0.0,0.0,0.0,0.0,0.0,0.0,0.0,0.0,0.0,0.0,0.0,0.0,0.0,0.0,0.0,0.0,0.0,0.0,0.0,0.0,0.0,0.0,0.0,0.0,0.0,0.0,0.0,0.0,0.0,0.0,0.0,2.0652,2.1751,0.0,0.0,0.0,0.0,0.0,0.0,0.0,0.0,2.3257,0.0,0.0,0.0,0.0,0.0,0.0,0.0,0.0,0.0,0.0,0.0,0.0,0.0,0.0,0.0,0.0,0.0,0.0,0.0,0.0,0.0,0.0,0.0,0.0,0.0,0.0,0.0,0.0,0.0,0.0,0.0,0.0,0.0,0.0,0.0,0.0,0.0,0.0,0.0,0.0,0.0,0.0,0.0,0.0,0.0,0.0,0.0,0.0,0.0,0.0,0.0,0.0,0.0,0.0,0.0,2.8168,2.9155,3.0611,3.2691,3.3593,3.3853,3.3427,3.2863,3.1414,0.0,0.0,0.0,0.0,0.0,0.0,0.0,0.0,0.0,0.0,0.0,0.0,0.0,0.0,0.0,0.0,0.0,0.0,0.0,0.0,0.0,0.0,0.0,0.0,0.0,0.0,0.0,0.0,0.0,0.0,0.0,0.0,0.0,0.0,0.0,0.0,0.0,0.0,0.0,0.0,2.2152,2.3471,2.3947,0.0,0.0,0.0,0.0,0.0,0.0,2.5293,2.506,0.0,0.0,0.0,0.0,0.0,0.0,0.0,0.0,0.0,0.0,0.0,0.0,0.0,0.0,0.0,0.0,0.0,0.0,0.0,0.0,0.0,0.0,0.0,0.0,0.0,0.0,0.0,0.0,0.0,0.0,0.0,0.0,0.0,0.0,0.0,0.0,0.0,0.0,0.0,0.0,0.0,0.0,0.0,0.0,0.0,0.0,0.0,0.0,0.0,0.0,0.0,0.0,0.0,0.0,0.0,2.82,2.9497,3.0847,3.2344,3.406,3.4471,3.3429,3.3252,3.1972,0.0,0.0,0.0,0.0,0.0,0.0,0.0,0.0,0.0,0.0,0.0,0.0,0.0,0.0,0.0,0.0,0.0,0.0,0.0,0.0,0.0,0.0,0.0,0.0,0.0,0.0,0.0,0.0,0.0,0.0,0.0,0.0,0.0,0.0,0.0,0.0,0.0,0.0,0.0,0.0,0.0,2.5094,2.5401,2.6271,0.0,0.0,0.0,0.0,2.6977,2.7093,0.0,0.0,0.0,0.0,0.0,0.0,0.0,0.0,0.0,0.0,0.0,0.0,0.0,0.0,0.0,0.0,0.0,0.0,0.0,0.0,0.0,0.0,0.0,0.0,0.0,0.0,0.0,0.0,0.0,0.0,0.0,0.0,0.0,0.0,0.0,0.0,0.0,0.0,0.0,0.0,0.0,0.0,0.0,0.0,0.0,0.0,0.0,0.0,0.0,0.0,0.0,0.0,0.0,0.0,0.0,0.0,2.8314,3.0625,3.229,3.3281,3.4953,3.5084,3.3473,3.3276,3.1647,0.0,0.0,0.0,0.0,0.0,0.0,0.0,0.0,0.0,0.0,0.0,0.0,0.0,0.0,0.0,0.0,0.0,0.0,0.0,0.0,0.0,0.0,0.0,0.0,0.0,0.0,0.0,0.0,0.0,0.0,0.0,0.0,0.0,0.0,0.0,0.0,0.0,0.0,0.0,0.0,0.0,2.5311,2.6244,2.711,2.7654,0.0,0.0,2.7834,2.8772,2.8786,0.0,0.0,0.0,0.0,0.0,0.0,0.0,0.0,0.0,0.0,0.0,0.0,0.0,0.0,0.0,0.0,0.0,0.0,0.0,0.0,0.0,0.0,0.0,0.0,0.0,0.0,0.0,0.0,0.0,0.0,0.0,0.0,0.0,0.0,0.0,0.0,0.0,0.0,0.0,0.0,0.0,0.0,0.0,0.0,0.0,0.0,0.0,0.0,0.0,0.0,0.0,0.0,0.0,0.0,0.0,2.5987,2.8217,3.0303,3.2043,3.3392,3.5115,3.5402,3.4174,3.3589,3.1895,0.0,0.0,0.0,0.0,0.0,0.0,0.0,0.0,0.0,0.0,0.0,0.0,0.0,0.0,0.0,0.0,0.0,0.0,0.0,0.0,0.0,0.0,0.0,0.0,0.0,0.0,0.0,0.0,0.0,0.0,0.0,0.0,0.0,0.0,0.0,0.0,0.0,0.0,0.0,0.0,0.0,0.0,2.7115,2.7892,0.0,0.0,0.0,2.8626,2.9066,0.0,0.0,0.0,0.0,0.0,0.0,0.0,0.0,0.0,0.0,0.0,0.0,0.0,0.0,0.0,0.0,0.0,0.0,0.0,0.0,0.0,0.0,0.0,0.0,0.0,0.0,0.0,0.0,0.0,0.0,0.0,0.0,0.0,0.0,0.0,0.0,0.0,0.0,0.0,0.0,0.0,0.0,0.0,0.0,0.0,0.0,0.0,0.0,0.0,0.0,0.0,0.0,0.0,0.0,0.0,0.0,0.0,2.8184,3.0126,3.187,3.3375,3.5078,3.5454,3.4389,3.3478,0.0,0.0,0.0,0.0,0.0,0.0,0.0,0.0,0.0,0.0,0.0,0.0,0.0,0.0,0.0,0.0,0.0,0.0,0.0,0.0,0.0,0.0,0.0,0.0,0.0,0.0,0.0,1.6791,0.0,0.0,0.0,0.0,0.0,0.0,0.0,0.0,0.0,0.0,0.0,0.0,0.0,0.0,2.8259,2.83,2.9192,2.9677,0.0,0.0,2.9985,3.0033,3.0714,3.0932,0.0,0.0,0.0,0.0,0.0,0.0,0.0,0.0,0.0,0.0,0.0,0.0,0.0,0.0,0.0,0.0,0.0,0.0,0.0,0.0,0.0,0.0,0.0,0.0,0.0,0.0,0.0,0.0,0.0,0.0,0.0,0.0,0.0,0.0,0.0,0.0,0.0,0.0,0.0,0.0,0.0,0.0,0.0,0.0,0.0,0.0,0.0,0.0,0.0,0.0,0.0,0.0,0.0,0.0,0.0,2.8235,3.0725,3.2435,3.3402,3.5113,3.5193,3.3537,3.258,3.091,0.0,0.0,0.0,0.0,0.0,0.0,0.0,0.0,0.0,0.0,0.0,0.0,0.0,0.0,0.0,0.0,0.0,0.0,0.0,0.0,0.0,0.0,0.0,0.0,0.0,0.0,0.0,0.0,0.0,0.0,0.0,0.0,0.0,0.0,0.0,0.0,0.0,0.0,0.0,0.0,0.0,2.9966,3.0032,3.1422,3.2445,0.0,0.0,3.266,3.2622,3.3313,3.3338,3.1775,0.0,0.0,0.0,0.0,0.0,0.0,0.0,0.0,0.0,0.0,0.0,0.0,0.0,0.0,0.0,0.0,0.0,0.0,0.0,0.0,0.0,0.0,0.0,0.0,0.0,0.0,0.0,0.0,0.0,0.0,0.0,0.0,0.0,0.0,0.0,0.0,0.0,0.0,0.0,0.0,0.0,0.0,0.0,0.0,0.0,0.0,0.0,0.0,0.0,0.0,0.0,0.0,0.0,2.6728,2.8139,3.0219,3.1997,3.3375,3.5096,3.5155,3.3422,3.3018,3.1387,0.0,0.0,0.0,0.0,0.0,0.0,0.0,0.0,0.0,0.0,0.0,0.0,0.0,0.0,0.0,0.0,0.0,0.0,0.0,0.0,0.0,0.0,0.0,0.0,0.0,0.0,0.0,0.0,1.9211,1.9701,1.9657,0.0,0.0,0.0,0.0,0.0,0.0,0.0,0.0,0.0,0.0,3.0352,3.0911,3.2431,0.0,0.0,3.4141,3.4658,3.3122,3.4043,3.4361,3.2699,3.2377,0.0,0.0,0.0,0.0,0.0,0.0,0.0,0.0,0.0,0.0,0.0,0.0,0.0,0.0,0.0,0.0,0.0,0.0,0.0,0.0,0.0,0.0,0.0,0.0,0.0,0.0,0.0,0.0,0.0,0.0,0.0,0.0,0.0,0.0,0.0,0.0,0.0,0.0,0.0,0.0,0.0,0.0,0.0,0.0,0.0,0.0,0.0,0.0,0.0,0.0,0.0,0.0,2.6611,2.8113,2.9886,3.1621,3.334,3.4831,3.4912,3.3471,3.3146,3.1629,0.0,0.0,0.0,0.0,0.0,0.0,0.0,0.0,0.0,0.0,0.0,0.0,0.0,0.0,0.0,0.0,0.0,0.0,0.0,0.0,0.0,0.0,0.0,0.0,0.0,0.0,0.0,0.0,2.0046,2.0517,2.047,0.0,0.0,0.0,0.0,0.0,0.0,0.0,0.0,0.0,0.0,3.1259,3.2148,3.3677,3.4534,3.3976,3.563,3.6343,3.462,3.536,3.559,3.3942,0.0,0.0,0.0,0.0,0.0,0.0,0.0,0.0,0.0,0.0,0.0,0.0,0.0,0.0,0.0,0.0,0.0,0.0,0.0,0.0,0.0,0.0,0.0,0.0,0.0,0.0,0.0,1.5421,0.0,0.0,1.5409,0.0,0.0,0.0,0.0,0.0,0.0,0.0,0.0,0.0,0.0,0.0,0.0,0.0,0.0,0.0,0.0,0.0,0.0,0.0,0.0,0.0,0.0,2.7141,2.8117,2.9829,3.1527,3.3232,3.4257,3.4303,3.3435,3.2572,3.1298,2.9476,0.0,0.0,0.0,0.0,0.0,0.0,0.0,0.0,0.0,0.0,0.0,0.0,0.0,0.0,0.0,0.0,0.0,0.0,0.0,0.0,0.0,0.0,0.0,0.0,0.0,0.0,2.0293,2.0871,2.1369,0.0,0.0,0.0,0.0,0.0,0.0,0.0,0.0,0.0,0.0,3.1546,3.2966,3.383,3.5381,3.6413,3.6375,3.7206,3.7753,3.7616,3.7724,3.7324,0.0,0.0,0.0,0.0,0.0,0.0,0.0,0.0,0.0,0.0,0.0,0.0,0.0,0.0,0.0,0.0,0.0,0.0,0.0,0.0,0.0,0.0,0.0,0.0,0.0,0.0,0.0,1.5334,1.6029,0.0,0.0,0.0,0.0,0.0,0.0,0.0,0.0,0.0,0.0,0.0,2.1435,2.2181,0.0,0.0,0.0,0.0,0.0,0.0,0.0,0.0,0.0,0.0,0.0,0.0,2.7147,2.8078,2.98,3.1273,3.2428,3.3885,3.4218,3.3354,3.3086,3.163,2.8792,0.0,0.0,0.0,0.0,0.0,0.0,0.0,0.0,0.0,0.0,0.0,0.0,0.0,0.0,0.0,0.0,0.0,0.0,0.0,0.0,0.0,0.0,0.0,0.0,0.0,2.1594,0.0,0.0,0.0,0.0,0.0,0.0,0.0,0.0,0.0,0.0,0.0,2.9421,2.9999,3.2057,3.3808,3.4655,3.626,3.7385,0.0,0.0,0.0,0.0,0.0,0.0,0.0,0.0,0.0,0.0,0.0,0.0,0.0,0.0,3.608,3.3887,3.2961,3.253,3.2458,0.0,0.0,0.0,0.0,0.0,0.0,0.0,0.0,0.0,0.0,0.0,0.0,0.0,0.0,1.6236,0.0,1.6352,0.0,0.0,0.0,0.0,0.0,0.0,0.0,0.0,2.1325,2.1825,2.214,2.293,2.3183,0.0,2.3195,2.2892,0.0,0.0,0.0,0.0,0.0,0.0,0.0,0.0,2.7518,2.8414,2.9907,3.1072,3.195,3.3109,3.3444,3.2868,3.2617,3.1319,2.8798,2.7874,2.6743,0.0,0.0,0.0,0.0,0.0,0.0,0.0,0.0,0.0,0.0,0.0,0.0,0.0,0.0,0.0,0.0,0.0,0.0,0.0,0.0,0.0,0.0,0.0,2.2259,0.0,0.0,0.0,0.0,0.0,0.0,0.0,0.0,0.0,2.8441,2.9353,3.0342,3.1232,3.2781,3.4263,3.5391,0.0,0.0,0.0,0.0,0.0,0.0,0.0,4.0003,3.9146,3.9067,3.922,3.97,3.9946,4.0307,4.0898,0.0,0.0,3.61,3.5095,3.4679,3.466,3.5078,3.578,3.6879,3.8167,3.938,0.0,0.0,0.0,0.0,0.0,0.0,0.0,0.0,1.6657,1.7131,0.0,1.7738,0.0,0.0,0.0,0.0,0.0,1.8782,0.0,0.0,2.1972,2.2817,2.3585,2.4374,2.4403,2.3827,2.4482,2.4454,2.3671,2.3018,0.0,0.0,0.0,0.0,0.0,0.0,2.8247,2.9168,3.0105,3.0994,3.1796,3.1942,3.2007,3.1992,3.1289,3.0448,2.9539,2.872,2.79,2.7005,2.5377,0.0,0.0,0.0,0.0,0.0,0.0,0.0,0.0,0.0,0.0,0.0,0.0,0.0,0.0,0.0,0.0,0.0,0.0,0.0,0.0,2.2288,0.0,0.0,0.0,0.0,0.0,0.0,0.0,0.0,0.0,0.0,3.0212,3.0281,3.1102,3.341,0.0,0.0,0.0,0.0,3.8004,3.8842,4.0425,4.1474,4.1335,4.2067,4.2335,4.1449,0.0,0.0,4.149,4.2117,4.2607,4.2683,4.2015,4.087,3.9351,3.8819,3.8646,3.8605,3.8643,3.9342,4.0821,4.1692,4.2716,1.8056,0.0,0.0,0.0,0.0,1.648,1.708,1.8414,1.7754,1.7903,1.8628,1.7922,0.0,0.0,0.0,0.0,0.0,0.0,1.9976,2.0977,2.1812,2.2622,2.3416,2.427,2.4579,2.4429,2.4655,2.4956,2.5258,2.4525,2.4317,2.4561,0.0,0.0,0.0,0.0,2.8207,2.9037,2.999,3.0584,3.0907,3.1516,3.1895,3.2015,3.1831,3.1053,2.9643,2.9326,2.8541,2.7091,2.6517,0.0,0.0,0.0,0.0,0.0,0.0,0.0,0.0,0.0,0.0,0.0,0.0,0.0,0.0,0.0,0.0,0.0,0.0,0.0,2.3283,2.4052,2.4843,0.0,0.0,0.0,0.0,0.0,0.0,0.0,0.0,0.0,3.3484,3.3646,3.3861,0.0,0.0,3.6727,3.7847,3.8736,3.957,4.0393,4.1351,0.0,4.2094,4.2229,4.2304,4.2177,4.2693,4.3133,4.3123,4.3247,4.3809,4.4995,4.4037,4.3194,4.3801,4.1563,3.9781,3.9646,4.0479,4.1427,4.2033,4.3649,4.519,1.9406,1.8789,1.7656,1.7689,1.8336,1.7855,1.8406,1.9672,1.909,1.9132,1.9522,1.8943,1.8641,1.8572,1.9183,0.0,0.0,0.0,2.0877,2.1332,2.2136,2.2938,2.3735,2.429,2.458,2.4629,2.4629,2.4869,2.541,2.4923,2.4707,2.4753,0.0,0.0,2.626,2.7191,2.8083,2.8964,2.9832,3.0355,3.0452,3.1023,3.1352,3.1437,3.1529,3.1124,3.0116,2.9414,2.8555,2.7498,2.6836,2.5854,0.0,0.0,0.0,0.0,0.0,0.0,0.0,0.0,0.0,0.0,0.0,2.2245,2.2779,0.0,0.0,0.0,2.2521,2.3774,2.4947,2.5433,0.0,0.0,0.0,0.0,0.0,0.0,0.0,3.1092,3.2172,3.3396,3.5037,3.5983,3.6388,3.5951,3.7007,3.8115,3.8968,0.0,4.0669,4.1434,4.2545,4.3277,4.3315,4.3542,4.3768,4.3869,4.4624,4.5166,4.519,4.5166,4.5545,4.6328,4.5848,4.5483,4.6468,4.4535,4.2754,4.2488,4.317,4.3966,4.4308,4.5886,4.7277,2.0459,2.0275,1.8808,1.8637,1.929,1.929,1.9752,2.0478,2.0478,2.0454,2.0404,2.0314,2.0211,2.0088,2.0639,0.0,2.0645,2.1559,2.1962,2.2013,2.2748,2.356,2.4353,2.4445,2.4479,2.4476,2.4476,2.4513,2.4588,2.4551,2.4534,2.4588,2.4698,2.525,2.6176,2.7047,2.7941,2.8841,2.9726,3.0202,3.0279,3.0469,3.0595,3.0605,3.0709,3.0759,3.064,2.9157,2.8225,2.808,2.6626,2.5405,2.457,0.0,0.0,0.0,0.0,0.0,0.0,0.0,0.0,0.0,0.0,0.0,0.0,0.0,0.0,0.0,2.36,0.0,2.6431,2.6622,0.0,0.0,0.0,2.8542,3.0128,3.0266,3.0912,3.2691,0.0,0.0,3.5583,3.7562,3.867,3.7709,3.8184,3.8922,3.975,4.0664,4.1467,4.227,4.3831,4.489,4.4723,4.538,4.5897,4.5951,4.6749,4.7133,4.7133,4.7186,4.7314,4.7427,4.7453,4.7453,4.7567,4.7416,4.7302,4.6506,4.6468,4.6695,4.7226,4.8249,4.9224,2.0464,2.0451,2.0055,2.0029,2.021,2.0171,2.0288,2.0517,2.0454,2.0432,2.0404,2.0287,2.0356,2.0603,2.0789,2.1079,2.1441,2.1674,2.2096,2.2666,2.2903,2.3474,2.4248,2.4321,2.4338,2.4351,2.4338,2.4652,2.5224,2.4652,2.4708,2.5282,2.4779,2.4974,2.6016,2.749,2.8385,2.8644,2.952,3.0015,3.0142,3.0352,3.0443,3.0452,3.0644,3.0442,2.9853,2.9359,2.854,2.7285,2.6844,2.6203,2.5362,2.5307,0.0,0.0,0.0,0.0,0.0,0.0,0.0,0.0,0.0,2.3826,2.4498,0.0,2.4289,0.0,2.4474,2.5674,2.7347,2.7443,0.0,0.0,2.9612,3.0251,3.1889,3.2607,3.3408,3.4534,3.5518,3.6646,3.8032,3.9147,3.9944,4.0203,4.0375,4.0736,4.148,4.2322,4.2874,4.3186,4.4493,4.5481,4.5566,4.6224,4.6826,4.6847,4.7061,4.7202,4.7184,4.7202,4.7446,4.7974,4.7662,4.7829,4.9007,4.8818,4.859,4.8894,4.9007,4.8856,4.8515,5.002,5.1385,2.038,2.0387,2.0391,2.0388,2.0386,2.0847,2.1022,2.1046,2.0913,2.0875,2.0862,2.0373,2.0421,2.0941,2.1287,2.1525,2.1786,2.2465,2.2795,2.2849,2.3253,2.3694,2.4153,2.421,2.4266,2.4284,2.4266,2.4487,2.4857,2.4413,2.4468,2.4948,2.4912,2.4949,2.5224,2.6894,2.7806,2.7968,2.9149,2.9839,2.9991,3.0122,3.0215,3.0298,3.0115,2.9807,2.9363,2.8611,2.7762,2.6844,2.6456,2.6061,2.5602,2.5505,2.5297,0.0,0.0,0.0,0.0,0.0,0.0,0.0,0.0,0.0,0.0,0.0,2.559,2.5608,2.6397,2.7493,2.8783,2.9206,2.992,3.1202,3.169,3.2393,3.37,3.4547,3.5403,3.6293,3.7063,3.7924,3.8953,4.0005,4.0933,4.1711,4.1987,4.2284,4.2762,4.3702,4.4373,4.4421,4.5772,4.6786,4.6824,4.75,4.7988,4.7702,4.7972,4.8277,4.8219,4.8549,4.8842,4.8909,4.89,4.9004,4.9683,4.9522,4.9359,4.9765,5.022,5.0296,4.9917,5.0903,5.1812,2.0288,2.0294,2.0227,2.0195,2.0296,2.1274,2.1623,2.1473,2.1381,2.1413,2.1435,2.0641,2.0629,2.1267,2.184,2.2061,2.2056,2.3456,2.3709,2.2975,2.3687,2.4056,2.4114,2.417,2.417,2.417,2.4261,2.4278,2.4218,2.4312,2.4385,2.4401,2.5197,2.5201,2.4576,2.6021,2.6879,2.7081,2.8483,2.9307,2.9523,2.9607,2.9772,2.9931,2.9384,2.9017,2.8956,2.7477,2.6605,2.6489,2.5817,2.5437,2.5453,2.5404,2.5378,0.0,2.5303,0.0,0.0,0.0,0.0,0.0,0.0,0.0,0.0,2.638,2.6906,2.7826,2.872,2.9652,3.0483,3.1211,3.2001,3.2851,3.3639,3.4464,3.525,3.6188,3.7028,3.7753,3.8593,3.9146,3.9204,4.0499,4.177,4.2411,4.3123,4.3554,4.3841,4.4814,4.5585,4.581,4.7132,4.7995,4.8258,4.8827,4.9021,4.8551,4.8912,4.9574,4.9469,4.9995,5.0327,4.986,5.0018,5.0387,4.9977,4.9854,4.9844,5.0203,5.0733,5.1036,5.1102,5.1471,5.2002,2.025,2.0294,2.028,2.0294,2.0321,2.1164,2.1135,2.0489,2.0512,2.0864,2.1396,2.1244,2.1434,2.1891,2.2037,2.2337,2.283,2.3805,2.4192,2.41,2.4136,2.421,2.4247,2.4095,2.3996,2.4012,2.4569,2.4853,2.4846,2.5528,2.5855,2.581,2.5978,2.5978,2.5832,0.0,0.0,0.0,2.7157,2.7382,2.7494,2.8146,2.8625,2.8828,2.873,0.0,2.7842,2.6871,2.609,2.545,2.5273,0.0,0.0,0.0,0.0,0.0,0.0,0.0,0.0,0.0,0.0,0.0,2.6902,2.6676,2.6252,2.7433,2.8586,2.9406,3.0273,3.114,3.1993,3.2205,3.264,3.3527,3.4314,3.5151,3.6006,3.7395,3.8345,3.8495,3.9315,3.985,3.9886,4.1233,4.2291,4.2473,4.3553,4.4561,4.5208,4.5538,4.5931,4.651,4.7535,4.8327,4.8995,4.9214,4.9252,4.9271,4.934,4.949,4.9427,4.9609,4.9784,4.9521,4.9657,5.0101,5.047,5.0153,5.0174,5.1352,5.1209,5.0937,5.1187,5.2276,5.3328,1.999,0.0,2.0031,1.9984,0.0,2.0451,2.0393,2.004,2.0546,2.0986,2.1276,2.1248,2.157,2.2229,2.2443,2.2745,2.3068,2.3767,2.4114,2.4153,2.4095,2.4095,2.4114,2.4417,2.4496,2.4447,2.5208,2.5538,2.5445,2.5551,2.5551,2.5434,2.5327,2.5243,2.5278,2.5561,2.5985,2.6554,2.6481,2.6523,2.6683,2.7056,2.736,2.7586,2.7639,0.0,0.0,0.0,0.0,0.0,0.0,0.0,0.0,2.5704,0.0,2.6301,2.6249,2.6384,2.6778,2.6737,2.6811,2.7264,2.7612,2.7633,2.7301,2.8428,2.9297,2.9732,3.0956,3.1954,3.2371,3.3146,3.3809,3.43,3.5439,3.6387,3.69,3.8284,3.925,3.9261,3.9646,3.9933,3.9867,4.1236,4.2195,4.2297,4.3502,4.4749,4.5519,4.6044,4.669,4.7829,4.8263,4.8716,4.9155,4.9267,4.923,4.9364,4.9396,4.9327,4.9225,4.9936,5.0385,5.0043,5.0525,5.1199,5.1185,5.0986,5.0974,5.1692,5.1638,5.1555,5.2006,5.2817,5.3579,1.9719,1.9771,1.9713,1.9638,1.9561,1.9726,1.9838,2.0039,0.0,0.0,0.0,2.1492,2.184,2.2478,2.2856,2.3014,2.3087,2.3575,2.3837,2.3878,2.3878,2.3878,2.3894,2.465,2.4924,2.4882,2.5829,2.6188,2.6065,2.547,2.5159,2.4917,2.46,2.4392,2.4375,2.4975,2.5535,2.5961,2.5985,2.5984,2.6023,2.6145,2.6257,2.6385,2.6348,2.6388,2.6467,2.6414,2.6115,2.5537,2.5581,2.5762,2.6071,2.6132,2.6525,2.738,2.7373,2.7418,2.7585,2.7544,2.7591,2.7876,2.8484,2.8858,2.8783,2.9383,2.9851,3.0001,3.1505,3.2429,3.2486,3.3807,3.4733,3.4791,3.6305,3.731,3.7423,3.8801,3.9724,3.9754,3.9717,3.9792,3.9948,4.113,4.2066,4.2329,4.3437,4.467,4.5574,4.6494,4.7535,4.8814,4.9019,4.9098,4.9202,4.9202,4.9168,4.9267,4.923,4.9197,4.9384,5.0362,5.0962,5.0437,5.1596,5.2116,5.1996,5.1765,5.1903,5.2196,5.2145,5.2292,5.3014,5.3235,5.3481,1.9701,1.965,1.9625,1.9585,1.9532,1.9545,1.9968,2.0756,2.1796,2.2602,2.3267,2.3187,2.3124,2.3082,2.3007,2.2959,2.2905,2.3578,2.3806,2.3723,2.3858,2.3837,2.3768,2.4382,2.4659,2.4741,2.6003,2.6658,2.665,2.6561,2.6446,2.6156,2.5366,2.4758,2.456,2.5244,2.5339,2.478,2.5232,2.519,2.4534,2.5333,2.5566,2.5091,2.5091,2.5157,2.533,2.4771,2.439,2.4357,2.4469,2.4928,2.5701,2.5809,2.6272,2.7127,2.7169,2.7503,2.8282,2.8255,2.8783,3.001,3.0687,3.0826,3.0362,3.0383,3.0814,3.1565,3.2403,3.3044,3.3205,3.3977,3.4561,3.4755,3.6085,3.7038,3.7122,3.8488,3.9489,3.9476,3.9514,3.984,4.0439,4.1312,4.2173,4.2827,4.3689,4.4766,4.6132,4.7132,4.8017,4.8874,4.8996,4.8996,4.9101,4.9101,4.9098,4.9197,4.9197,4.916,4.9193,4.9948,5.0552,5.0484,5.1262,5.2004,5.2416,5.2039,5.2337,5.3196,5.3049,5.2902,5.3645,5.3683,5.3832,2.0066,1.9559,2.0129,2.0285,2.0099,2.0603,2.12,2.1835,2.2358,2.2794,2.3108,2.2973,2.3088,2.3455,2.3376,2.3297,2.3252,2.3466,2.358,2.3544,2.3602,2.3558,2.3575,2.4171,2.4453,2.4519,2.586,2.6514,2.6457,2.6307,2.6095,2.5914,2.489,2.4408,2.4514,2.4514,2.4347,2.3983,2.4547,2.4528,2.3826,2.4329,2.434,2.3742,2.4253,2.4647,2.4764,2.4905,2.4829,2.4505,2.4574,2.4864,2.5448,2.556,2.6061,2.6972,2.7512,2.7922,2.8332,2.9081,2.9715,3.0231,3.0931,3.1407,3.1569,3.1283,3.1302,3.1741,3.2497,3.2943,3.305,3.3766,3.446,3.4931,3.6087,3.7007,3.7529,3.8499,3.9192,3.9249,3.9611,4.0011,4.0337,4.1452,4.2307,4.2821,4.3763,4.5189,4.6755,4.7342,4.7927,4.8881,4.8996,4.8962,4.9068,4.9068,4.903,4.9098,4.9098,4.9027,4.9064,4.9735,5.0408,5.0932,5.16,5.2418,5.3126,5.3014,5.32,5.342,5.353,5.3419,5.3637,5.3674,5.3793,2.0378,1.9627,2.0576,2.0946,2.0914,2.146,2.2027,2.2564,2.2447,2.2576,2.2781,2.2679,2.3019,2.3581,2.358,2.3513,2.341,2.3295,2.3199,2.3271,2.3295,2.3342,2.3492,2.3995,2.4375,2.4723,2.5727,2.6169,2.622,2.5766,2.5341,2.4946,2.4181,2.4002,2.4337,2.3826,2.3568,2.3571,2.3851,2.3812,2.3489,2.3663,2.3493,2.3005,2.3606,2.403,2.4166,2.4807,2.4942,2.4468,2.4513,2.4765,2.5163,2.5267,2.5755,2.6726,2.762,2.8292,2.87,2.9828,3.0516,3.0509,3.113,3.1827,3.2419,3.2092,3.1774,3.1863,3.2551,3.2919,3.2907,3.367,3.4507,3.5135,3.6149,3.7026,3.7655,3.8432,3.8913,3.8966,3.9416,3.9859,4.0388,4.1314,4.223,4.2848,4.4033,4.5475,4.6801,4.7278,4.7863,4.8633,4.8892,4.8855,4.8962,4.8927,4.8892,4.8999,4.8927,4.8967,4.9191,4.9822,5.0675,5.1454,5.2233,5.2938,5.3569,5.3678,5.36,5.3637,5.3524,5.3481,5.3477,5.3518,5.3669,2.0299,2.0173,2.0552,2.1162,2.183,2.1366,2.1604,2.218,2.1838,2.2101,2.2818,2.3244,2.3298,2.3364,2.3378,2.327,2.3052,2.2902,2.2799,2.2773,2.2952,2.3301,2.3734,2.3764,2.4471,2.551,2.5539,2.5814,2.6286,2.5547,2.4611,2.3571,2.3665,2.3834,2.3847,2.379,2.3727,2.3759,2.3128,2.3071,2.3654,2.3914,2.3796,2.3274,2.2952,2.2851,2.311,2.3177,2.3312,2.3364,2.3484,2.3968,2.4739,2.4797,2.528,2.646,2.7118,2.8153,2.9637,3.0446,3.1139,3.1844,3.2235,3.2644,3.2973,3.2804,3.2565,3.2611,3.3095,3.3241,3.2747,3.3826,3.471,3.5002,3.6163,3.7113,3.7296,3.7953,3.8465,3.8428,3.8643,3.9086,4.0401,4.1022,4.1745,4.3198,4.4086,4.5114,4.625,4.6948,4.761,4.8347,4.8642,4.8642,4.8678,4.8642,4.8678,4.8678,4.8642,4.8974,4.9566,5.0342,5.1265,5.1893,5.2705,5.3265,5.3447,5.3558,5.3558,5.3481,5.3518,5.3518,5.3518,5.3481,5.3739,2.1155,2.0713,2.1768,2.2361,2.2597,2.2482,2.2549,2.2634,2.2194,2.2139,2.2309,2.2351,2.2478,2.2721,2.2911,2.2868,2.2642,2.2392,2.2254,2.2209,2.2608,2.2714,2.2559,2.3371,2.3873,2.4074,2.4547,2.5073,2.5337,2.511,2.4601,2.3889,2.3639,2.3507,2.3515,2.3172,2.2954,2.2954,2.2599,2.2555,2.2885,2.3312,2.3422,2.326,2.3283,2.3186,2.3051,2.3157,2.3143,2.2997,2.3012,2.3428,2.4392,2.4367,2.4821,2.5853,2.6666,2.7779,2.9322,3.0127,3.0892,3.1586,3.2246,3.2639,3.2802,3.2702,3.2834,3.3208,3.3682,3.4021,3.4202,3.4749,3.5291,3.576,3.6443,3.6985,3.7492,3.7781,3.8068,3.8171,3.857,3.9293,4.0489,4.1433,4.2487,4.3616,4.4197,4.4853,4.6095,4.6684,4.7197,4.7895,4.8192,4.8345,4.8495,4.8569,4.8569,4.8679,4.9012,4.9529,4.9787,5.0526,5.1337,5.2183,5.2629,5.3111,5.3407,5.344,5.34,5.34,5.3355,5.3314,5.3314,5.3314,5.3792,2.1427,2.1185,2.2363,2.2748,2.2489,2.2832,2.2848,2.2599,2.2269,2.1989,2.1731,2.1552,2.1639,2.1922,2.2287,2.2355,2.2113,2.1874,2.1827,2.2035,2.247,2.257,2.2474,2.2932,2.3391,2.3588,2.3905,2.4349,2.4737,2.4805,2.4655,2.4307,2.3825,2.3579,2.3526,2.2902,2.2555,2.2408,2.2217,2.2109,2.2339,2.2685,2.2933,2.3131,2.345,2.349,2.3185,2.331,2.3257,2.3011,2.2915,2.3266,2.4095,2.4109,2.4538,2.5485,2.6302,2.7452,2.9031,2.9792,3.0568,3.1354,3.202,3.2335,3.2439,3.2546,3.2967,3.367,3.4235,3.4729,3.5113,3.5434,3.5791,3.6255,3.6505,3.697,3.7362,3.7469,3.7504,3.7685,3.822,3.9224,4.0376,4.1674,4.2832,4.3379,4.3776,4.4353,4.5694,4.6205,4.668,4.7482,4.771,4.7992,4.8382,4.8495,4.8532,4.8679,4.9121,4.9748,5.0044,5.0818,5.163,5.2504,5.2512,5.2659,5.3212,5.3277,5.3193,5.3157,5.3109,5.306,5.3103,5.3103,5.3799,2.0433,2.1034,2.1675,2.164,2.1143,2.1536,2.1672,2.1609,2.1552,2.1428,2.1364,2.1399,2.1303,2.1082,2.1624,2.1716,2.1554,2.1397,2.1725,2.2345,2.2508,2.326,2.4475,2.3091,2.3412,2.4839,2.3802,2.3808,2.4879,2.4735,2.4564,2.4441,2.4204,2.412,2.3998,2.3325,2.2828,2.2521,2.1821,2.168,2.2182,2.2313,2.2515,2.276,2.3131,2.3342,2.3351,2.3353,2.3355,2.3456,2.3358,2.3589,2.4046,2.4079,2.4574,2.5564,2.61,2.7291,2.9108,2.9693,3.042,3.1566,3.177,3.1839,3.1982,3.2389,3.3003,3.3908,3.449,3.4857,3.4896,3.5502,3.5821,3.5751,3.6453,3.6794,3.6706,3.6701,3.6655,3.68,3.7434,3.8572,4.0137,4.1372,4.2008,4.2495,4.3042,4.3793,4.4664,4.5509,4.6234,4.6864,4.724,4.7536,4.8068,4.8229,4.8267,4.8453,4.8928,4.985,5.0622,5.1434,5.2201,5.2784,5.2815,5.2926,5.3109,5.3103,5.2974,5.285,5.2761,5.2753,5.2806,5.2806,5.3543,2.0347,2.0574,2.0955,2.0893,2.0607,2.0799,2.0926,2.0895,2.0635,2.0665,2.0827,2.0563,2.0677,2.114,2.1073,2.1186,2.1363,2.1167,2.1405,2.1972,2.2293,2.254,2.2716,2.2902,2.3249,2.3677,2.3619,2.3794,2.4307,2.4482,2.44,2.4242,2.4277,2.4146,2.3859,2.3732,2.3393,2.2863,2.2088,2.1756,2.1874,2.1903,2.1971,2.214,2.3222,2.3686,2.3475,2.3555,2.3551,2.3315,2.3178,2.3509,2.4307,2.4835,2.5299,2.5809,2.6486,2.7432,2.8609,2.9437,3.0299,3.1257,3.1389,3.1423,3.1606,3.2071,3.27,3.3447,3.4151,3.4644,3.5079,3.5587,3.5937,3.5849,3.6042,3.6199,3.6002,3.5994,3.6037,3.6122,3.7031,3.8318,3.9188,4.0408,4.1311,4.1604,4.2027,4.2732,4.3754,4.4501,4.5275,4.6118,4.6613,4.6845,4.6855,4.7542,4.7947,4.8207,4.8644,4.9445,5.0253,5.1213,5.2017,5.2506,5.2761,5.2806,5.2761,5.2708,5.2618,5.2536,5.2444,5.2397,5.249,5.2408,5.3344,1.9688,1.9748,1.9932,1.9867,1.9693,1.9802,1.9871,1.9932,1.9788,1.9914,2.0212,1.994,2.0135,2.058,2.037,2.0617,2.1152,2.1122,2.1409,2.1894,2.2289,2.239,2.2454,2.2951,2.3245,2.3251,2.3613,2.3897,2.3867,2.4109,2.4067,2.3799,2.3956,2.3792,2.3467,2.3612,2.3447,2.283,2.2291,2.1912,2.1749,2.1733,2.1705,2.1851,2.282,2.3443,2.3366,2.3498,2.3522,2.3324,2.3255,2.3588,2.4441,2.5148,2.5718,2.6091,2.6681,2.741,2.8286,2.9032,2.9788,3.0419,3.0684,3.0858,3.1008,3.1712,3.2387,3.2949,3.3425,3.3942,3.4319,3.4664,3.4992,3.5318,3.5431,3.534,3.5165,3.5258,3.5371,3.5706,3.6801,3.7814,3.8397,3.9583,4.0343,4.0625,4.0896,4.1518,4.2699,4.336,4.4077,4.5233,4.5699,4.59,4.6098,4.6531,4.699,4.7259,4.8395,4.9197,4.9775,5.0814,5.1692,5.2134,5.2387,5.2397,5.2351,5.2293,5.2198,5.2162,5.2018,5.192,5.1982,5.203,5.2906,1.8349,1.8493,1.8493,1.8444,1.8366,1.8472,1.8559,1.8769,1.9006,1.925,1.9487,1.9624,1.9604,1.9524,1.9693,2.004,2.079,2.1322,2.185,2.2342,2.2515,2.2939,2.3486,2.2927,2.3101,2.3734,2.3909,2.3824,2.361,2.3623,2.3566,2.3348,2.3378,2.3303,2.2875,2.3065,2.29,2.2449,2.2132,2.1974,2.1841,2.169,2.1568,2.1547,2.1868,2.2338,2.2935,2.3024,2.32,2.349,2.349,2.3837,2.4502,2.4958,2.5527,2.6254,2.6547,2.7199,2.8222,2.8522,2.8818,2.9265,2.9734,3.005,3.0224,3.1102,3.1929,3.2237,3.2528,3.2737,3.2883,3.2894,3.3301,3.4284,3.446,3.4399,3.4331,3.4331,3.461,3.5464,3.6422,3.7268,3.8033,3.8887,3.951,3.9595,3.9834,4.0425,4.1668,4.2238,4.2949,4.4067,4.4674,4.4912,4.518,4.5494,4.5865,4.635,4.7796,4.8925,4.9281,5.0056,5.1021,5.1615,5.1786,5.175,5.1615,5.15,5.1586,5.1536,5.1434,5.1331,5.1347,5.1454,5.2147,1.6845,1.7063,1.7076,1.7111,1.7267,1.7666,1.7935,1.8104,1.8329,1.8495,1.8657,1.8669,1.8871,1.9284,1.9831,2.0373,2.0901,2.1563,2.2128,2.2422,2.2451,2.2701,2.3024,2.2863,2.2937,2.326,2.348,2.3436,2.3216,2.3348,2.3319,2.3097,2.3201,2.308,2.2615,2.2725,2.26,2.201,2.1575,2.1426,2.1449,2.0906,2.0653,2.0862,2.0991,2.1064,2.1042,2.1974,2.2694,2.3054,2.3172,2.3644,2.4398,2.465,2.5129,2.5975,2.6305,2.6673,2.7333,2.7781,2.8121,2.8401,2.8683,2.8762,2.8903,2.9744,3.0491,3.1009,3.1549,3.204,3.2373,3.229,3.2487,3.3176,3.3406,3.3519,3.3593,3.3911,3.4303,3.4835,3.5883,3.6731,3.7274,3.8079,3.858,3.8745,3.9102,3.9773,4.0889,4.1477,4.2245,4.3348,4.3598,4.3881,4.4078,4.4339,4.4618,4.5333,4.6778,4.8013,4.8486,4.9273,5.0189,5.0841,5.1017,5.1052,5.0893,5.084,5.0875,5.0784,5.0655,5.062,5.0659,5.1115,5.1794,1.5218,1.568,1.5684,1.5916,1.6329,1.666,1.706,1.7485,1.7667,1.7868,1.8104,1.8216,1.8441,1.8859,1.9439,1.9971,2.0375,2.0921,2.1431,2.1955,2.217,2.2263,2.2356,2.2292,2.2508,2.2733,2.2718,2.2718,2.2762,2.2552,2.2438,2.2348,2.2421,2.2201,2.1746,2.1833,2.1637,2.1118,2.0696,2.0577,2.063,2.0292,2.0005,1.9994,2.0275,2.0307,2.0164,2.1136,2.1863,2.232,2.285,2.3547,2.4158,2.444,2.5023,2.5764,2.618,2.6438,2.6811,2.7107,2.7343,2.7458,2.7629,2.785,2.8021,2.8634,2.9245,3.0014,3.0334,3.0867,3.1353,3.1427,3.1512,3.208,3.2447,3.2739,3.306,3.3793,3.4223,3.4673,3.5483,3.6075,3.6443,3.706,3.7562,3.7796,3.8108,3.891,3.9903,4.0567,4.1476,4.2284,4.2766,4.2925,4.2958,4.3207,4.3394,4.4374,4.5558,4.661,4.7327,4.8384,4.9382,4.9881,5.0237,5.0237,5.0067,5.0067,5.0045,4.9976,5.0238,5.0504,5.0735,5.0848,5.1408,1.3469,1.4291,1.4262,1.4692,1.5401,1.5433,1.5988,1.6753,1.6999,1.7291,1.7724,1.7953,1.8143,1.8266,1.8601,1.9102,1.942,1.982,2.0253,2.0815,2.1237,2.1431,2.1479,2.1527,2.1876,2.2385,2.1849,2.1855,2.2314,2.1578,2.0993,2.1166,2.1095,2.0822,2.0623,2.0573,2.0498,2.0169,1.9837,1.9656,1.9726,1.9858,1.974,1.9186,1.9806,2.0134,2.0092,2.0503,2.0887,2.1408,2.2603,2.33,2.3683,2.4356,2.5011,2.5741,2.5942,2.61,2.6399,2.6375,2.6353,2.6286,2.6711,2.7115,2.7417,2.7792,2.8482,2.9377,2.9287,2.9342,3.0098,3.0359,3.0711,3.1302,3.1923,3.2428,3.3172,3.39,3.4327,3.4539,3.5151,3.5582,3.5401,3.6199,3.6508,3.6631,3.6906,3.7899,3.8936,3.9818,4.0451,4.1215,4.2013,4.2142,4.2238,4.2429,4.2684,4.3453,4.4556,4.5544,4.6641,4.7801,4.8641,4.9095,4.9539,4.9445,4.9581,4.9752,4.9991,5.0305,5.0521,5.073,5.0832,5.0803,5.1108,1.1863,1.2412,1.2526,1.293,1.3689,1.454,1.5149,1.5615,1.6146,1.6409,1.6632,1.7044,1.7266,1.7388,1.8482,1.9075,1.9107,1.9585,1.9813,1.9888,1.9837,2.0446,2.0993,2.1091,2.1462,2.1941,2.1442,2.1336,2.1741,2.0963,2.0498,2.0295,2.0195,2.0093,2.0093,2.0093,2.0042,1.9862,1.9475,1.9274,1.9285,1.923,1.9239,1.9402,1.9913,2.01,1.9924,2.0256,2.0971,2.185,2.2247,2.283,2.3312,2.3582,2.415,2.4942,2.486,2.4805,2.519,2.5269,2.5269,2.5355,2.5771,2.6134,2.6637,2.6861,2.768,2.8562,2.885,2.9199,2.9923,3.0216,3.0511,3.1043,3.2049,3.2976,3.3336,3.3968,3.4422,3.4636,3.4868,3.5075,3.5259,3.5507,3.5752,3.594,3.644,3.7218,3.8296,3.9102,3.9725,4.0618,4.1355,4.1421,4.1488,4.172,4.2073,4.268,4.3654,4.4722,4.6149,4.7646,4.8236,4.8765,4.9236,4.9308,4.9678,4.9981,5.0318,5.052,5.0656,5.0725,5.0725,5.0693,5.0995,0.9973,1.0523,1.0661,1.1241,1.2188,1.3055,1.3776,1.4406,1.4984,1.5325,1.5558,1.5917,1.6363,1.6752,1.7502,1.7926,1.8096,1.8413,1.8584,1.8632,1.8578,1.9085,1.9811,2.022,2.0757,2.1164,2.0803,2.0923,2.1197,2.0523,1.9937,1.9658,1.9502,1.9274,1.898,1.9032,1.8927,1.8685,1.8417,1.8331,1.8496,1.8578,1.8782,1.9086,1.9696,1.9938,2.0155,2.0724,2.1302,2.1812,2.2116,2.251,2.2989,2.3249,2.3728,2.466,2.4332,2.4337,2.4601,2.4633,2.4664,2.4972,2.5256,2.5639,2.6217,2.6471,2.7116,2.7919,2.8269,2.8864,2.9624,3.0242,3.0573,3.0934,3.2188,3.3064,3.3048,3.3913,3.4386,3.4499,3.4508,3.4543,3.4647,3.4647,3.489,3.5163,3.56,3.6552,3.7623,3.8301,3.9022,3.9856,4.0509,4.0608,4.0931,4.1267,4.1972,4.2573,4.3674,4.4541,4.5467,4.7078,4.7605,4.8001,4.8663,4.9194,4.9526,4.9791,5.0222,5.0388,5.0554,5.0786,5.0886,5.0852,5.1148,0.7954,0.8595,0.8758,0.9621,1.0822,1.1129,1.1866,1.2933,1.3484,1.3917,1.4207,1.4684,1.5311,1.609,1.6151,1.6255,1.68,1.6955,1.7024,1.729,1.7557,1.8066,1.8331,1.9262,1.9897,2.0351,2.01,2.0487,2.0699,1.9995,1.9368,1.9169,1.8884,1.8407,1.8111,1.7833,1.7512,1.7457,1.7401,1.7434,1.771,1.8027,1.8452,1.8873,1.9396,1.9939,2.0504,2.1113,2.1412,2.1321,2.1973,2.2364,2.2756,2.3272,2.3748,2.4201,2.4004,2.3927,2.4425,2.4099,2.4279,2.4762,2.4988,2.5371,2.5906,2.6188,2.664,2.7407,2.7417,2.8136,2.9143,3.0023,3.0416,3.066,3.173,3.234,3.2491,3.3512,3.4332,3.4002,3.3934,3.3659,3.3589,3.3605,3.3873,3.4482,3.5065,3.6057,3.6939,3.7536,3.815,3.8779,3.932,3.9768,4.0254,4.0842,4.1832,4.2726,4.3977,4.4777,4.4914,4.5987,4.6592,4.7257,4.8184,4.8646,4.8809,4.9267,4.9856,5.0386,5.0692,5.108,5.1401,5.1349,5.1514,0.6137,0.6655,0.7109,0.7777,0.8551,0.9127,0.9661,1.0294,1.1297,1.1911,1.2302,1.3157,1.3996,1.4762,1.5034,1.5547,1.5881,1.6131,1.6503,1.6431,1.7226,1.718,1.7281,1.8231,1.932,1.9907,1.9851,2.0072,2.0294,1.9664,1.8928,1.905,1.8382,1.7823,1.7851,1.76,1.7401,1.72,1.7145,1.7191,1.7455,1.7943,1.8434,1.8819,1.9484,2.0023,2.037,2.0568,2.0778,2.1082,2.1578,2.2077,2.259,2.2456,2.265,2.3067,2.2823,2.2725,2.3116,2.3427,2.3628,2.429,2.4645,2.4975,2.5572,2.5714,2.6191,2.6801,2.7048,2.7575,2.8475,2.8958,2.9441,2.9939,3.0729,3.1291,3.1151,3.2164,3.2975,3.2818,3.2533,3.2417,3.266,3.3118,3.3467,3.3845,3.4604,3.5555,3.624,3.6767,3.7291,3.7785,3.8543,3.9033,3.9684,4.0574,4.1832,4.2724,4.3912,4.4692,4.4849,4.5154,4.5809,4.6781,4.7845,4.8071,4.8071,4.9022,4.971,5.0204,5.0603,5.083,5.1025,5.1262,5.1499,0.4041,0.474,0.4921,0.5663,0.6664,0.7161,0.7798,0.8563,0.9441,0.9935,1.0312,1.13,1.216,1.2714,1.341,1.3865,1.4153,1.4921,1.5581,1.5875,1.6617,1.694,1.7286,1.7863,1.8837,1.95,1.9732,1.9968,2.003,1.9616,1.9192,1.8982,1.8278,1.7841,1.7531,1.737,1.7077,1.6857,1.6869,1.6926,1.7057,1.7471,1.8051,1.8574,1.9188,1.9639,1.9683,1.9944,2.0096,2.0355,2.0635,2.1174,2.1795,2.1795,2.1962,2.2418,2.2503,2.268,2.3257,2.3341,2.352,2.4092,2.4408,2.4792,2.5178,2.5419,2.5747,2.6177,2.6508,2.696,2.7703,2.8228,2.8531,2.886,2.9693,3.0105,3.0116,3.1242,3.2173,3.1882,3.1589,3.1803,3.2192,3.261,3.3176,3.363,3.4082,3.4995,3.5432,3.5974,3.6239,3.685,3.765,3.8371,3.9102,4.0224,4.191,4.2817,4.3731,4.4159,4.4358,4.4706,4.511,4.6013,4.675,4.7078,4.7268,4.8349,4.903,4.9241,4.9541,5.0025,5.0434,5.0767,5.094,0.1755,0.2765,0.2592,0.3471,0.4763,0.5127,0.5719,0.6767,0.763,0.7987,0.8401,0.941,1.0172,1.061,1.156,1.1931,1.2477,1.3284,1.4328,1.5113,1.5661,1.6336,1.7057,1.7585,1.7991,1.8482,1.9318,1.9792,1.9792,1.9705,1.9084,1.8764,1.8448,1.7864,1.7185,1.698,1.6837,1.6553,1.6577,1.6617,1.6675,1.6951,1.75,1.8072,1.8573,1.8844,1.8977,1.9177,1.942,1.9441,1.9505,1.979,2.0358,2.0886,2.1509,2.2093,2.2185,2.2594,2.3167,2.3327,2.3372,2.4026,2.4281,2.4471,2.4803,2.5016,2.5276,2.5487,2.577,2.6272,2.6816,2.7478,2.7852,2.825,2.8875,2.9226,2.9428,3.0511,3.0944,3.1097,3.0973,3.1156,3.1599,3.2093,3.2804,3.3436,3.386,3.4312,3.4819,3.5221,3.5629,3.6035,3.6955,3.8211,3.8979,3.9843,4.1485,4.2287,4.322,4.3488,4.3596,4.3879,4.4189,4.4802,4.5401,4.5863,4.6421,4.7167,4.77,4.7949,4.8561,4.9205,4.9645,5.0151,5.0356,-0.0655,0.0595,0.0825,0.1523,0.2402,0.256,0.3021,0.3707,0.5064,0.5747,0.6383,0.7673,0.8591,0.9246,1.009,1.0989,1.1857,1.261,1.324,1.3947,1.4664,1.546,1.6089,1.6578,1.6999,1.7532,1.8355,1.8998,1.9114,1.8713,1.8602,1.8385,1.7829,1.7276,1.7229,1.688,1.673,1.6552,1.6586,1.6675,1.6825,1.7038,1.7356,1.786,1.8104,1.8183,1.8231,1.8414,1.8576,1.8684,1.8891,1.917,1.9555,2.0096,2.0642,2.1193,2.1388,2.186,2.243,2.2523,2.2894,2.3469,2.3849,2.3944,2.4082,2.4223,2.4533,2.4895,2.5206,2.5661,2.6382,2.7065,2.7624,2.8135,2.8631,2.9065,2.9036,2.9422,3.0011,3.0318,3.042,3.065,3.1293,3.1966,3.2694,3.3372,3.3792,3.4114,3.4515,3.4888,3.5186,3.5758,3.6275,3.7648,3.8922,3.9845,4.0942,4.1306,4.2063,4.2474,4.2637,4.2879,4.323,4.3874,4.4539,4.5139,4.5694,4.6142,4.6757,4.7261,4.7862,4.8369,4.9045,4.9613,5.0056,-0.2976,-0.2186,-0.1677,-0.0618,0.0624,0.0781,0.1406,0.2421,0.3546,0.4137,0.4806,0.5888,0.6939,0.7658,0.8734,0.9818,1.0706,1.1427,1.204,1.281,1.3691,1.4628,1.5202,1.5668,1.607,1.6507,1.7129,1.7833,1.8489,1.8261,1.8175,1.8282,1.7849,1.7514,1.7324,1.7084,1.6805,1.6645,1.6613,1.6674,1.6769,1.6853,1.7067,1.7267,1.7581,1.7764,1.7922,1.7992,1.8201,1.8379,1.8395,1.8562,1.8982,1.9402,2.001,2.0596,2.0896,2.125,2.1681,2.1797,2.1998,2.2542,2.2927,2.3075,2.3312,2.3519,2.4138,2.4791,2.5405,2.5944,2.65,2.7007,2.7589,2.7951,2.8415,2.8791,2.8816,2.8973,2.9332,2.982,3.0177,3.0586,3.1305,3.2,3.2618,3.3162,3.3656,3.4037,3.4282,3.4685,3.492,3.5562,3.6273,3.7483,3.8624,3.9353,4.011,4.0541,4.0971,4.1453,4.1901,4.2233,4.2532,4.3019,4.3748,4.4478,4.464,4.4941,4.5777,4.6637,4.7098,4.765,4.8491,4.9109,4.9646,-0.5156,-0.4563,-0.4028,-0.2733,-0.1249,-0.0938,-0.0234,0.1094,0.2111,0.2577,0.2895,0.4206,0.5212,0.5918,0.7141,0.8353,0.91,0.9794,1.0718,1.1474,1.2284,1.3433,1.4377,1.4681,1.48,1.5386,1.5336,1.607,1.7404,1.7503,1.7677,1.7677,1.7765,1.7562,1.7006,1.6768,1.6684,1.66,1.6543,1.6529,1.6505,1.6638,1.6682,1.6718,1.7222,1.7548,1.7744,1.8018,1.8124,1.8247,1.8233,1.8218,1.8548,1.89,1.9393,2.0059,2.0678,2.1201,2.1375,2.1354,2.1375,2.1963,2.2171,2.2366,2.2862,2.3568,2.4238,2.5115,2.5624,2.606,2.6382,2.7114,2.7448,2.7584,2.7997,2.8498,2.8498,2.8626,2.9003,2.9487,3.0022,3.0686,3.143,3.1902,3.2574,3.3148,3.3615,3.3956,3.4288,3.4547,3.4969,3.5626,3.6436,3.7448,3.8202,3.8577,3.9195,3.9563,4.0013,4.0482,4.1142,4.168,4.2016,4.2407,4.299,4.3642,4.3737,4.4235,4.5263,4.6142,4.6436,4.7196,4.834,4.8967,4.9389,-0.6896,-0.5893,-0.5378,-0.4603,-0.3822,-0.3207,-0.2504,-0.1562,-0.0313,0.0548,0.1175,0.2738,0.3519,0.4142,0.5616,0.6689,0.7363,0.8326,0.9145,0.9788,1.0507,1.1515,1.2585,1.2714,1.3285,1.4006,1.3826,1.4725,1.591,1.6123,1.6245,1.6455,1.6455,1.607,1.626,1.6225,1.5948,1.5913,1.5948,1.6123,1.6332,1.6802,1.689,1.6967,1.7275,1.7568,1.7714,1.8063,1.8373,1.8309,1.861,1.8597,1.8471,1.8336,1.8464,1.8873,1.959,2.0566,2.0779,2.0702,2.082,2.1272,2.1825,2.2426,2.2991,2.3615,2.432,2.4926,2.5195,2.5509,2.605,2.6706,2.6896,2.7208,2.7683,2.7777,2.7753,2.8203,2.8602,2.921,2.9687,3.066,3.162,3.2022,3.2475,3.3022,3.3547,3.3887,3.4305,3.4699,3.5274,3.6006,3.6432,3.7391,3.7665,3.8069,3.8357,3.8713,3.9419,3.9823,4.041,4.1047,4.1566,4.2053,4.2536,4.316,4.3539,4.415,4.5081,4.5811,4.6282,4.7369,4.8637,4.9001,4.9159,-0.9581,-0.768,-0.7368,-0.6379,-0.5079,-0.4768,-0.4219,-0.3281,-0.1955,-0.1173,-0.0548,0.1018,0.227,0.3207,0.4608,0.5306,0.5925,0.7003,0.7617,0.8196,0.9029,0.9988,1.0784,1.1233,1.1824,1.2544,1.2895,1.3196,1.4141,1.4784,1.5204,1.5683,1.5754,1.5895,1.5683,1.5754,1.5962,1.6065,1.6062,1.5977,1.6052,1.6368,1.6598,1.6455,1.7135,1.7588,1.7915,1.7897,1.849,1.8526,1.8731,1.836,1.8375,1.8366,1.8309,1.8186,1.8496,1.8895,1.9195,1.9292,1.9757,2.0324,2.0873,2.1627,2.2654,2.3371,2.399,2.4655,2.5066,2.5458,2.5895,2.6436,2.6676,2.694,2.7313,2.729,2.7371,2.7638,2.8092,2.8763,2.9461,3.0494,3.1516,3.197,3.2411,3.2953,3.3366,3.373,3.435,3.5022,3.5698,3.6596,3.6919,3.7217,3.7335,3.7479,3.7612,3.8201,3.9388,3.9719,3.9951,4.0431,4.1073,4.1674,4.2133,4.2721,4.325,4.4035,4.4937,4.5638,4.6342,4.7259,4.8209,4.9134,4.9401,-1.1994,-0.9697,-0.9399,-0.8269,-0.6663,-0.6499,-0.5852,-0.48,-0.3545,-0.2829,-0.2113,-0.0626,0.1018,0.227,0.3207,0.3986,0.4696,0.5652,0.619,0.6854,0.7675,0.8657,0.9388,0.9918,1.049,1.1491,1.1699,1.197,1.2428,1.3126,1.4076,1.4903,1.5046,1.5259,1.533,1.5363,1.5568,1.5813,1.5948,1.5897,1.588,1.6208,1.6309,1.6534,1.6981,1.771,1.8006,1.7982,1.8402,1.8339,1.8375,1.7997,1.7764,1.7656,1.7446,1.7251,1.7204,1.7204,1.7594,1.7951,1.8377,1.9291,2.0264,2.169,2.233,2.2808,2.3378,2.4279,2.4639,2.5126,2.5654,2.6008,2.6218,2.6407,2.6761,2.682,2.6985,2.7392,2.7856,2.848,2.923,3.0241,3.1105,3.1855,3.2413,3.2896,3.3208,3.3596,3.4388,3.5259,3.5973,3.6769,3.682,3.7041,3.6973,3.7041,3.7176,3.7645,3.8919,3.9465,3.9482,4.0147,4.0869,4.1408,4.1828,4.2433,4.3202,4.3976,4.4657,4.536,4.6065,4.677,4.7658,4.8664,4.9498,-1.3561,-1.2052,-1.1075,-1.0251,-0.9333,-0.8855,-0.7684,-0.6437,-0.5633,-0.4545,-0.3235,-0.1804,-0.0864,0.0078,0.1489,0.2585,0.3459,0.4733,0.519,0.5604,0.6189,0.7215,0.7958,0.8664,0.9262,0.9952,1.0447,1.0658,1.092,1.1841,1.2688,1.3302,1.4072,1.4201,1.448,1.4792,1.5049,1.5389,1.5584,1.588,1.6013,1.6343,1.649,1.6699,1.7081,1.7415,1.7466,1.7795,1.7943,1.781,1.7858,1.7457,1.6884,1.6846,1.6652,1.6211,1.5989,1.6072,1.6386,1.7466,1.8607,1.9702,2.0875,2.1851,2.2164,2.2785,2.328,2.3694,2.3887,2.4166,2.468,2.5105,2.538,2.5738,2.599,2.6324,2.6601,2.725,2.7697,2.8287,2.8939,2.9815,3.0608,3.1311,3.1913,3.2376,3.3482,3.3895,3.4785,3.5629,3.6049,3.659,3.659,3.676,3.6716,3.6861,3.7057,3.7552,3.8427,3.8748,3.8808,3.9659,4.0738,4.1106,4.1539,4.2289,4.2958,4.3526,4.4172,4.4982,4.5809,4.6555,4.7491,4.849,4.9175,-1.4801,-1.4186,-1.35,-1.211,-1.0363,-0.9725,-0.9108,-0.8397,-0.7407,-0.5909,-0.4313,-0.306,-0.2242,-0.1435,-0.0394,0.1106,0.2242,0.2822,0.3734,0.4622,0.5304,0.6045,0.6871,0.764,0.8305,0.8869,0.9407,0.9819,0.9991,1.0784,1.1157,1.1903,1.2959,1.3726,1.4096,1.4395,1.4757,1.4875,1.5295,1.5697,1.5658,1.6145,1.6413,1.6468,1.6809,1.7181,1.7389,1.7355,1.7422,1.7519,1.7398,1.6863,1.6329,1.6379,1.5978,1.553,1.5423,1.5506,1.5801,1.6921,1.8212,1.9506,2.057,2.128,2.1606,2.198,2.2422,2.2775,2.295,2.3299,2.3841,2.4272,2.4529,2.4871,2.5295,2.5633,2.6293,2.6986,2.7495,2.7943,2.8522,2.9262,3.0007,3.0758,3.1294,3.1986,3.3187,3.4289,3.5034,3.5675,3.6018,3.6263,3.6263,3.6427,3.6477,3.6704,3.7051,3.7526,3.8074,3.8498,3.8968,3.9715,4.0633,4.0958,4.1301,4.1754,4.235,4.3012,4.3725,4.4527,4.5514,4.6543,4.7502,4.8382,4.861,-1.5728,-1.5545,-1.5144,-1.3732,-1.1735,-1.0996,-1.046,-0.9833,-0.8991,-0.7537,-0.567,-0.4608,-0.3683,-0.3011,-0.1938,-0.0726,0.0491,0.124,0.2413,0.3465,0.4385,0.4947,0.5762,0.6511,0.721,0.7665,0.8448,0.8888,0.8983,0.9911,1.0295,1.0796,1.1661,1.2589,1.3411,1.4182,1.4606,1.482,1.5034,1.5605,1.5539,1.5899,1.6329,1.6365,1.6648,1.6905,1.7041,1.7024,1.6987,1.6984,1.6905,1.6524,1.6269,1.6077,1.5761,1.5501,1.534,1.5506,1.5831,1.6838,1.8018,1.9401,2.0095,2.066,2.0908,2.1266,2.1713,2.2176,2.2264,2.253,2.3232,2.358,2.4013,2.4529,2.4956,2.5423,2.6044,2.6757,2.7195,2.7655,2.8342,2.9058,2.9534,3.0399,3.1451,3.2094,3.3063,3.4088,3.4813,3.5325,3.5593,3.5787,3.5883,3.6048,3.6238,3.6614,3.7086,3.7556,3.818,3.8914,3.952,4.0134,4.0491,4.0666,4.0967,4.1172,4.1676,4.2305,4.3242,4.4069,4.5233,4.6544,4.7075,4.7836,4.7892,-1.63,-1.6041,-1.5809,-1.4866,-1.3613,-1.3087,-1.2012,-1.0721,-1.0198,-0.9183,-0.7484,-0.628,-0.5438,-0.467,-0.365,-0.241,-0.1343,-0.0341,0.0857,0.214,0.3325,0.3871,0.4485,0.522,0.5897,0.6074,0.6864,0.765,0.7899,0.8725,0.9183,0.9601,1.0407,1.1312,1.2127,1.3318,1.4212,1.4864,1.4784,1.5326,1.5795,1.5984,1.6236,1.6524,1.6652,1.6782,1.6814,1.6764,1.6718,1.6508,1.675,1.6299,1.5599,1.5955,1.5779,1.5242,1.534,1.5423,1.5551,1.7211,1.8235,1.9037,1.9669,2.0279,2.0799,2.0997,2.1195,2.1642,2.1909,2.2264,2.2706,2.3057,2.3667,2.41,2.4529,2.5189,2.5829,2.6585,2.7017,2.7651,2.847,2.9117,2.9457,3.0145,3.1437,3.2438,3.3173,3.3887,3.4583,3.4944,3.5283,3.5404,3.5524,3.584,3.6106,3.6574,3.702,3.7588,3.8263,3.907,3.955,3.9829,4.0211,4.0491,4.0618,4.0821,4.1256,4.1693,4.2865,4.4194,4.5458,4.6542,4.7039,4.7288,4.7288,-1.7041,-1.6717,-1.6277,-1.5876,-1.5296,-1.4126,-1.3146,-1.224,-1.0942,-0.9714,-0.8691,-0.7573,-0.6922,-0.6298,-0.532,-0.4055,-0.2738,-0.1979,-0.0776,0.0703,0.196,0.267,0.3288,0.3912,0.4559,0.5003,0.5714,0.6422,0.6946,0.7744,0.8263,0.8716,0.9485,1.0546,1.1834,1.2987,1.3815,1.4111,1.446,1.5158,1.5759,1.5944,1.6195,1.6648,1.6648,1.6648,1.6648,1.6648,1.649,1.6333,1.6571,1.6312,1.5706,1.5919,1.5839,1.5423,1.5423,1.559,1.5929,1.6869,1.7565,1.8418,1.9183,1.977,1.982,2.0292,2.0744,2.1105,2.1356,2.1731,2.2176,2.2706,2.3144,2.3493,2.3967,2.4799,2.5546,2.6253,2.6969,2.7713,2.851,2.9028,2.939,3.0158,3.1318,3.2182,3.2957,3.3546,3.4166,3.4557,3.492,3.5017,3.5163,3.5551,3.599,3.6555,3.7221,3.7892,3.8491,3.9116,3.9546,3.9853,4.0031,4.0414,4.044,4.0389,4.1235,4.2087,4.3205,4.446,4.5461,4.6283,4.6846,4.6955,4.6769,-1.8148,-1.7909,-1.7073,-1.678,-1.655,-1.513,-1.4223,-1.3464,-1.1843,-1.0636,-0.999,-0.9017,-0.8287,-0.7819,-0.682,-0.5758,-0.4276,-0.3063,-0.2288,-0.0806,0.0448,0.1074,0.1789,0.2774,0.34,0.3842,0.4554,0.5354,0.6068,0.6776,0.7425,0.8092,0.8866,0.9898,1.1128,1.2171,1.3179,1.3546,1.4158,1.4703,1.5249,1.568,1.6057,1.6237,1.6319,1.6484,1.65,1.6453,1.6472,1.6443,1.6458,1.6472,1.6133,1.6016,1.6004,1.5839,1.5756,1.5839,1.5997,1.6492,1.711,1.7663,1.8611,1.9125,1.933,1.9837,2.0292,2.0546,2.0817,2.1266,2.1731,2.2264,2.2706,2.3057,2.3799,2.4702,2.5378,2.6172,2.6816,2.7629,2.8256,2.8822,2.9527,3.0431,3.1326,3.2002,3.2684,3.3244,3.3761,3.4087,3.4481,3.4626,3.4942,3.5304,3.5912,3.677,3.7412,3.8058,3.863,3.9228,3.979,4.0074,4.0203,4.0408,4.0714,4.1072,4.1715,4.2626,4.3386,4.4203,4.5023,4.5874,4.6594,4.6672,4.6564,-1.9429,-1.9395,-1.8141,-1.7529,-1.7221,-1.6041,-1.513,-1.4307,-1.2942,-1.2089,-1.1552,-1.0356,-0.9643,-0.9061,-0.8082,-0.7014,-0.6122,-0.4444,-0.3298,-0.2236,-0.0985,-0.0448,0.0448,0.1612,0.2149,0.2596,0.3307,0.4287,0.5359,0.634,0.6953,0.7446,0.8271,0.9154,1.0133,1.0964,1.2135,1.2862,1.3368,1.3951,1.4667,1.518,1.5462,1.5643,1.5906,1.5989,1.6087,1.6057,1.6221,1.637,1.655,1.6648,1.6484,1.6335,1.6433,1.6433,1.6216,1.605,1.5869,1.6308,1.6737,1.7208,1.7814,1.8685,1.9157,1.9471,1.9745,2.011,2.0382,2.0817,2.1374,2.182,2.2353,2.3036,2.3801,2.4585,2.537,2.6002,2.662,2.7233,2.7776,2.8438,2.9404,3.0404,3.1292,3.2088,3.2627,3.3093,3.3515,3.3415,3.3837,3.4123,3.4487,3.5094,3.5872,3.6753,3.7643,3.8289,3.8638,3.916,3.9724,4.0234,4.0414,4.0696,4.1178,4.1588,4.2113,4.2633,4.3233,4.4002,4.4643,4.5421,4.6142,4.6569,4.6569,-2.0143,-1.9678,-1.8469,-1.8054,-1.8175,-1.7367,-1.637,-1.5032,-1.4126,-1.3197,-1.2089,-1.1477,-1.0809,-0.9941,-0.899,-0.8113,-0.7312,-0.6422,-0.5087,-0.3846,-0.2513,-0.1703,-0.0717,0.0269,0.0807,0.1254,0.1968,0.3218,0.4559,0.5719,0.6346,0.6681,0.7607,0.8241,0.8852,0.9443,1.0781,1.1815,1.2322,1.3134,1.3754,1.4253,1.4629,1.5061,1.5394,1.5575,1.5575,1.5658,1.5824,1.5989,1.6154,1.6252,1.5989,1.6369,1.6691,1.6438,1.6338,1.6263,1.5899,1.6012,1.6477,1.6915,1.7414,1.8002,1.853,1.8904,1.918,1.9563,1.9928,2.0275,2.0817,2.1356,2.1909,2.2574,2.3415,2.4315,2.5117,2.5744,2.6357,2.6981,2.7526,2.8199,2.9211,3.0354,3.1315,3.2059,3.2764,3.3109,3.3338,3.3361,3.3453,3.3839,3.4583,3.5239,3.5995,3.6876,3.7661,3.8403,3.8785,3.9184,3.9864,4.035,4.0533,4.0972,4.1429,4.1823,4.2141,4.2688,4.3127,4.3585,4.4203,4.4935,4.558,4.6062,4.6679,-2.0658,-2.0183,-1.9142,-1.874,-1.8834,-1.8273,-1.735,-1.637,-1.5462,-1.4378,-1.3294,-1.2881,-1.2008,-1.0916,-1.0105,-0.9235,-0.8193,-0.7319,-0.6275,-0.535,-0.4156,-0.3083,-0.2085,-0.0996,-0.0271,0.027,0.1075,0.2236,0.34,0.4741,0.5547,0.6529,0.7143,0.7584,0.8193,0.8703,0.9323,1.0356,1.123,1.2003,1.2687,1.3281,1.3873,1.4391,1.4629,1.4894,1.5144,1.5144,1.5394,1.5741,1.5989,1.6237,1.6283,1.6881,1.6815,1.656,1.646,1.6193,1.5747,1.5922,1.6301,1.673,1.707,1.7694,1.8175,1.8624,1.8872,1.9196,1.9379,1.9729,2.0275,2.0835,2.1482,2.2036,2.3043,2.3997,2.4702,2.5436,2.6114,2.6778,2.7398,2.8052,2.9059,3.0223,3.1269,3.19,3.2551,3.3155,3.3407,3.3568,3.3683,3.3968,3.4806,3.5653,3.6331,3.7096,3.7833,3.8479,3.8707,3.9285,4.0001,4.0477,4.0795,4.1348,4.1756,4.2077,4.2238,4.2549,4.2911,4.3321,4.3755,4.4325,4.514,4.6005,4.6676,-2.1076,-2.0937,-2.0147,-1.9542,-1.9268,-1.8692,-1.8273,-1.787,-1.6714,-1.5628,-1.4769,-1.4435,-1.3374,-1.1967,-1.1092,-1.0288,-0.9323,-0.8312,-0.7368,-0.6709,-0.5684,-0.4584,-0.3399,-0.2216,-0.1195,-0.0181,0.0899,0.1713,0.1433,0.2772,0.4736,0.6358,0.6435,0.6782,0.7489,0.7929,0.8456,0.9069,0.9845,1.0712,1.1746,1.2431,1.2857,1.3124,1.3633,1.4139,1.4489,1.4824,1.5159,1.5575,1.5989,1.6402,1.6917,1.7327,1.7047,1.6838,1.6612,1.6184,1.5792,1.5839,1.6141,1.6514,1.6794,1.7378,1.7881,1.8302,1.8611,1.892,1.9088,1.9471,1.9928,2.0365,2.0817,2.1698,2.2609,2.3407,2.3992,2.4755,2.572,2.642,2.7448,2.8052,2.9084,3.0348,3.1705,3.1991,3.2385,3.3178,3.3499,3.3729,3.3981,3.4165,3.5028,3.5946,3.672,3.7489,3.8108,3.8635,3.896,3.9551,4.0522,4.0901,4.1184,4.1531,4.1879,4.2114,4.2326,4.2538,4.265,4.2899,4.3249,4.37,4.4489,4.5689,4.68,-2.1413,-2.1332,-2.0602,-2.0062,-1.9585,-1.925,-1.8594,-1.7789,-1.7465,-1.6617,-1.5619,-1.5177,-1.4442,-1.3076,-1.1706,-1.0899,-1.0406,-0.9209,-0.832,-0.7513,-0.6762,-0.5893,-0.4627,-0.3266,-0.2058,-0.0747,0.0462,0.1366,0.0902,0.1882,0.2861,0.3667,0.4559,0.5891,0.6517,0.6959,0.7577,0.8105,0.8544,0.9506,1.0549,1.1241,1.1757,1.2272,1.2869,1.3209,1.3561,1.3984,1.4153,1.4489,1.5075,1.5841,1.682,1.7172,1.7131,1.6798,1.6752,1.6279,1.5836,1.5673,1.5997,1.6293,1.6597,1.7162,1.771,1.7995,1.835,1.8627,1.892,1.9288,1.9579,1.9911,2.04,2.1354,2.2172,2.2741,2.3298,2.4316,2.5275,2.6229,2.7262,2.825,2.9171,3.0449,3.1811,3.2567,3.2895,3.3361,3.3637,3.3889,3.4349,3.4601,3.5294,3.6191,3.7096,3.7783,3.838,3.9283,3.9777,4.0395,4.1015,4.1112,4.1274,4.1598,4.1923,4.1972,4.2086,4.2199,4.2337,4.2562,4.3112,4.3639,4.4535,4.5716,4.69,-2.133,-2.1181,-2.0772,-2.0154,-1.954,-1.9455,-1.8816,-1.7934,-1.7789,-1.7286,-1.648,-1.6259,-1.5648,-1.4287,-1.2803,-1.1715,-1.1473,-1.0211,-0.9173,-0.8333,-0.7764,-0.6885,-0.566,-0.4516,-0.3278,-0.1874,-0.0094,0.0743,0.0274,0.0635,0.1451,0.2065,0.3578,0.4648,0.5359,0.6251,0.6871,0.7496,0.7672,0.8376,0.9506,1.0115,1.0809,1.1499,1.2015,1.2443,1.2881,1.3307,1.3561,1.405,1.4782,1.5333,1.6155,1.6743,1.6832,1.661,1.6433,1.6359,1.5757,1.5604,1.5771,1.6133,1.644,1.7079,1.7658,1.8022,1.8334,1.8643,1.8827,1.9104,1.9304,1.9637,2.0394,2.1243,2.1853,2.2357,2.3363,2.456,2.5118,2.5664,2.6758,2.7939,2.9019,3.0362,3.1659,3.2377,3.2895,3.3269,3.3591,3.3971,3.4429,3.4992,3.5617,3.6517,3.7496,3.8138,3.8556,3.9507,4.0451,4.0667,4.1022,4.1215,4.1474,4.1541,4.1631,4.1745,4.1745,4.1859,4.211,4.2337,4.2871,4.3597,4.4634,4.5537,4.6708,-2.1079,-2.088,-2.0803,-2.0237,-1.945,-1.9519,-1.9054,-1.8193,-1.8031,-1.7708,-1.7286,-1.7296,-1.6688,-1.5573,-1.4537,-1.3367,-1.2282,-1.1274,-1.0197,-0.9418,-0.8976,-0.8085,-0.7217,-0.625,-0.4553,-0.2751,-0.095,-0.0188,0.0093,0.0369,0.0639,0.1261,0.2061,0.304,0.4736,0.5808,0.6251,0.6959,0.7319,0.776,0.8464,0.9078,1.0028,1.0722,1.1327,1.1929,1.2443,1.2784,1.3052,1.3566,1.4309,1.4865,1.5389,1.5998,1.6131,1.6088,1.6135,1.5893,1.556,1.5555,1.5845,1.6118,1.6443,1.6919,1.757,1.8002,1.8317,1.855,1.8735,1.892,1.9196,1.9586,2.0365,2.109,2.1655,2.2259,2.3499,2.4492,2.4824,2.5156,2.6447,2.7631,2.8972,3.0296,3.1164,3.1959,3.246,3.291,3.3376,3.3891,3.4439,3.5024,3.5695,3.6665,3.7762,3.8312,3.8817,3.989,4.0739,4.0884,4.1004,4.1263,4.1335,4.1196,4.1287,4.1402,4.1516,4.1516,4.1745,4.1972,4.2774,4.3431,4.4153,4.5146,4.6407,-2.0992,-2.1017,-2.0983,-2.0637,-2.0167,-1.9947,-1.9371,-1.8612,-1.8129,-1.7853,-1.7646,-1.7446,-1.7056,-1.6433,-1.6055,-1.502,-1.3603,-1.2383,-1.1299,-1.0481,-0.978,-0.9173,-0.8269,-0.7114,-0.5368,-0.361,-0.2034,-0.0961,-0.0379,-0.0187,0.0185,0.0917,0.135,0.2419,0.3846,0.4825,0.5808,0.6517,0.7054,0.7496,0.8032,0.8727,0.9515,1.0125,1.0549,1.1241,1.1843,1.2357,1.2528,1.2783,1.3312,1.4128,1.4718,1.5187,1.5372,1.5504,1.5645,1.5655,1.5418,1.5546,1.5782,1.6095,1.6465,1.68,1.7397,1.7962,1.8241,1.855,1.8751,1.9028,1.9353,1.9613,2.0168,2.096,2.1665,2.2532,2.3556,2.3998,2.435,2.5206,2.6447,2.774,2.9063,3.0213,3.0997,3.1556,3.1724,3.2228,3.2982,3.364,3.4366,3.5009,3.568,3.706,3.8231,3.8436,3.8989,4.0224,4.1004,4.1052,4.11,4.1148,4.1196,4.1196,4.1196,4.1287,4.1287,4.1402,4.1516,4.1752,4.2696,4.3399,4.4023,4.4824,4.5993]},{"header":{"parameterUnit":"m.s-1","parameterCategory":1,"la1":31.0,"la2":29.5877,"lo1":-88.7671,"lo2":-86.6584,"dy":0.0162,"dx":0.0185,"nx":115,"ny":88,"refTime":"2024-04-05T06:00:00:Z","depth":0,"parameterNumber":3,"parameterNumberName":"V-component_of_WINDS"},"data":[0.0,0.0,0.0,0.0,0.0,0.0,0.0,0.0,0.0,0.0,0.0,0.0,0.0,0.0,0.0,0.0,0.0,0.0,0.0,0.0,0.0,0.0,0.0,0.0,0.0,0.0,0.0,0.0,0.0,0.0,0.0,0.0,0.0,0.0,0.0,0.0,0.0,0.0,0.0,0.0,0.0,0.0,0.0,0.0,0.0,0.0,0.0,0.0,0.0,0.0,0.0,0.0,0.0,0.0,0.0,0.0,0.0,0.0,0.0,0.0,0.0,0.0,0.0,0.0,0.0,0.0,0.0,0.0,0.0,0.0,0.0,0.0,0.0,0.0,0.0,0.0,0.0,0.0,0.0,0.0,0.0,0.0,0.0,0.0,0.0,0.0,0.0,0.0,0.0,0.0,0.0,0.0,0.0,0.0,0.0,0.0,0.0,0.0,0.0,0.0,0.0,0.0,0.0,0.0,0.0,0.0,0.0,0.0,0.0,0.0,0.0,0.0,0.0,0.0,0.0,0.0,0.0,0.0,0.0,0.0,0.0,0.0,0.0,0.0,0.0,0.0,0.0,0.0,0.0,0.0,0.0,0.0,0.0,0.0,0.0,0.0,0.0,0.0,0.0,0.0,0.0,0.0,0.0,0.0,0.0,0.0,0.0,0.0,0.0,0.0,0.0,0.0,0.0,0.0,0.0,0.0,0.0,0.0,0.0,0.0,0.0,0.0,0.0,0.0,0.0,0.0,0.0,0.0,0.0,0.0,0.0,0.0,0.0,0.0,0.0,0.0,0.0,0.0,0.0,0.0,0.0,0.0,0.0,0.0,0.0,0.0,0.0,0.0,0.0,0.0,0.0,0.0,0.0,0.0,0.0,0.0,0.0,0.0,0.0,0.0,0.0,0.0,0.0,0.0,0.0,0.0,0.0,0.0,0.0,0.0,0.0,0.0,0.0,0.0,0.0,0.0,0.0,0.0,0.0,0.0,0.0,0.0,0.0,0.0,0.0,0.0,0.0,0.0,0.0,0.0,0.0,0.0,0.0,0.0,0.0,0.0,0.0,0.0,0.0,0.0,0.0,0.0,0.0,0.0,0.0,0.0,0.0,0.0,0.0,0.0,0.0,0.0,0.0,0.0,0.0,0.0,0.0,0.0,0.0,0.0,0.0,0.0,0.0,0.0,0.0,0.0,0.0,0.0,0.0,0.0,0.0,0.0,0.0,0.0,0.0,0.0,0.0,0.0,0.0,0.0,0.0,0.0,0.0,0.0,0.0,0.0,0.0,0.0,0.0,0.0,0.0,0.0,0.0,0.0,0.0,0.0,0.0,0.0,0.0,0.0,0.0,0.0,0.0,0.0,0.0,0.0,0.0,0.0,0.0,0.0,0.0,0.0,0.0,0.0,0.0,0.0,0.0,0.0,0.0,0.0,0.0,0.0,0.0,0.0,0.0,0.0,0.0,0.0,0.0,0.0,0.0,0.0,0.0,0.0,0.0,0.0,0.0,0.0,0.0,0.0,0.0,0.0,0.0,0.0,0.0,0.0,0.0,0.0,0.0,0.0,0.0,0.0,0.0,0.0,0.0,0.0,0.0,0.0,0.0,0.0,0.0,0.0,0.0,0.0,0.0,0.0,0.0,0.0,0.0,0.0,0.0,0.0,0.0,0.0,0.0,0.0,0.0,0.0,0.0,0.0,0.0,0.0,0.0,0.0,0.0,0.0,0.0,0.0,0.0,0.0,0.0,0.0,0.0,0.0,0.0,0.0,0.0,0.0,0.0,0.0,0.0,0.0,0.0,0.0,0.0,0.0,0.0,0.0,0.0,0.0,0.0,0.0,0.0,0.0,0.0,0.0,0.0,0.0,0.0,0.0,0.0,0.0,0.0,0.0,0.0,0.0,0.0,0.0,0.0,0.0,0.0,0.0,0.0,0.0,0.0,0.0,0.0,0.0,0.0,0.0,0.0,0.0,0.0,0.0,0.0,0.0,0.0,0.0,0.0,0.0,0.0,0.0,0.0,0.0,0.0,0.0,0.0,0.0,0.0,0.0,0.0,0.0,0.0,0.0,0.0,0.0,0.0,0.0,0.0,0.0,0.0,0.0,0.0,0.0,0.0,0.0,0.0,0.0,0.0,0.0,0.0,0.0,0.0,0.0,0.0,0.0,0.0,0.0,0.0,0.0,0.0,0.0,0.0,0.0,0.0,0.0,0.0,0.0,0.0,0.0,0.0,0.0,0.0,0.0,0.0,0.0,0.0,0.0,0.0,0.0,0.0,0.0,0.0,0.0,0.0,0.0,0.0,0.0,0.0,0.0,0.0,0.0,0.0,0.0,0.0,0.0,0.0,0.0,0.0,0.0,0.0,0.0,0.0,0.0,0.0,0.0,0.0,0.0,0.0,0.0,0.0,0.0,0.0,0.0,0.0,0.0,0.0,0.0,0.0,0.0,0.0,0.0,0.0,0.0,0.0,0.0,0.0,0.0,0.0,0.0,0.0,0.0,0.0,0.0,0.0,0.0,0.0,0.0,0.0,0.0,0.0,0.0,0.0,0.0,0.0,0.0,0.0,0.0,0.0,0.0,0.0,0.0,0.0,0.0,0.0,0.0,0.0,0.0,0.0,0.0,0.0,0.0,0.0,0.0,0.0,0.0,0.0,0.0,0.0,0.0,0.0,0.0,0.0,0.0,0.0,0.0,0.0,0.0,0.0,0.0,0.0,0.0,0.0,0.0,0.0,0.0,0.0,0.0,0.0,0.0,0.0,0.0,0.0,0.0,0.0,0.0,0.0,0.0,0.0,0.0,0.0,0.0,0.0,0.0,0.0,0.0,0.0,0.0,0.0,0.0,0.0,0.0,0.0,0.0,0.0,0.0,0.0,0.0,0.0,0.0,0.0,0.0,0.0,0.0,0.0,0.0,0.0,0.0,0.0,0.0,0.0,0.0,0.0,0.0,0.0,0.0,0.0,0.0,0.0,0.0,0.0,0.0,0.0,0.0,0.0,0.0,0.0,0.0,0.0,0.0,0.0,0.0,0.0,0.0,0.0,0.0,0.0,0.0,0.0,0.0,0.0,0.0,0.0,0.0,0.0,0.0,0.0,0.0,0.0,0.0,0.0,0.0,0.0,0.0,0.0,0.0,0.0,0.0,0.0,0.0,0.0,0.0,0.0,0.0,0.0,0.0,0.0,0.0,0.0,0.0,0.0,0.0,0.0,0.0,0.0,0.0,0.0,0.0,0.0,0.0,0.0,0.0,0.0,0.0,0.0,0.0,0.0,0.0,0.0,0.0,0.0,0.0,0.0,0.0,0.0,0.0,0.0,0.0,0.0,0.0,0.0,0.0,0.0,0.0,0.0,0.0,0.0,0.0,0.0,0.0,0.0,0.0,0.0,0.0,0.0,0.0,0.0,0.0,0.0,0.0,0.0,0.0,0.0,0.0,0.0,0.0,0.0,0.0,0.0,0.0,0.0,0.0,0.0,0.0,0.0,0.0,0.0,0.0,0.0,0.0,0.0,0.0,0.0,0.0,0.0,0.0,0.0,0.0,0.0,0.0,0.0,0.0,0.0,0.0,0.0,0.0,0.0,0.0,0.0,0.0,0.0,0.0,0.0,0.0,0.0,0.0,0.0,0.0,0.0,0.0,0.0,0.0,0.0,0.0,0.0,0.0,0.0,0.0,0.0,0.0,0.0,0.0,0.0,0.0,0.0,0.0,0.0,0.0,0.0,0.0,0.0,0.0,0.0,0.0,0.0,0.0,0.0,0.0,0.0,0.0,0.0,0.0,0.0,0.0,0.0,0.0,0.0,0.0,0.0,0.0,0.0,0.0,0.0,0.0,0.0,0.0,0.0,0.0,0.0,0.0,0.0,0.0,0.0,0.0,0.0,0.0,0.0,0.0,0.0,0.0,0.0,0.0,0.0,0.0,0.0,0.0,0.0,0.0,0.0,0.0,0.0,0.0,0.0,0.0,0.0,0.0,0.0,0.0,0.0,0.0,0.0,0.0,0.0,0.0,0.0,0.0,0.0,0.0,0.0,0.0,0.0,0.0,0.0,0.0,0.0,0.0,0.0,0.0,0.0,0.0,0.0,0.0,0.0,0.0,0.0,0.0,0.0,0.0,0.0,0.0,0.0,0.0,0.0,0.0,0.0,0.0,0.0,0.0,0.0,0.0,0.0,0.0,0.0,0.0,0.0,0.0,0.0,0.0,0.0,0.0,0.0,0.0,0.0,0.0,0.0,0.0,0.0,0.0,0.0,0.0,0.0,0.0,0.0,0.0,0.0,0.0,0.1542,0.0,0.0,0.0,0.0,0.0,0.0,0.0,0.0,0.0,0.0,0.0,0.0,0.0,0.0,0.0,0.0,0.0,0.0,0.0,0.0,0.0,0.0,0.0,0.0,0.0,0.0,0.0,0.0,0.0,0.0,0.0,0.0,0.0,0.0,0.0,0.0,0.0,0.0,0.0,0.0,0.0,0.0,0.0,0.0,0.0,0.0,0.0,0.0,0.0,0.0,0.0,0.0,0.0,0.0,0.0,0.0,0.0,0.0,0.0,0.0,0.0,0.0,0.0,0.0,0.0,0.0,0.0,0.0,0.0,0.0,0.0,0.0,0.0,0.0,0.0,0.0,0.0,0.0,0.0,0.0,0.0,0.0,0.0,0.0,0.0,0.0,0.0,0.0,0.0,0.0,0.0,0.0,0.0,0.0,0.0,0.0,0.0,0.0,0.0,0.0,0.0,0.0,0.0,0.0,0.0,0.0,0.0,0.0,0.0,0.0,-0.0606,0.0135,0.0875,0.1412,0.1713,0.0,0.0,0.0,0.0,0.0,0.0,0.0,0.0,0.0,0.0,0.0,0.0,0.0,0.0,0.0,0.0,0.0,0.0,0.0,0.0,0.0,0.0,0.0,0.0,0.0,0.0,0.0,0.0,0.0,0.0,0.0,0.0,0.0,0.0,0.0,0.0,0.0,0.0,0.0,0.0,0.0,0.0,0.0,0.0,0.0,0.0,0.0,0.0,0.0,0.0,0.0,0.0,0.0,0.0,0.0,0.0,0.0,0.0,0.0,0.0,0.0,0.0,0.0,0.0,0.0,0.0,0.0,0.0,0.0,0.0,0.0,0.0,0.0,0.0,0.0,0.0,0.0,0.0,0.0,0.0,0.0,0.0,0.0,0.0,0.0,0.0,0.0,0.0,0.0,0.0,0.0,0.0,0.0,0.0,0.0,0.0,0.0,0.0,0.0,0.0,0.0,0.0,0.0,0.0,0.0,0.0,0.0,0.0,0.0,0.0,0.0,0.0,0.0942,0.149,0.1884,0.0,0.0,0.0,0.0,0.0,0.0,0.0,0.0,0.0,0.0,0.0,0.0,0.0,0.0,0.0,0.0,0.0,0.0,0.0,0.0,0.0,0.0,0.0,0.0,0.0,0.0,0.0,0.0,0.0,0.0,0.0,0.0,0.0,0.0,0.0,0.0,0.0,0.0,0.0,0.0,0.0,0.0,0.0,0.0,0.0,0.0,0.0,0.0,0.0,0.0,0.0,0.0,0.0,0.0,0.0,0.0,0.0,0.0,0.0,0.0,0.0,0.0,0.0,0.0,0.0,0.0,0.0,0.0,0.0,0.0,0.0,0.0,0.0,0.0,0.0,0.0,0.0,0.0,0.0,0.0,0.0,0.0,0.0,0.0,0.0,0.0,0.0,0.0,0.0,0.0,0.0,0.0,0.0,0.0,0.0,0.0,0.0,0.0,0.0,0.0,0.0,0.0,0.0,0.0,0.0,0.0,0.0,0.0,0.0,0.0,-0.0303,0.0101,0.0774,0.0,0.1871,0.0,0.0,0.0,0.0,0.0,0.0,0.0,0.0,0.0,0.0,0.0,0.0,0.0,0.0,0.0,0.0,0.0,0.0,0.0,0.0,0.0,0.0,0.0,0.0,0.0,0.0,0.0,0.0,0.0,0.0,0.0,0.0,0.0,0.0,0.0,0.0,0.0,0.0,0.0,0.0,0.0,0.0,0.0,0.0,0.0,0.0,0.0,0.0,0.0,0.0,0.0,0.0,0.0,0.0,0.0,0.0,0.0,0.0,0.0,0.0,0.0,0.0,0.0,0.0,0.0,0.0,0.0,0.0,0.0,0.0,0.0,0.0,0.0,0.0,0.0,0.0,0.0,0.0,0.0,0.0,0.0,0.0,0.0,0.0,0.0,0.0,0.0,0.0,0.0,0.0,0.0,0.0,0.0,0.0,0.0,0.0,0.0,0.0,0.0,0.0,0.0,0.0,0.0,0.0,0.0,0.0,0.0,0.0,0.0,0.0,-0.0282,0.0141,0.0879,0.1587,0.0,0.0,0.0,0.0,0.0,0.0,0.0,0.0,0.0,0.0,0.0,0.0,0.0,0.0,0.0,0.0,0.0,0.0,0.0,0.0,0.0,0.0,0.0,0.0,0.0,0.0,0.0,0.0,0.0,0.0,0.0,0.0,0.0,0.0,0.0,0.0,0.0,0.0,0.0,0.0,0.0,0.0,0.0,0.0,0.0,0.0,0.0,0.0,0.0,0.0,0.0,0.0,0.0,0.0,0.0,0.0,0.0,0.0,0.0,0.0,0.0,0.0,0.0,0.0,0.0,0.0,0.0,0.0,0.0,0.0,0.0,0.0,0.0,0.0,0.0,0.0,0.0,0.0,0.0,0.0,0.0,0.0,0.0,0.0,0.0,0.0,0.0,0.0,0.0,0.0,0.0,0.0,0.0,0.0,0.0,0.0,0.0,0.0,0.0,0.0,0.0,0.0,0.0,0.0,0.0,0.0,0.0,0.0,0.0,0.0,-0.0835,-0.0149,0.052,0.1262,0.1875,0.2376,0.0,0.0,0.0,0.0,0.0,0.0,0.0,0.0,0.0,0.0,0.0,0.0,0.0,0.0,0.0,0.0,0.0,0.0,0.0,0.0,0.0,0.0,0.0,0.0,0.0,0.0,0.0,0.0,0.0,0.0,0.0,0.0,0.0,0.0,0.0,0.0,0.0,0.0,0.0,0.0,0.0,0.0,0.0,0.0,0.0,0.0,0.0,0.0,0.0,0.0,0.0,0.0,0.0,0.0,0.0,0.0,0.0,0.0,0.0,0.0,0.0,0.0,0.0,0.0,0.0,0.0,0.0,0.0,0.0,0.0,0.0,0.0,0.0,0.0,0.0,0.0,0.0,0.0,0.0,0.0,0.0,0.0,0.0,0.0,0.0,0.0,0.0,0.0,0.0,0.0,0.0,0.0,0.0,0.0,0.0,0.0,0.0,0.0,0.0,0.0,0.0,0.0,0.0,0.0,0.0,0.0,0.0,0.0,-0.1414,-0.0724,0.0156,0.1329,0.1874,0.2185,0.0,0.0,0.0,0.0,0.0,0.0,0.0,0.0,0.0,0.0,0.0,0.0,0.0,0.0,0.0,0.0,0.0,0.0,0.0,0.0,0.0,0.0,0.0,0.0,0.0,0.0,0.0,0.0,0.0,0.0,0.0,0.0,0.0,0.0,0.0,0.0,0.0,0.0,0.0,0.0,0.0,0.0,0.0,0.0,0.0,0.0,0.0,0.0,0.0,0.0,0.0,0.0,0.0,0.0,0.0,0.0,0.0,0.0,0.0,0.0,0.0,0.0,0.0,0.0,0.0,0.0,0.0,0.0,0.0,0.0,0.0,0.0,0.0,0.0,0.0,0.0,0.0,0.0,0.0,0.0,0.0,0.0,0.0,0.0,0.0,0.0,0.0,0.0,0.0,0.0,0.0,0.0,0.0,0.0,0.0,0.0,0.0,0.0,0.0,0.0,0.0,0.0,0.0,0.0,0.0,0.0,0.0,0.0,0.0,-0.1529,-0.016,0.1125,0.2309,0.2084,0.2007,0.0,0.0,0.0,0.0,0.0,0.0,0.0,0.0,0.0,0.0,0.0,0.0,0.0,0.0,0.0,0.0,0.0,0.0,0.0,0.0,0.0,0.0,0.0,0.0,0.0,0.0,0.0,0.0,0.0,0.0,0.0,0.0,0.0,0.0,0.0,0.0,0.0,0.0,0.0,0.0,0.0,0.0,0.0,0.0,0.0,0.0,0.0,0.0,0.0,0.0,0.0,0.0,0.0,0.0,0.0,0.0,0.0,0.0,0.0,0.0,0.0,0.0,0.0,0.0,0.0,0.0,0.0,0.0,0.0,0.0,0.0,0.0,0.0,0.0,0.0,0.0,0.0,0.0,0.0,0.0,0.0,0.0,0.0,0.0,0.0,0.0,0.0,0.0,0.0,0.0,0.0,0.0,0.0,0.0,0.0,0.0,0.0,0.0,0.0,0.0,0.0,0.0,0.0,0.0,0.0,0.0,0.0,0.0,0.0,-0.1272,0.0,0.1482,0.2692,0.2399,0.2226,0.0,0.0,0.0,0.0,0.0,0.0,0.0,0.0,0.0,0.0,0.0,0.0,0.0,0.0,0.0,0.0,0.0,0.0,0.0,0.0,0.0,0.0,0.0,0.0,0.0,0.0,0.0,0.0,0.0,0.0,0.0,0.0,0.0,0.0,0.0,0.0,0.0,0.0,0.0,0.0,0.0,0.0,0.0,0.0,0.0,0.0,0.0,0.0,0.0,0.0,0.0,0.0,0.0,0.0,0.0,0.0,0.0,0.0,0.0,0.0,0.0,0.0,0.0,0.0,0.0,0.0,0.0,0.0,0.0,0.0,0.0,0.0,0.0,0.0,0.0,0.0,0.0,0.0,0.0,0.0,0.0,0.0,0.0,0.0,0.0,0.0,0.0,0.0,0.0,0.0,0.0,0.0,0.0,0.0,0.0,0.0,0.0,0.0,0.0,0.0,0.0,0.0,0.0,0.0,0.0,0.0,0.0,0.0,-0.1413,-0.0448,0.0179,0.1169,0.2429,0.2692,0.2811,0.0,0.0,0.0,0.0,0.0,0.0,0.0,0.0,0.0,0.0,0.0,0.0,0.0,0.0,0.0,0.0,0.0,0.0,0.0,0.0,0.0,0.0,0.0,0.0,0.0,0.0,0.0,0.0,0.0,0.0,0.0,0.0,0.0,0.0,0.0,0.0,0.0,0.0,0.0,0.0,0.0,0.0,0.0,0.0,0.0,0.0,0.0,0.0,0.0,0.0,0.0,0.0,0.0,0.0,0.0,0.0,0.0,0.0,0.0,0.0,0.0,0.0,0.0,0.0,0.0,0.0,0.0,0.0,0.0,0.0,0.0,0.0,0.0,0.0,0.0,0.0,0.0,0.0,0.0,0.0,0.0,0.0,0.0,0.0,0.0,0.0,0.0,0.0,0.0,0.0,0.0,0.0,0.0,0.0,0.0,0.0,0.0,0.0,0.0,0.0,0.0,0.0,0.0,0.0,0.0,0.0,0.0,0.0,0.0,-0.0889,0.0384,0.1249,0.1732,0.2335,0.2623,0.0,0.0,0.0,0.0,0.0,0.0,0.0,0.0,0.0,0.0,0.0,0.0,0.0,0.0,0.0,0.0,0.0,0.0,0.0,0.0,0.0,0.0,0.0,0.0,0.0,0.0,0.0,0.0,0.0,0.0,0.0,0.0,0.0,0.0,0.0,0.0,0.0,0.0,0.0,0.0,0.0,0.0,0.0,0.0,0.0,0.0,0.0,0.0,0.0,0.0,0.0,0.0,0.0,0.0,0.0,0.0,0.0,0.0,0.0,0.0,0.0,0.0,0.0,0.0,0.0,0.0,0.0,0.0,0.0,0.0,0.0,0.0,0.0,0.0,0.0,0.0,0.0,0.0,0.0,0.0,0.0,0.0,0.0,0.0,0.0,0.0,0.0,0.0,0.0,0.0,0.0,0.0,0.0,0.0,0.0,0.0,0.0,0.0,0.0,0.0,0.0,0.0,0.0,0.0,0.0,0.0,0.0,0.0,0.0,-0.0965,0.0051,0.1004,0.1892,0.2323,0.2558,0.2558,0.0,0.0,0.0,0.0,0.0,0.0,0.0,0.0,0.0,0.0,0.0,0.0,0.0,0.0,0.0,0.0,0.0,0.0,0.0,0.0,0.0,0.0,0.0,0.0,0.0,0.0,0.0,0.0,0.0,0.0,0.0,0.0,0.0,0.0,0.0,0.0,0.0,0.0,0.0,0.0,0.0,0.0,0.0,0.0,0.0,0.0,0.0,0.0,0.0,0.0,0.0,0.0,0.0,0.0,0.0,0.0,0.0,0.0,0.0,0.0,0.0,0.0,0.0,0.0,0.0,0.0,0.0,0.0,0.0,0.0,0.0,0.0,0.0,0.0,0.0,0.0,0.0,0.0,0.0,0.0,0.0,0.0,0.0,0.0,0.0,0.0,0.0,0.0,0.0,0.0,0.0,0.0,0.0,0.0,0.0,0.0,0.0,0.0,0.0,0.0,0.0,0.0,0.0,0.0,0.0,0.0,0.0,0.0,-0.079,-0.0741,0.0363,0.2511,0.2559,0.2594,0.0,0.0,0.0,0.0,0.0,0.0,0.0,0.0,0.0,0.0,0.0,0.0,0.0,0.0,0.0,0.0,0.0,0.0,0.0,0.0,0.0,0.0,0.0,0.0,0.0,0.0,0.0,0.0,0.0,0.0,0.0,0.0,0.0,0.0,0.0,0.0,0.0,0.0,0.0,0.0,0.0,0.0,0.0,0.0,0.0,0.0,0.0,0.0,0.0,0.0,0.0,0.0,0.0,0.0,0.0,0.0,0.0,0.0,0.0,0.0,0.0,0.0,0.0,0.0,0.0,0.0,0.0,0.0,0.0,0.0,0.0,0.0,0.0,0.0,0.0,0.0,0.0,0.0,0.0,0.0,0.0,0.0,0.0,0.0,0.0,0.0,0.0,0.0,0.0,0.0,0.0,0.0,0.0,0.0,0.0,0.0,0.0,0.0,0.0,0.0,0.0,0.0,0.0,0.0,0.0,0.0,0.0,0.0,0.0,-0.1023,-0.1008,-0.0231,0.1331,0.2338,0.2754,0.0,0.0,0.0,0.0,0.0,0.0,0.0,0.0,0.0,0.0,0.0,0.0,0.0,0.0,0.0,0.0,0.0,0.0,0.0,0.0,0.0,0.0,0.0,0.0,0.0,0.0,0.0,0.0,0.0,0.0,0.0,0.0,0.0,0.0,0.0,0.0,0.0,0.0,0.0,0.0,0.0,0.0,0.0,0.0,0.0,0.0,0.0,0.0,0.0,0.0,0.0,0.0,0.0,0.0,0.0,0.0,0.0,0.0,0.0,0.0,0.0,0.0,0.0,0.0,0.0,0.0,0.0,0.0,0.0,0.0,0.0,0.0,0.0,0.0,0.0,0.0,0.0,0.0,0.0,0.0,0.0,0.0,0.0,0.0,0.0,0.0,0.0,0.0,0.0,0.0,0.0,0.0,0.0,0.0,0.0,0.0,0.0,0.0,0.0,0.0,0.0,0.0,0.0,0.0,0.0,0.0,0.0,0.0,-0.1206,-0.1216,-0.1155,-0.0631,0.0305,0.1617,0.242,0.0,0.0,0.0,0.0,0.0,0.0,0.0,0.0,0.0,0.0,0.0,0.0,0.0,0.0,0.0,0.0,0.0,0.0,0.0,0.0,0.0,0.0,0.0,0.0,0.0,0.0,0.0,0.0,0.0,0.0,0.0,0.0,0.0,0.0,0.0,0.0,0.0,0.0,0.0,0.0,0.0,0.0,0.0,0.0,0.0,0.0,0.0,0.0,0.0,0.0,0.0,0.0,0.0,0.0,0.0,0.0,0.0,0.0,0.0,0.0,0.0,0.0,0.0,0.0,0.0,0.0,0.0,0.0,0.0,0.0,0.0,0.0,0.0,0.0,0.0,0.0,0.0,0.0,0.0,0.0,0.0,0.0,0.0,0.0,0.0,0.0,0.0,0.0,0.0,0.0,0.0,0.0,0.0,0.0,0.0,0.0,0.0,0.0,0.0,0.0,0.0,0.0,0.0,0.0,0.0,0.0,0.0,0.0,-0.1271,-0.1276,-0.1146,-0.0877,-0.0538,0.0665,0.1812,0.0,0.0,0.0,0.0,0.0,0.0,0.0,0.0,0.0,0.0,0.0,0.0,0.0,0.0,0.0,0.0,0.0,0.0,0.0,0.0,0.0,0.0,0.0,0.0,0.0,0.0,0.0,0.0,0.0,0.0,0.0,0.0,0.0,0.0,0.0,0.0,0.0,0.0,0.0,0.0,0.0,0.0,0.0,0.0,0.0,0.0,0.0,0.0,0.0,0.0,0.0,0.0,0.0,0.0,0.0,0.0,0.0,0.0,0.0,0.0,0.0,0.0,0.0,0.0,0.0,0.0,0.0,0.0,0.0,0.0,0.0,0.0,0.0,0.0,0.0,0.0,0.0,0.0,0.0,0.0,0.0,0.0,0.0,0.0,0.0,0.0,0.0,0.0,0.0,0.0,0.0,0.0,0.0,0.0,0.0,0.0,0.0,0.0,0.0,0.0,0.0,0.0,0.0,0.0,0.0,0.0,0.0,0.0,-0.0826,-0.0336,-0.0472,-0.0742,-0.0944,0.0755,0.1877,0.0,0.0,0.0,0.0,0.0,0.0,0.0,0.0,0.0,0.0,0.0,0.0,0.0,0.0,0.0,0.0,0.0,0.0,0.0,0.0,0.0,0.0,0.0,0.0,0.0,0.0,0.0,0.0,0.0,0.0,0.0,0.0,0.0,0.0,0.0,0.0,0.0,0.0,0.0,0.0,0.0,0.0,0.0,0.0,0.0,0.0,0.0,0.0,-0.3278,0.0,0.0,0.0,0.0,0.0,0.0,0.0,0.0,0.0,0.0,0.0,0.0,0.0,0.0,0.0,0.0,0.0,0.0,0.0,0.0,0.0,0.0,0.0,0.0,0.0,0.0,0.0,0.0,0.0,0.0,0.0,0.0,0.0,0.0,0.0,0.0,0.0,0.0,0.0,0.0,0.0,0.0,0.0,0.0,0.0,0.0,0.0,0.0,0.0,0.0,0.0,0.0,0.0,0.0,0.0,0.0,0.0,0.0,0.0,-0.0832,-0.0549,0.0069,0.0206,0.0,0.1644,0.253,0.0,0.0,0.0,0.0,0.0,0.0,0.0,0.0,0.0,0.0,0.0,0.0,0.0,0.0,0.0,0.0,0.0,0.0,0.0,0.0,0.0,0.0,0.0,0.0,0.0,0.0,0.0,0.0,0.0,0.0,0.0,0.0,0.0,0.0,0.0,0.0,0.0,0.0,0.0,0.0,0.0,0.0,0.0,0.0,0.0,0.0,0.0,0.0,0.0,0.0,0.0,0.0,0.0,0.0,0.0,0.0,0.0,0.0,0.0,0.0,0.0,0.0,0.0,0.0,0.0,0.0,0.0,0.0,0.0,0.0,0.0,0.0,0.0,0.0,0.0,0.0,0.0,0.0,0.0,0.0,0.0,0.0,0.0,0.0,0.0,0.0,0.0,0.0,0.0,0.0,0.0,0.0,0.0,0.0,0.0,0.0,0.0,0.0,0.0,0.0,0.0,0.0,0.0,0.0,0.0,0.0,0.0,-0.0992,-0.104,-0.1056,0.0423,0.1198,0.1127,0.2744,0.3283,0.2638,0.0,0.0,0.0,0.0,0.0,0.0,0.0,0.0,0.0,0.0,0.0,0.0,0.0,0.0,0.0,0.0,0.0,0.0,0.0,0.0,0.0,0.0,0.0,0.0,0.0,0.0,0.0,0.0,0.0,0.0,0.0,0.0,0.0,0.0,0.0,0.0,0.0,0.0,-0.4231,-0.3927,0.0,0.0,0.0,0.0,0.0,0.0,0.0,0.0,-0.3742,0.0,0.0,0.0,0.0,0.0,0.0,0.0,0.0,0.0,0.0,0.0,0.0,0.0,0.0,0.0,0.0,0.0,0.0,0.0,0.0,0.0,0.0,0.0,0.0,0.0,0.0,0.0,0.0,0.0,0.0,0.0,0.0,0.0,0.0,0.0,0.0,0.0,0.0,0.0,0.0,0.0,0.0,0.0,0.0,0.0,0.0,0.0,0.0,0.0,0.0,0.0,0.0,0.0,0.0,0.0,0.0,-0.1234,-0.1078,-0.1003,-0.1084,0.0145,0.0869,0.1157,0.2959,0.3471,0.238,0.0,0.0,0.0,0.0,0.0,0.0,0.0,0.0,0.0,0.0,0.0,0.0,0.0,0.0,0.0,0.0,0.0,0.0,0.0,0.0,0.0,0.0,0.0,0.0,0.0,0.0,0.0,0.0,0.0,0.0,0.0,0.0,0.0,0.0,0.0,0.0,0.0,0.0,0.0,-0.4484,-0.4179,0.0,0.0,0.0,0.0,0.0,0.0,0.0,0.0,-0.3736,0.0,0.0,0.0,0.0,0.0,0.0,0.0,0.0,0.0,0.0,0.0,0.0,0.0,0.0,0.0,0.0,0.0,0.0,0.0,0.0,0.0,0.0,0.0,0.0,0.0,0.0,0.0,0.0,0.0,0.0,0.0,0.0,0.0,0.0,0.0,0.0,0.0,0.0,0.0,0.0,0.0,0.0,0.0,0.0,0.0,0.0,0.0,0.0,0.0,0.0,0.0,0.0,0.0,0.0,0.0,-0.1415,-0.1209,-0.0935,-0.0499,0.022,0.096,0.1825,0.3092,0.344,0.0,0.0,0.0,0.0,0.0,0.0,0.0,0.0,0.0,0.0,0.0,0.0,0.0,0.0,0.0,0.0,0.0,0.0,0.0,0.0,0.0,0.0,0.0,0.0,0.0,0.0,0.0,0.0,0.0,0.0,0.0,0.0,0.0,0.0,0.0,0.0,0.0,0.0,0.0,0.0,-0.5114,-0.4935,-0.4547,0.0,0.0,0.0,0.0,0.0,0.0,-0.4346,-0.4081,0.0,0.0,0.0,0.0,0.0,0.0,0.0,0.0,0.0,0.0,0.0,0.0,0.0,0.0,0.0,0.0,0.0,0.0,0.0,0.0,0.0,0.0,0.0,0.0,0.0,0.0,0.0,0.0,0.0,0.0,0.0,0.0,0.0,0.0,0.0,0.0,0.0,0.0,0.0,0.0,0.0,0.0,0.0,0.0,0.0,0.0,0.0,0.0,0.0,0.0,0.0,0.0,0.0,0.0,0.0,-0.154,-0.1417,-0.0875,-0.0,0.0446,0.1204,0.2411,0.3129,0.336,0.0,0.0,0.0,0.0,0.0,0.0,0.0,0.0,0.0,0.0,0.0,0.0,0.0,0.0,0.0,0.0,0.0,0.0,0.0,0.0,0.0,0.0,0.0,0.0,0.0,0.0,0.0,0.0,0.0,0.0,0.0,0.0,0.0,0.0,0.0,0.0,0.0,0.0,0.0,0.0,0.0,-0.5563,-0.5053,-0.4869,0.0,0.0,0.0,0.0,-0.4696,-0.4716,0.0,0.0,0.0,0.0,0.0,0.0,0.0,0.0,0.0,0.0,0.0,0.0,0.0,0.0,0.0,0.0,0.0,0.0,0.0,0.0,0.0,0.0,0.0,0.0,0.0,0.0,0.0,0.0,0.0,0.0,0.0,0.0,0.0,0.0,0.0,0.0,0.0,0.0,0.0,0.0,0.0,0.0,0.0,0.0,0.0,0.0,0.0,0.0,0.0,0.0,0.0,0.0,0.0,0.0,0.0,0.0,-0.1608,-0.1538,-0.0987,-0.0,0.0763,0.1532,0.2341,0.3277,0.3466,0.0,0.0,0.0,0.0,0.0,0.0,0.0,0.0,0.0,0.0,0.0,0.0,0.0,0.0,0.0,0.0,0.0,0.0,0.0,0.0,0.0,0.0,0.0,0.0,0.0,0.0,0.0,0.0,0.0,0.0,0.0,0.0,0.0,0.0,0.0,0.0,0.0,0.0,0.0,0.0,0.0,-0.5843,-0.522,-0.527,-0.5125,0.0,0.0,-0.4783,-0.4621,-0.5011,0.0,0.0,0.0,0.0,0.0,0.0,0.0,0.0,0.0,0.0,0.0,0.0,0.0,0.0,0.0,0.0,0.0,0.0,0.0,0.0,0.0,0.0,0.0,0.0,0.0,0.0,0.0,0.0,0.0,0.0,0.0,0.0,0.0,0.0,0.0,0.0,0.0,0.0,0.0,0.0,0.0,0.0,0.0,0.0,0.0,0.0,0.0,0.0,0.0,0.0,0.0,0.0,0.0,0.0,0.0,-0.1874,-0.1911,-0.1721,-0.1329,-0.0656,0.0383,0.1391,0.239,0.2865,0.3352,0.0,0.0,0.0,0.0,0.0,0.0,0.0,0.0,0.0,0.0,0.0,0.0,0.0,0.0,0.0,0.0,0.0,0.0,0.0,0.0,0.0,0.0,0.0,0.0,0.0,0.0,0.0,0.0,0.0,0.0,0.0,0.0,0.0,0.0,0.0,0.0,0.0,0.0,0.0,0.0,0.0,0.0,-0.564,-0.5738,0.0,0.0,0.0,-0.5241,-0.4994,0.0,0.0,0.0,0.0,0.0,0.0,0.0,0.0,0.0,0.0,0.0,0.0,0.0,0.0,0.0,0.0,0.0,0.0,0.0,0.0,0.0,0.0,0.0,0.0,0.0,0.0,0.0,0.0,0.0,0.0,0.0,0.0,0.0,0.0,0.0,0.0,0.0,0.0,0.0,0.0,0.0,0.0,0.0,0.0,0.0,0.0,0.0,0.0,0.0,0.0,0.0,0.0,0.0,0.0,0.0,0.0,0.0,-0.2342,-0.2041,-0.167,-0.1238,-0.0153,0.1006,0.2103,0.2268,0.0,0.0,0.0,0.0,0.0,0.0,0.0,0.0,0.0,0.0,0.0,0.0,0.0,0.0,0.0,0.0,0.0,0.0,0.0,0.0,0.0,0.0,0.0,0.0,0.0,0.0,0.0,-0.3074,0.0,0.0,0.0,0.0,0.0,0.0,0.0,0.0,0.0,0.0,0.0,0.0,0.0,0.0,-0.6265,-0.608,-0.6205,-0.6173,0.0,0.0,-0.5625,-0.5363,-0.5762,-0.5873,0.0,0.0,0.0,0.0,0.0,0.0,0.0,0.0,0.0,0.0,0.0,0.0,0.0,0.0,0.0,0.0,0.0,0.0,0.0,0.0,0.0,0.0,0.0,0.0,0.0,0.0,0.0,0.0,0.0,0.0,0.0,0.0,0.0,0.0,0.0,0.0,0.0,0.0,0.0,0.0,0.0,0.0,0.0,0.0,0.0,0.0,0.0,0.0,0.0,0.0,0.0,0.0,0.0,0.0,0.0,-0.2657,-0.2418,-0.2055,-0.1531,-0.0536,0.0384,0.1098,0.1565,0.2026,0.0,0.0,0.0,0.0,0.0,0.0,0.0,0.0,0.0,0.0,0.0,0.0,0.0,0.0,0.0,0.0,0.0,0.0,0.0,0.0,0.0,0.0,0.0,0.0,0.0,0.0,0.0,0.0,0.0,0.0,0.0,0.0,0.0,0.0,0.0,0.0,0.0,0.0,0.0,0.0,0.0,-0.6506,-0.6384,-0.6607,-0.6675,0.0,0.0,-0.5759,-0.5752,-0.6099,-0.6179,-0.5603,0.0,0.0,0.0,0.0,0.0,0.0,0.0,0.0,0.0,0.0,0.0,0.0,0.0,0.0,0.0,0.0,0.0,0.0,0.0,0.0,0.0,0.0,0.0,0.0,0.0,0.0,0.0,0.0,0.0,0.0,0.0,0.0,0.0,0.0,0.0,0.0,0.0,0.0,0.0,0.0,0.0,0.0,0.0,0.0,0.0,0.0,0.0,0.0,0.0,0.0,0.0,0.0,0.0,-0.2809,-0.2833,-0.2378,-0.2167,-0.2041,-0.1226,-0.023,0.1021,0.1369,0.192,0.0,0.0,0.0,0.0,0.0,0.0,0.0,0.0,0.0,0.0,0.0,0.0,0.0,0.0,0.0,0.0,0.0,0.0,0.0,0.0,0.0,0.0,0.0,0.0,0.0,0.0,0.0,0.0,-0.3734,-0.3874,-0.4089,0.0,0.0,0.0,0.0,0.0,0.0,0.0,0.0,0.0,0.0,-0.6382,-0.657,-0.6746,0.0,0.0,-0.6559,-0.6345,-0.584,-0.6233,-0.6446,-0.5987,-0.622,0.0,0.0,0.0,0.0,0.0,0.0,0.0,0.0,0.0,0.0,0.0,0.0,0.0,0.0,0.0,0.0,0.0,0.0,0.0,0.0,0.0,0.0,0.0,0.0,0.0,0.0,0.0,0.0,0.0,0.0,0.0,0.0,0.0,0.0,0.0,0.0,0.0,0.0,0.0,0.0,0.0,0.0,0.0,0.0,0.0,0.0,0.0,0.0,0.0,0.0,0.0,0.0,-0.315,-0.3079,-0.2615,-0.2489,-0.2551,-0.1902,-0.0838,0.0584,0.1085,0.1796,0.0,0.0,0.0,0.0,0.0,0.0,0.0,0.0,0.0,0.0,0.0,0.0,0.0,0.0,0.0,0.0,0.0,0.0,0.0,0.0,0.0,0.0,0.0,0.0,0.0,0.0,0.0,0.0,-0.3942,-0.4174,-0.4398,0.0,0.0,0.0,0.0,0.0,0.0,0.0,0.0,0.0,0.0,-0.6431,-0.676,-0.7082,-0.7183,-0.699,-0.7087,-0.69,-0.6338,-0.6633,-0.6677,-0.6138,0.0,0.0,0.0,0.0,0.0,0.0,0.0,0.0,0.0,0.0,0.0,0.0,0.0,0.0,0.0,0.0,0.0,0.0,0.0,0.0,0.0,0.0,0.0,0.0,0.0,0.0,0.0,-0.0505,0.0,0.0,-0.0808,0.0,0.0,0.0,0.0,0.0,0.0,0.0,0.0,0.0,0.0,0.0,0.0,0.0,0.0,0.0,0.0,0.0,0.0,0.0,0.0,0.0,0.0,-0.3633,-0.339,-0.3201,-0.3105,-0.2907,-0.232,-0.1498,-0.0365,0.064,0.1367,0.1803,0.0,0.0,0.0,0.0,0.0,0.0,0.0,0.0,0.0,0.0,0.0,0.0,0.0,0.0,0.0,0.0,0.0,0.0,0.0,0.0,0.0,0.0,0.0,0.0,0.0,0.0,-0.3899,-0.4199,-0.4493,0.0,0.0,0.0,0.0,0.0,0.0,0.0,0.0,0.0,0.0,-0.6777,-0.6857,-0.7114,-0.7521,-0.774,-0.7732,-0.757,-0.7424,-0.7312,-0.7162,-0.6749,0.0,0.0,0.0,0.0,0.0,0.0,0.0,0.0,0.0,0.0,0.0,0.0,0.0,0.0,0.0,0.0,0.0,0.0,0.0,0.0,0.0,0.0,0.0,0.0,0.0,0.0,0.0,-0.0737,-0.1438,0.0,0.0,0.0,0.0,0.0,0.0,0.0,0.0,0.0,0.0,0.0,-0.4166,-0.4614,0.0,0.0,0.0,0.0,0.0,0.0,0.0,0.0,0.0,0.0,0.0,0.0,-0.3876,-0.3697,-0.3461,-0.3287,-0.3122,-0.2592,-0.1644,-0.0582,0.0144,0.0828,0.1446,0.0,0.0,0.0,0.0,0.0,0.0,0.0,0.0,0.0,0.0,0.0,0.0,0.0,0.0,0.0,0.0,0.0,0.0,0.0,0.0,0.0,0.0,0.0,0.0,0.0,-0.3954,0.0,0.0,0.0,0.0,0.0,0.0,0.0,0.0,0.0,0.0,0.0,-0.6792,-0.6719,-0.6814,-0.7032,-0.7366,-0.7707,-0.7861,0.0,0.0,0.0,0.0,0.0,0.0,0.0,0.0,0.0,0.0,0.0,0.0,0.0,0.0,-0.8164,-0.759,-0.761,-0.7735,-0.7868,0.0,0.0,0.0,0.0,0.0,0.0,0.0,0.0,0.0,0.0,0.0,0.0,0.0,0.0,-0.1313,0.0,-0.2371,0.0,0.0,0.0,0.0,0.0,0.0,0.0,0.0,-0.4874,-0.5139,-0.5162,-0.5558,-0.5673,0.0,-0.5622,-0.5549,0.0,0.0,0.0,0.0,0.0,0.0,0.0,0.0,-0.4297,-0.412,-0.3871,-0.3678,-0.357,-0.2969,-0.2192,-0.122,-0.0071,0.0752,0.132,0.1766,0.1694,0.0,0.0,0.0,0.0,0.0,0.0,0.0,0.0,0.0,0.0,0.0,0.0,0.0,0.0,0.0,0.0,0.0,0.0,0.0,0.0,0.0,0.0,0.0,-0.4226,0.0,0.0,0.0,0.0,0.0,0.0,0.0,0.0,0.0,-0.6697,-0.6912,-0.7145,-0.7282,-0.7343,-0.7518,-0.7846,0.0,0.0,0.0,0.0,0.0,0.0,0.0,-0.8321,-0.841,-0.8215,-0.8247,-0.8801,-0.9131,-0.9306,-0.9348,0.0,0.0,-0.8251,-0.8264,-0.8326,-0.8401,-0.8665,-0.8921,-0.9195,-0.9516,-0.9819,0.0,0.0,0.0,0.0,0.0,0.0,0.0,0.0,-0.0873,-0.1386,0.0,-0.2611,0.0,0.0,0.0,0.0,0.0,-0.4596,0.0,0.0,-0.5682,-0.5848,-0.6154,-0.6531,-0.6425,-0.5996,-0.6275,-0.6381,-0.6287,-0.5526,0.0,0.0,0.0,0.0,0.0,0.0,-0.4917,-0.462,-0.4432,-0.4287,-0.4186,-0.3639,-0.3011,-0.2237,-0.0137,0.113,0.1354,0.1317,0.1279,0.1179,0.0831,0.0,0.0,0.0,0.0,0.0,0.0,0.0,0.0,0.0,0.0,0.0,0.0,0.0,0.0,0.0,0.0,0.0,0.0,0.0,0.0,-0.4282,0.0,0.0,0.0,0.0,0.0,0.0,0.0,0.0,0.0,0.0,-0.7184,-0.7061,-0.7324,-0.8253,0.0,0.0,0.0,0.0,-0.8687,-0.87,-0.8777,-0.91,-0.9543,-0.9134,-0.8999,-0.9569,0.0,0.0,-0.9388,-0.9627,-0.9935,-0.9952,-0.9893,-0.9812,-0.9447,-0.932,-0.9367,-0.9536,-0.9545,-0.9809,-1.0178,-1.0395,-1.065,0.158,0.0,0.0,0.0,0.0,-0.036,-0.1007,-0.1935,-0.1866,-0.2277,-0.2992,-0.3403,0.0,0.0,0.0,0.0,0.0,0.0,-0.5728,-0.6065,-0.6409,-0.6701,-0.7047,-0.7189,-0.7106,-0.6775,-0.6838,-0.6921,-0.7005,-0.6572,-0.6289,-0.6124,0.0,0.0,0.0,0.0,-0.5355,-0.5382,-0.5153,-0.4913,-0.4619,-0.4219,-0.3352,-0.1888,-0.0556,0.0339,0.0582,0.0768,0.0872,0.1005,0.0579,0.0,0.0,0.0,0.0,0.0,0.0,0.0,0.0,0.0,0.0,0.0,0.0,0.0,0.0,0.0,0.0,0.0,0.0,0.0,-0.4053,-0.4621,-0.5054,0.0,0.0,0.0,0.0,0.0,0.0,0.0,0.0,0.0,-0.7423,-0.7768,-0.8051,0.0,0.0,-0.9157,-0.9349,-0.9658,-0.9866,-0.9791,-1.031,0.0,-1.0398,-1.0823,-1.0842,-1.0223,-1.025,-1.0256,-0.9956,-1.0283,-1.0619,-1.0699,-1.0674,-1.0669,-1.0819,-1.0267,-0.9826,-0.9885,-1.0093,-1.0329,-1.048,-1.0782,-1.1058,0.0551,0.0123,-0.0116,-0.0463,-0.0921,-0.1131,-0.161,-0.2285,-0.2217,-0.2519,-0.3092,-0.3468,-0.3793,-0.4117,-0.523,0.0,0.0,0.0,-0.6532,-0.6777,-0.7086,-0.7398,-0.7598,-0.7659,-0.7515,-0.7354,-0.7354,-0.7367,-0.7467,-0.7323,-0.7085,-0.6923,0.0,0.0,-0.6244,-0.6028,-0.5969,-0.5959,-0.5799,-0.5557,-0.5233,-0.4636,-0.3641,-0.2336,-0.1446,-0.0747,-0.0263,-0.0128,0.0062,0.036,0.0,-0.0508,0.0,0.0,0.0,0.0,0.0,0.0,0.0,0.0,0.0,0.0,0.0,-0.3374,-0.3506,0.0,0.0,0.0,-0.387,-0.4192,-0.4511,-0.4886,0.0,0.0,0.0,0.0,0.0,0.0,0.0,-0.6467,-0.7206,-0.7633,-0.7447,-0.806,-0.8568,-0.888,-0.9485,-1.0035,-1.0169,0.0,-1.0613,-1.0619,-1.1003,-1.1293,-1.1303,-1.1667,-1.1728,-1.1345,-1.123,-1.1157,-1.1058,-1.1157,-1.125,-1.1336,-1.1325,-1.134,-1.1586,-1.1104,-1.066,-1.0594,-1.0764,-1.0962,-1.1047,-1.1334,-1.1569,-0.0625,-0.124,-0.0862,-0.114,-0.1815,-0.1815,-0.1902,-0.2107,-0.2107,-0.233,-0.2732,-0.3081,-0.37,-0.4499,-0.553,0.0,-0.7463,-0.7214,-0.7242,-0.758,-0.7722,-0.7883,-0.7972,-0.7943,-0.7836,-0.7717,-0.7717,-0.7729,-0.7753,-0.7741,-0.7794,-0.7753,-0.7257,-0.6884,-0.6587,-0.6806,-0.6773,-0.6526,-0.6319,-0.6145,-0.5954,-0.4894,-0.4028,-0.3284,-0.2619,-0.1949,-0.1204,-0.1146,-0.0986,-0.0551,-0.0872,-0.1109,-0.1395,0.0,0.0,0.0,0.0,0.0,0.0,0.0,0.0,0.0,0.0,0.0,0.0,0.0,0.0,0.0,-0.4694,0.0,-0.5078,-0.5115,0.0,0.0,0.0,-0.6067,-0.6679,-0.7127,-0.7279,-0.7023,0.0,0.0,-0.732,-0.8156,-0.8928,-0.9577,-1.0231,-1.0794,-1.1024,-1.1086,-1.1111,-1.1129,-1.1336,-1.1609,-1.2088,-1.2053,-1.2084,-1.2635,-1.2526,-1.2299,-1.2299,-1.2093,-1.1906,-1.1935,-1.1831,-1.1831,-1.186,-1.1822,-1.1794,-1.1595,-1.1586,-1.1642,-1.1775,-1.203,-1.2159,-0.0447,-0.0848,-0.0963,-0.1401,-0.2035,-0.2031,-0.2043,-0.2111,-0.233,-0.2509,-0.2732,-0.3258,-0.4373,-0.5811,-0.601,-0.6798,-0.8016,-0.7835,-0.7933,-0.8194,-0.811,-0.8255,-0.8408,-0.8315,-0.8143,-0.7853,-0.8143,-0.8189,-0.8074,-0.8189,-0.8267,-0.8398,-0.8051,-0.7695,-0.7337,-0.743,-0.7407,-0.7341,-0.7223,-0.6999,-0.6613,-0.5352,-0.455,-0.4212,-0.3288,-0.253,-0.2022,-0.1796,-0.1746,-0.1788,-0.1936,-0.212,-0.233,-0.2493,0.0,0.0,0.0,0.0,0.0,0.0,0.0,0.0,0.0,-0.4956,-0.4984,0.0,-0.5218,0.0,-0.4702,-0.4874,-0.5068,-0.5397,0.0,0.0,-0.6294,-0.6292,-0.6851,-0.7229,-0.7406,-0.7183,-0.7631,-0.7957,-0.7824,-0.8589,-0.9314,-0.9745,-1.0348,-1.082,-1.1212,-1.1538,-1.189,-1.2078,-1.2339,-1.272,-1.2851,-1.2819,-1.2986,-1.3766,-1.3162,-1.2648,-1.2864,-1.2648,-1.2491,-1.2631,-1.2437,-1.2258,-1.2219,-1.2172,-1.2115,-1.2191,-1.2219,-1.2181,-1.2096,-1.2356,-1.2693,-0.1425,-0.1828,-0.2188,-0.2549,-0.2865,-0.2329,-0.2163,-0.2305,-0.2753,-0.3027,-0.3118,-0.3684,-0.4621,-0.5906,-0.6255,-0.6942,-0.7983,-0.8288,-0.8523,-0.86,-0.8636,-0.8682,-0.8791,-0.8633,-0.8474,-0.8302,-0.8474,-0.8551,-0.8559,-0.8645,-0.8725,-0.8773,-0.8639,-0.8408,-0.8074,-0.8094,-0.8039,-0.7756,-0.7879,-0.7717,-0.7269,-0.6334,-0.5668,-0.5206,-0.4366,-0.3726,-0.3151,-0.2818,-0.2673,-0.2821,-0.2781,-0.2797,-0.303,-0.3188,-0.3274,0.0,0.0,0.0,0.0,0.0,0.0,0.0,0.0,0.0,0.0,0.0,-0.5849,-0.521,-0.5251,-0.5344,-0.5465,-0.5743,-0.6155,-0.6703,-0.6664,-0.6738,-0.7163,-0.7501,-0.7606,-0.7549,-0.7878,-0.8147,-0.8191,-0.8869,-0.9544,-0.9822,-1.0663,-1.1231,-1.1558,-1.212,-1.2619,-1.2737,-1.3125,-1.3416,-1.3427,-1.362,-1.376,-1.3904,-1.353,-1.3162,-1.3372,-1.335,-1.3316,-1.322,-1.3103,-1.3016,-1.2733,-1.2577,-1.2421,-1.2408,-1.2521,-1.254,-1.2446,-1.2691,-1.2918,-0.2716,-0.3214,-0.3612,-0.3788,-0.367,-0.2706,-0.2416,-0.2684,-0.3339,-0.3631,-0.3731,-0.4153,-0.4763,-0.5599,-0.6314,-0.7062,-0.7811,-0.8537,-0.8865,-0.8819,-0.9034,-0.9054,-0.8896,-0.8857,-0.8857,-0.8857,-0.895,-0.9017,-0.9176,-0.915,-0.9178,-0.9245,-0.9233,-0.911,-0.8884,-0.8896,-0.8669,-0.8151,-0.837,-0.8334,-0.7842,-0.7519,-0.701,-0.6294,-0.5645,-0.5051,-0.4457,-0.4045,-0.3798,-0.3782,-0.3513,-0.3405,-0.3577,-0.391,-0.4076,0.0,-0.4519,0.0,0.0,0.0,0.0,0.0,0.0,0.0,0.0,-0.6577,-0.6398,-0.6233,-0.617,-0.61,-0.6133,-0.6279,-0.6511,-0.6833,-0.7074,-0.7326,-0.7573,-0.7857,-0.804,-0.8197,-0.8379,-0.841,-0.8512,-0.9164,-0.9739,-1.0084,-1.0952,-1.1772,-1.2055,-1.2639,-1.3071,-1.3136,-1.3626,-1.3876,-1.3952,-1.4232,-1.4404,-1.3922,-1.3795,-1.3748,-1.3835,-1.3983,-1.3957,-1.3593,-1.3754,-1.3737,-1.3158,-1.3009,-1.2891,-1.275,-1.2885,-1.2961,-1.286,-1.2833,-1.2965,-0.2981,-0.3214,-0.3303,-0.3214,-0.3037,-0.321,-0.3395,-0.3475,-0.3571,-0.382,-0.4159,-0.4322,-0.5096,-0.6277,-0.6475,-0.7097,-0.8084,-0.8371,-0.8448,-0.8357,-0.8606,-0.8633,-0.8527,-0.8949,-0.9211,-0.9278,-0.9678,-0.9915,-1.0038,-1.012,-1.025,-1.0362,-1.0364,-1.0364,-1.0306,0.0,0.0,0.0,-0.8824,-0.8634,-0.8406,-0.827,-0.7871,-0.7254,-0.6831,0.0,-0.5791,-0.5467,-0.519,-0.5005,-0.4684,0.0,0.0,0.0,0.0,0.0,0.0,0.0,0.0,0.0,0.0,0.0,-0.7208,-0.7148,-0.6606,-0.6713,-0.6929,-0.7196,-0.7268,-0.7333,-0.746,-0.7583,-0.7611,-0.7586,-0.8001,-0.8196,-0.8313,-0.8719,-0.9117,-0.9331,-0.9258,-0.92,-0.9392,-0.9804,-1.0251,-1.0491,-1.1162,-1.194,-1.2537,-1.295,-1.3279,-1.3667,-1.4194,-1.4545,-1.4629,-1.4578,-1.4589,-1.4245,-1.4148,-1.4191,-1.4407,-1.4342,-1.4158,-1.4083,-1.3888,-1.3894,-1.3878,-1.3556,-1.3327,-1.376,-1.3841,-1.3649,-1.3,-1.3155,-1.3296,-0.4022,0.0,-0.4395,-0.443,0.0,-0.4487,-0.4568,-0.4535,-0.4227,-0.4413,-0.4912,-0.5199,-0.5679,-0.6374,-0.7022,-0.761,-0.8112,-0.8709,-0.8896,-0.8791,-0.8949,-0.8949,-0.8896,-0.9312,-0.9649,-0.9877,-1.0185,-1.0513,-1.0735,-1.0584,-1.0584,-1.0862,-1.1012,-1.1107,-1.1123,-1.1448,-1.0963,-0.9731,-0.9704,-0.9588,-0.9253,-0.925,-0.8956,-0.8237,-0.8056,0.0,0.0,0.0,0.0,0.0,0.0,0.0,0.0,-0.5698,0.0,-0.5711,-0.612,-0.6395,-0.6429,-0.6915,-0.7247,-0.7369,-0.7722,-0.7793,-0.7379,-0.7551,-0.7782,-0.7967,-0.8078,-0.8115,-0.8221,-0.8341,-0.8429,-0.8393,-0.8672,-0.8904,-0.8944,-0.9368,-0.9695,-0.9971,-0.9885,-0.9864,-1.0125,-1.076,-1.1109,-1.1333,-1.1962,-1.2726,-1.316,-1.3312,-1.3609,-1.4167,-1.4756,-1.501,-1.4911,-1.4945,-1.4934,-1.4622,-1.4515,-1.4611,-1.4815,-1.5029,-1.5164,-1.4942,-1.4966,-1.5166,-1.4798,-1.45,-1.4256,-1.3851,-1.4199,-1.4783,-1.4912,-1.4772,-1.4356,-0.5191,-0.5298,-0.5653,-0.591,-0.6027,-0.575,-0.5642,-0.5651,0.0,0.0,0.0,-0.6112,-0.6314,-0.6499,-0.7648,-0.815,-0.8176,-0.9109,-0.951,-0.9406,-0.9406,-0.9406,-0.9472,-0.9897,-1.026,-1.0562,-1.0831,-1.1184,-1.1469,-1.1075,-1.1005,-1.1355,-1.1668,-1.1831,-1.1954,-1.2589,-1.2248,-1.102,-1.0963,-1.0763,-1.0251,-1.0365,-1.0079,-0.9279,-0.9266,-0.9151,-0.892,-0.8582,-0.8234,-0.7991,-0.7577,-0.7084,-0.6682,-0.6758,-0.6798,-0.6763,-0.6952,-0.7091,-0.707,-0.738,-0.7652,-0.7796,-0.8505,-0.8754,-0.8458,-0.8634,-0.8701,-0.8745,-0.8885,-0.8917,-0.8857,-0.9059,-0.9226,-0.916,-0.9389,-0.9562,-0.9591,-1.0035,-1.0366,-1.0559,-1.0549,-1.0569,-1.0891,-1.16,-1.2162,-1.2238,-1.2764,-1.355,-1.3933,-1.3993,-1.4194,-1.4691,-1.5221,-1.5363,-1.516,-1.516,-1.5267,-1.4945,-1.4934,-1.5041,-1.5098,-1.5638,-1.5946,-1.5661,-1.6144,-1.6182,-1.5773,-1.5456,-1.5128,-1.423,-1.4707,-1.5738,-1.697,-1.653,-1.5715,-0.5696,-0.5867,-0.5953,-0.6081,-0.6252,-0.6209,-0.6296,-0.6395,-0.5891,-0.5898,-0.6289,-0.643,-0.6795,-0.7333,-0.781,-0.8187,-0.8564,-0.8992,-0.9377,-0.9585,-0.9458,-0.951,-0.9784,-1.0539,-1.0979,-1.108,-1.1987,-1.2431,-1.2356,-1.2175,-1.2332,-1.2757,-1.2855,-1.3095,-1.3544,-1.3921,-1.383,-1.3385,-1.2512,-1.1881,-1.144,-1.1478,-1.105,-1.0265,-1.0265,-1.01,-0.966,-0.9261,-0.8938,-0.8685,-0.8366,-0.81,-0.7857,-0.7768,-0.772,-0.7715,-0.7855,-0.7822,-0.7644,-0.8035,-0.8594,-0.939,-1.0342,-1.0539,-0.9573,-0.9507,-0.9568,-0.9651,-0.9984,-1.0024,-0.9757,-0.9903,-0.9992,-0.9884,-1.0347,-1.0708,-1.0557,-1.1036,-1.151,-1.1693,-1.1424,-1.1424,-1.1883,-1.2237,-1.2492,-1.2483,-1.3149,-1.39,-1.4767,-1.4974,-1.5025,-1.5293,-1.5684,-1.5684,-1.5482,-1.5482,-1.5363,-1.5041,-1.5041,-1.503,-1.4922,-1.539,-1.5818,-1.616,-1.6163,-1.6148,-1.6401,-1.6034,-1.6126,-1.6391,-1.6599,-1.6807,-1.743,-1.7313,-1.6844,-0.6375,-0.6544,-0.6686,-0.6837,-0.7019,-0.6994,-0.73,-0.7732,-0.7535,-0.7461,-0.7508,-0.791,-0.829,-0.8653,-0.8973,-0.9177,-0.9394,-0.99,-1.0131,-1.0115,-1.0079,-1.0182,-1.0435,-1.1015,-1.1338,-1.1564,-1.2473,-1.3003,-1.3119,-1.3332,-1.3657,-1.3997,-1.4154,-1.4593,-1.5244,-1.517,-1.4993,-1.4841,-1.3888,-1.3111,-1.2602,-1.2396,-1.1937,-1.1197,-1.1117,-1.0909,-1.064,-1.0508,-1.0285,-0.9838,-0.9556,-0.9234,-0.8762,-0.8552,-0.8405,-0.8375,-0.8346,-0.8337,-0.8191,-0.896,-0.9799,-1.0705,-1.1411,-1.1587,-1.1257,-1.0772,-1.0474,-1.039,-1.0716,-1.0863,-1.0659,-1.0728,-1.0865,-1.093,-1.1292,-1.1491,-1.1653,-1.1954,-1.2357,-1.2564,-1.2585,-1.2616,-1.3009,-1.3369,-1.3644,-1.3707,-1.422,-1.5011,-1.5871,-1.584,-1.5688,-1.553,-1.5684,-1.5791,-1.5589,-1.5589,-1.5577,-1.5363,-1.5363,-1.5458,-1.547,-1.5681,-1.6014,-1.6426,-1.6517,-1.6653,-1.7134,-1.7098,-1.7286,-1.7615,-1.7781,-1.7744,-1.8077,-1.8089,-1.7608,-0.7166,-0.729,-0.754,-0.7779,-0.7976,-0.8077,-0.8455,-0.9116,-0.9298,-0.9294,-0.9204,-0.9452,-0.9653,-0.9828,-1.0131,-1.0285,-1.0423,-1.0863,-1.1065,-1.0913,-1.0863,-1.0947,-1.1268,-1.1574,-1.1954,-1.2394,-1.3179,-1.3768,-1.4089,-1.443,-1.4779,-1.5138,-1.5479,-1.6038,-1.6727,-1.6299,-1.6122,-1.6049,-1.5342,-1.4521,-1.3767,-1.3388,-1.2889,-1.2232,-1.1834,-1.1591,-1.1397,-1.1502,-1.1301,-1.083,-1.0532,-1.0132,-0.9659,-0.9384,-0.9184,-0.9007,-0.9041,-0.9124,-0.9256,-1.0198,-1.1182,-1.1864,-1.2419,-1.2778,-1.277,-1.2319,-1.1722,-1.1362,-1.1527,-1.1657,-1.1572,-1.1758,-1.1966,-1.2184,-1.2359,-1.2569,-1.2782,-1.3046,-1.3209,-1.3417,-1.3668,-1.3822,-1.4203,-1.463,-1.4851,-1.4859,-1.5377,-1.6104,-1.6688,-1.651,-1.6131,-1.5919,-1.6004,-1.5992,-1.5791,-1.5897,-1.6004,-1.5803,-1.5897,-1.6028,-1.6221,-1.6429,-1.671,-1.7092,-1.735,-1.7456,-1.7664,-1.783,-1.8064,-1.8077,-1.8169,-1.8415,-1.8544,-1.8428,-1.8349,-0.8047,-0.8151,-0.8566,-0.8928,-0.9154,-0.9346,-0.9675,-1.0108,-1.0828,-1.1261,-1.1314,-1.041,-1.0191,-1.0525,-1.0777,-1.1099,-1.1368,-1.1669,-1.1868,-1.1918,-1.1569,-1.1745,-1.2355,-1.2635,-1.3218,-1.3923,-1.4671,-1.5054,-1.533,-1.5426,-1.5604,-1.6049,-1.6802,-1.7237,-1.7485,-1.7364,-1.7318,-1.7341,-1.688,-1.6154,-1.5215,-1.4654,-1.4017,-1.3437,-1.2657,-1.2022,-1.1775,-1.1556,-1.137,-1.1082,-1.0826,-1.0609,-1.0501,-1.0462,-1.0214,-0.9762,-1.0342,-1.0807,-1.1081,-1.1916,-1.2502,-1.2947,-1.3933,-1.4364,-1.3996,-1.4094,-1.3656,-1.26,-1.2539,-1.2594,-1.2244,-1.2815,-1.3237,-1.3348,-1.3701,-1.4061,-1.413,-1.4379,-1.4573,-1.4559,-1.4544,-1.4808,-1.5306,-1.5542,-1.5504,-1.551,-1.6155,-1.6755,-1.672,-1.6625,-1.6626,-1.6647,-1.663,-1.663,-1.6524,-1.663,-1.6524,-1.6524,-1.663,-1.6624,-1.6825,-1.7211,-1.7652,-1.7868,-1.8148,-1.8081,-1.8273,-1.8311,-1.8311,-1.8415,-1.8428,-1.8428,-1.8428,-1.8415,-1.8504,-0.9144,-0.9276,-0.9692,-0.9897,-0.9943,-1.001,-1.0336,-1.0978,-1.1677,-1.2272,-1.2686,-1.2453,-1.2141,-1.1765,-1.1737,-1.1904,-1.2166,-1.254,-1.2783,-1.3017,-1.3185,-1.3313,-1.3421,-1.4043,-1.4345,-1.4465,-1.5413,-1.5896,-1.6064,-1.6699,-1.7306,-1.7757,-1.7894,-1.7875,-1.78,-1.7541,-1.7376,-1.7376,-1.7262,-1.6997,-1.655,-1.5873,-1.5356,-1.5033,-1.4338,-1.359,-1.3041,-1.277,-1.2305,-1.1654,-1.1536,-1.149,-1.1374,-1.1428,-1.1377,-1.1174,-1.1457,-1.1935,-1.2598,-1.3099,-1.3593,-1.4146,-1.4866,-1.5133,-1.4776,-1.4903,-1.4705,-1.4439,-1.4124,-1.3918,-1.3992,-1.4305,-1.4528,-1.4721,-1.4909,-1.5131,-1.5338,-1.5457,-1.5477,-1.5325,-1.5485,-1.5676,-1.6051,-1.6425,-1.6629,-1.6742,-1.7187,-1.7442,-1.7694,-1.7687,-1.7764,-1.7907,-1.7779,-1.7358,-1.6935,-1.6723,-1.6723,-1.6762,-1.6876,-1.7054,-1.7143,-1.7398,-1.7802,-1.8223,-1.825,-1.8288,-1.8389,-1.8532,-1.8648,-1.8648,-1.8894,-1.901,-1.901,-1.901,-1.9181,-1.0335,-1.0562,-1.1089,-1.128,-1.1274,-1.1197,-1.1516,-1.208,-1.2599,-1.3082,-1.3579,-1.3862,-1.3653,-1.3042,-1.2803,-1.2842,-1.3025,-1.3273,-1.3573,-1.3903,-1.4384,-1.4518,-1.4595,-1.5035,-1.5263,-1.5318,-1.5973,-1.6501,-1.6764,-1.7693,-1.8494,-1.8821,-1.8614,-1.8422,-1.8298,-1.7893,-1.7701,-1.7824,-1.7751,-1.7823,-1.7849,-1.7407,-1.6815,-1.6272,-1.5669,-1.5037,-1.4348,-1.4145,-1.37,-1.2953,-1.2965,-1.2897,-1.2677,-1.2819,-1.2842,-1.2706,-1.2545,-1.2947,-1.4081,-1.421,-1.458,-1.5377,-1.5704,-1.5771,-1.5647,-1.5786,-1.6079,-1.6331,-1.6055,-1.5918,-1.5541,-1.5684,-1.5842,-1.5953,-1.6063,-1.6364,-1.6732,-1.678,-1.6796,-1.6582,-1.6917,-1.7157,-1.7347,-1.769,-1.7961,-1.7968,-1.8133,-1.8372,-1.881,-1.8903,-1.8979,-1.9184,-1.9034,-1.8422,-1.7371,-1.7054,-1.6948,-1.7,-1.7274,-1.7495,-1.7476,-1.7747,-1.803,-1.8722,-1.8466,-1.8518,-1.8713,-1.8997,-1.9229,-1.9216,-1.9461,-1.9707,-1.9591,-1.9591,-1.9848,-1.156,-1.2083,-1.2768,-1.3131,-1.334,-1.3523,-1.3674,-1.37,-1.3862,-1.3982,-1.4007,-1.4097,-1.41,-1.422,-1.411,-1.3968,-1.3931,-1.4029,-1.4312,-1.479,-1.4827,-1.5177,-1.5743,-1.5502,-1.5866,-1.6754,-1.6744,-1.7139,-1.7993,-1.8387,-1.8679,-1.8839,-1.9081,-1.9186,-1.9089,-1.8804,-1.8734,-1.8981,-1.8719,-1.8763,-1.9198,-1.9226,-1.8314,-1.6918,-1.6272,-1.5968,-1.5676,-1.5604,-1.5459,-1.5305,-1.5241,-1.5028,-1.4663,-1.4684,-1.462,-1.439,-1.3732,-1.3981,-1.5314,-1.5375,-1.5584,-1.6345,-1.6715,-1.6751,-1.656,-1.7131,-1.7641,-1.7935,-1.8339,-1.8145,-1.7114,-1.7029,-1.7086,-1.7052,-1.7485,-1.7946,-1.8301,-1.8399,-1.8576,-1.8549,-1.8766,-1.9022,-1.9468,-1.9512,-1.9255,-1.9031,-1.9051,-1.9383,-1.9536,-1.9552,-1.9744,-2.0256,-2.0174,-1.9569,-1.8331,-1.7793,-1.7687,-1.7635,-1.7929,-1.8021,-1.83,-1.8467,-1.8871,-1.9212,-1.9354,-1.9394,-1.9461,-1.9591,-1.9938,-2.0155,-2.0385,-2.0515,-2.027,-2.027,-2.0419,-1.405,-1.4339,-1.4268,-1.4359,-1.4631,-1.4563,-1.4517,-1.4631,-1.5061,-1.5152,-1.5062,-1.5355,-1.5723,-1.6148,-1.617,-1.5892,-1.5521,-1.5591,-1.6057,-1.686,-1.7339,-1.7531,-1.7431,-1.7893,-1.8082,-1.8168,-1.837,-1.859,-1.8821,-1.8786,-1.8893,-1.9283,-1.9924,-2.0082,-1.9756,-2.009,-2.0246,-1.9962,-1.9542,-1.9504,-1.9782,-1.9808,-1.9439,-1.8826,-1.8307,-1.7768,-1.7134,-1.6957,-1.649,-1.58,-1.593,-1.5931,-1.586,-1.6051,-1.6195,-1.5971,-1.5836,-1.6078,-1.6852,-1.6825,-1.6968,-1.7415,-1.7579,-1.7598,-1.743,-1.7961,-1.8595,-1.902,-1.9519,-1.9601,-1.9545,-1.9022,-1.8608,-1.8861,-1.9164,-1.945,-1.965,-1.9747,-1.9668,-1.992,-2.0211,-2.0374,-2.04,-2.0589,-2.0709,-2.0292,-2.0046,-2.0382,-2.087,-2.0751,-2.0752,-2.1628,-2.1489,-2.0979,-2.0861,-1.945,-1.8646,-1.8626,-1.8794,-1.9104,-1.929,-1.9403,-1.9707,-2.0287,-2.0385,-2.027,-2.0385,-2.063,-2.0859,-2.096,-2.1189,-2.1303,-2.1074,-2.1174,-2.1147,-1.6157,-1.6207,-1.5855,-1.5874,-1.6089,-1.5893,-1.5806,-1.5855,-1.6096,-1.6126,-1.6005,-1.6219,-1.6598,-1.704,-1.7169,-1.73,-1.7205,-1.718,-1.757,-1.8453,-1.8953,-1.8955,-1.8758,-1.9258,-1.9333,-1.9081,-1.9379,-1.9525,-1.95,-1.9263,-1.9316,-1.9706,-2.037,-2.0501,-2.022,-2.0708,-2.0836,-2.0646,-2.0426,-2.0433,-2.0549,-2.0624,-2.0597,-2.0555,-2.0189,-1.9584,-1.8753,-1.8524,-1.8049,-1.7338,-1.7365,-1.7375,-1.7193,-1.7203,-1.7266,-1.727,-1.708,-1.7462,-1.8194,-1.8406,-1.8524,-1.8916,-1.9081,-1.9096,-1.9002,-1.972,-2.0336,-2.0689,-2.0886,-2.1312,-2.1445,-2.1035,-2.0715,-2.07,-2.0663,-2.0817,-2.1339,-2.1185,-2.1148,-2.1348,-2.1569,-2.1613,-2.1614,-2.2054,-2.2133,-2.1943,-2.1516,-2.1844,-2.2703,-2.2452,-2.2337,-2.3422,-2.3285,-2.2885,-2.2484,-2.1574,-2.0554,-2.0426,-2.0046,-2.0253,-2.0491,-2.053,-2.0754,-2.1329,-2.1432,-2.1303,-2.1417,-2.166,-2.1888,-2.1873,-2.2214,-2.2441,-2.2199,-2.2085,-2.2321,-1.7719,-1.7626,-1.7626,-1.7733,-1.7814,-1.776,-1.7612,-1.7503,-1.7188,-1.7031,-1.694,-1.6539,-1.6744,-1.6897,-1.7119,-1.773,-1.8884,-1.8699,-1.8745,-1.9251,-1.923,-1.9334,-1.9533,-1.9409,-1.9384,-1.9478,-1.9448,-1.9552,-1.9811,-1.9734,-1.9862,-2.0118,-2.0322,-2.0527,-2.0597,-2.0677,-2.0801,-2.1118,-2.128,-2.15,-2.1746,-2.1785,-2.1852,-2.1927,-2.1773,-2.1291,-2.0471,-2.037,-1.9991,-1.971,-1.971,-1.9475,-1.8632,-1.8216,-1.7958,-1.8213,-1.7571,-1.8003,-1.9488,-1.9879,-2.0272,-2.0587,-2.1209,-2.1237,-2.1261,-2.2185,-2.2774,-2.2677,-2.267,-2.2711,-2.2706,-2.3033,-2.2994,-2.2371,-2.1954,-2.2339,-2.2939,-2.2939,-2.28,-2.2921,-2.3092,-2.3287,-2.3536,-2.3713,-2.374,-2.3674,-2.3347,-2.3575,-2.4544,-2.4263,-2.4672,-2.5314,-2.5275,-2.4767,-2.4276,-2.3683,-2.2868,-2.2232,-2.1908,-2.1783,-2.1941,-2.2025,-2.245,-2.2846,-2.2652,-2.2636,-2.2846,-2.3199,-2.3103,-2.3215,-2.344,-2.3664,-2.3536,-2.3585,-2.404,-1.9723,-1.9118,-1.973,-1.9597,-1.9093,-1.9363,-1.9487,-1.933,-1.9063,-1.8902,-1.8576,-1.795,-1.7908,-1.838,-1.8655,-1.9333,-2.0361,-2.0462,-2.0545,-2.0456,-2.0483,-2.044,-2.037,-2.0317,-2.0293,-2.022,-1.9965,-2.0016,-2.0271,-2.0118,-2.0093,-2.0524,-2.1167,-2.1242,-2.0997,-2.1565,-2.192,-2.163,-2.1955,-2.248,-2.3102,-2.3016,-2.3139,-2.3684,-2.3622,-2.319,-2.2466,-2.15,-2.0795,-2.0396,-2.0321,-2.0194,-2.0023,-1.9961,-1.9989,-2.0112,-2.0003,-2.01,-2.0974,-2.1608,-2.1872,-2.1892,-2.191,-2.1871,-2.1879,-2.2515,-2.3081,-2.3367,-2.3559,-2.3816,-2.4284,-2.4003,-2.3603,-2.2694,-2.3391,-2.3909,-2.4073,-2.43,-2.4356,-2.4279,-2.4893,-2.5245,-2.5142,-2.5204,-2.5294,-2.5041,-2.4553,-2.4732,-2.5674,-2.5542,-2.5635,-2.6825,-2.6717,-2.6628,-2.6224,-2.5858,-2.5373,-2.4486,-2.3834,-2.3547,-2.3648,-2.3634,-2.4073,-2.425,-2.4061,-2.4078,-2.4411,-2.4522,-2.4539,-2.4906,-2.5255,-2.5238,-2.4982,-2.5207,-2.5683,-2.1532,-2.0808,-2.139,-2.1412,-2.0901,-2.1038,-2.1068,-2.1023,-2.087,-2.0646,-2.0283,-1.9706,-1.9603,-1.9961,-2.0218,-2.0681,-2.1377,-2.1664,-2.1713,-2.1575,-2.141,-2.1313,-2.1215,-2.134,-2.1453,-2.1385,-2.1,-2.1,-2.1412,-2.1122,-2.1015,-2.1394,-2.1937,-2.2104,-2.1841,-2.2412,-2.2602,-2.2449,-2.2785,-2.3259,-2.3732,-2.397,-2.416,-2.4472,-2.4595,-2.4417,-2.3925,-2.2965,-2.2055,-2.1367,-2.103,-2.1017,-2.1093,-2.1245,-2.1466,-2.1619,-2.1485,-2.1601,-2.2498,-2.3357,-2.356,-2.3245,-2.3286,-2.3265,-2.3304,-2.3604,-2.4215,-2.4632,-2.4674,-2.4884,-2.5276,-2.4998,-2.451,-2.4284,-2.4897,-2.535,-2.5253,-2.558,-2.5789,-2.5774,-2.6256,-2.6572,-2.6599,-2.6679,-2.6917,-2.6588,-2.6069,-2.5999,-2.7042,-2.7106,-2.7713,-2.812,-2.8172,-2.8143,-2.8164,-2.7925,-2.7778,-2.6794,-2.5775,-2.5571,-2.5563,-2.5321,-2.5433,-2.5828,-2.5735,-2.5735,-2.6063,-2.6063,-2.6191,-2.6573,-2.6994,-2.6995,-2.6976,-2.7179,-2.7623,-2.3211,-2.276,-2.2824,-2.3061,-2.3159,-2.2667,-2.2518,-2.264,-2.2456,-2.2231,-2.1888,-2.1395,-2.1337,-2.1386,-2.1304,-2.1591,-2.2144,-2.2207,-2.2395,-2.2517,-2.2282,-2.2095,-2.2049,-2.2002,-2.2261,-2.2582,-2.2233,-2.2337,-2.2707,-2.2442,-2.2512,-2.2402,-2.2523,-2.2723,-2.2904,-2.2949,-2.3068,-2.3304,-2.3537,-2.3739,-2.4036,-2.4633,-2.4928,-2.4667,-2.5124,-2.5312,-2.5146,-2.4762,-2.3922,-2.2658,-2.2309,-2.2207,-2.2085,-2.222,-2.2719,-2.3076,-2.2255,-2.2788,-2.3979,-2.4811,-2.5118,-2.462,-2.4909,-2.5507,-2.5123,-2.5467,-2.5985,-2.6335,-2.6025,-2.5845,-2.6049,-2.6044,-2.6114,-2.6382,-2.6432,-2.6494,-2.6505,-2.6845,-2.7061,-2.7107,-2.7339,-2.7675,-2.8033,-2.8155,-2.8267,-2.8235,-2.781,-2.7916,-2.8549,-2.8797,-2.9255,-2.9398,-2.9418,-2.9371,-2.9301,-2.9024,-2.8927,-2.8761,-2.7841,-2.7501,-2.7337,-2.7045,-2.6824,-2.7214,-2.746,-2.7549,-2.7625,-2.772,-2.7853,-2.8172,-2.8584,-2.8848,-2.8906,-2.9036,-2.9211,-2.5587,-2.4758,-2.54,-2.524,-2.4569,-2.4439,-2.4481,-2.4511,-2.4165,-2.3987,-2.3642,-2.2618,-2.23,-2.2156,-2.2124,-2.2236,-2.267,-2.2931,-2.3198,-2.3493,-2.3537,-2.3009,-2.2512,-2.242,-2.2715,-2.3121,-2.2894,-2.278,-2.3416,-2.3281,-2.3068,-2.3143,-2.3334,-2.3319,-2.3319,-2.3319,-2.3363,-2.3566,-2.3837,-2.4449,-2.5133,-2.5519,-2.6,-2.6461,-2.691,-2.6917,-2.6561,-2.6161,-2.5439,-2.4374,-2.4172,-2.4269,-2.4459,-2.4634,-2.4791,-2.4942,-2.4969,-2.5023,-2.5411,-2.5827,-2.5827,-2.5578,-2.5659,-2.5682,-2.6062,-2.6167,-2.6613,-2.7104,-2.714,-2.711,-2.7419,-2.7446,-2.7352,-2.7105,-2.7494,-2.767,-2.7726,-2.8126,-2.8375,-2.8299,-2.8999,-2.9301,-2.9324,-2.9269,-2.9341,-2.9234,-2.8986,-2.8817,-2.9786,-3.0276,-3.062,-3.0608,-3.0601,-3.051,-3.042,-3.0034,-3.001,-3.0303,-2.9862,-2.9321,-2.8977,-2.8629,-2.8555,-2.8581,-2.8858,-2.9045,-2.9263,-2.9441,-2.9639,-2.9758,-2.9988,-3.0178,-3.0178,-3.0309,-3.0641,-2.7215,-2.6545,-2.7414,-2.7477,-2.6899,-2.6619,-2.6606,-2.6671,-2.6485,-2.6017,-2.5513,-2.5106,-2.4489,-2.4035,-2.398,-2.4006,-2.4123,-2.4324,-2.444,-2.4502,-2.4542,-2.4101,-2.361,-2.357,-2.3984,-2.4562,-2.4357,-2.4716,-2.5149,-2.4897,-2.462,-2.4493,-2.4518,-2.4449,-2.4184,-2.4142,-2.4225,-2.4461,-2.4664,-2.5115,-2.5575,-2.6045,-2.6331,-2.6882,-2.7359,-2.7569,-2.7363,-2.7377,-2.678,-2.5652,-2.5442,-2.5668,-2.5871,-2.6163,-2.6468,-2.6676,-2.6553,-2.6443,-2.673,-2.6648,-2.6565,-2.6546,-2.6383,-2.6666,-2.703,-2.7055,-2.7353,-2.8041,-2.8023,-2.8365,-2.8985,-2.9077,-2.9013,-2.8972,-2.9109,-2.9125,-2.8728,-2.9221,-2.9629,-2.9857,-3.0263,-3.0696,-3.0519,-3.0519,-3.0598,-3.0701,-3.0675,-3.0943,-3.143,-3.1714,-3.1882,-3.1845,-3.1649,-3.1584,-3.155,-3.1239,-3.1342,-3.1646,-3.1731,-3.1188,-3.0668,-3.0282,-3.0037,-3.014,-3.0408,-3.0591,-3.0648,-3.0962,-3.123,-3.1333,-3.1436,-3.1581,-3.1643,-3.1622,-3.1961,-2.844,-2.8334,-2.9101,-2.9609,-2.9732,-2.8992,-2.8825,-2.9048,-2.8753,-2.8067,-2.7438,-2.7762,-2.7063,-2.6516,-2.5974,-2.6139,-2.6118,-2.5738,-2.5598,-2.5513,-2.5426,-2.5211,-2.5115,-2.5102,-2.5697,-2.6284,-2.6673,-2.682,-2.6854,-2.6898,-2.6535,-2.5905,-2.5873,-2.5687,-2.5274,-2.5233,-2.5362,-2.54,-2.5438,-2.5605,-2.5889,-2.6477,-2.6848,-2.708,-2.7572,-2.7953,-2.8221,-2.8403,-2.8031,-2.6213,-2.6537,-2.6771,-2.6644,-2.7128,-2.744,-2.7718,-2.7372,-2.7284,-2.773,-2.76,-2.7442,-2.7744,-2.7752,-2.7932,-2.8396,-2.8455,-2.8568,-2.9135,-2.9018,-2.952,-3.0178,-3.0685,-3.0682,-3.066,-3.091,-3.0556,-3.0166,-3.044,-3.1048,-3.1294,-3.1368,-3.1663,-3.1736,-3.189,-3.2005,-3.2155,-3.2273,-3.2752,-3.3115,-3.3502,-3.3457,-3.3267,-3.2993,-3.2636,-3.2597,-3.2487,-3.2683,-3.2933,-3.329,-3.3133,-3.2483,-3.2051,-3.1724,-3.1576,-3.1591,-3.1742,-3.1849,-3.2148,-3.2532,-3.2721,-3.2606,-3.3014,-3.338,-3.3029,-3.3135,-3.0163,-3.0653,-3.0792,-3.1193,-3.1638,-3.1314,-3.1113,-3.0991,-3.0015,-2.9481,-2.8981,-2.8216,-2.8072,-2.8207,-2.7262,-2.6793,-2.7231,-2.6582,-2.603,-2.6168,-2.64,-2.6709,-2.6738,-2.6527,-2.6714,-2.7399,-2.7198,-2.7375,-2.7551,-2.7189,-2.6659,-2.6955,-2.6375,-2.5812,-2.6218,-2.5728,-2.5438,-2.5621,-2.5659,-2.6096,-2.6624,-2.7238,-2.785,-2.8298,-2.8887,-2.9134,-2.9227,-2.9374,-2.913,-2.8621,-2.8248,-2.8258,-2.84,-2.8357,-2.8602,-2.8869,-2.8564,-2.8442,-2.8931,-2.893,-2.8919,-2.9335,-2.9241,-2.9372,-2.9941,-2.9974,-3.0129,-3.0426,-3.0573,-3.0626,-3.1075,-3.1054,-3.1297,-3.1687,-3.196,-3.2122,-3.2258,-3.2304,-3.2263,-3.2533,-3.2818,-3.2988,-3.2803,-3.3118,-3.3321,-3.3551,-3.4005,-3.4485,-3.4844,-3.5197,-3.4927,-3.4624,-3.425,-3.393,-3.3893,-3.3745,-3.3875,-3.4137,-3.4462,-3.4605,-3.395,-3.3412,-3.2978,-3.2757,-3.2729,-3.2884,-3.2884,-3.3222,-3.353,-3.3704,-3.3812,-3.3963,-3.4094,-3.409,-3.4086,-3.1224,-3.1718,-3.2441,-3.2954,-3.3125,-3.2981,-3.2797,-3.2524,-3.1873,-3.1272,-3.082,-3.0222,-3.0097,-2.9952,-2.9089,-2.8745,-2.8386,-2.7769,-2.7539,-2.7776,-2.7931,-2.8193,-2.8486,-2.8174,-2.8192,-2.864,-2.8576,-2.865,-2.8606,-2.8276,-2.8188,-2.8142,-2.7485,-2.7212,-2.6995,-2.6493,-2.6171,-2.6081,-2.6352,-2.6825,-2.7296,-2.7959,-2.8609,-2.9296,-2.9831,-3.0097,-3.0021,-2.9848,-2.9793,-2.9617,-2.947,-2.9278,-2.9454,-2.9454,-2.9816,-3.0159,-2.9998,-2.9962,-3.0309,-3.0145,-3.0104,-3.0698,-3.0548,-3.0891,-3.1232,-3.1389,-3.1373,-3.1474,-3.1452,-3.1427,-3.1869,-3.2188,-3.239,-3.262,-3.2977,-3.3289,-3.3594,-3.3357,-3.3171,-3.3451,-3.3728,-3.3956,-3.4072,-3.4214,-3.4808,-3.5131,-3.5293,-3.5767,-3.6213,-3.6448,-3.6239,-3.5898,-3.5572,-3.5315,-3.5208,-3.512,-3.5011,-3.5139,-3.5255,-3.5283,-3.4969,-3.4459,-3.3993,-3.3893,-3.381,-3.3891,-3.4028,-3.4328,-3.4651,-3.4962,-3.5012,-3.4866,-3.4825,-3.4891,-3.4847,-3.214,-3.2421,-3.3885,-3.4474,-3.4438,-3.4306,-3.4173,-3.4021,-3.3718,-3.2952,-3.2486,-3.2818,-3.2017,-3.1709,-3.1126,-3.0483,-2.9755,-2.9318,-2.9215,-2.9344,-2.9455,-2.9622,-2.9844,-2.9854,-2.9794,-2.9722,-2.9747,-2.9903,-2.9903,-2.9913,-2.9386,-2.9313,-2.9098,-2.8588,-2.7906,-2.7574,-2.7341,-2.7011,-2.7453,-2.7931,-2.8169,-2.8777,-2.9269,-2.9928,-3.0309,-3.0601,-3.0518,-3.0393,-3.0192,-3.0225,-3.0323,-3.0185,-3.0041,-3.0248,-3.0861,-3.1406,-3.1246,-3.1385,-3.1596,-3.1381,-3.1299,-3.1883,-3.1787,-3.2035,-3.247,-3.2454,-3.2351,-3.2185,-3.2109,-3.2155,-3.2821,-3.3186,-3.3638,-3.3967,-3.4259,-3.4371,-3.4456,-3.4185,-3.4216,-3.4235,-3.4399,-3.4603,-3.494,-3.5177,-3.5956,-3.6649,-3.679,-3.6957,-3.7339,-3.7605,-3.7219,-3.7153,-3.6794,-3.6739,-3.6668,-3.683,-3.6703,-3.6437,-3.6427,-3.6168,-3.6098,-3.5692,-3.5307,-3.4846,-3.4837,-3.4875,-3.498,-3.5222,-3.5619,-3.6132,-3.6097,-3.5749,-3.574,-3.5772,-3.5753,-3.3353,-3.4096,-3.4365,-3.4889,-3.5466,-3.5494,-3.5418,-3.5274,-3.4395,-3.3891,-3.3618,-3.2906,-3.2921,-3.2784,-3.2002,-3.1249,-3.0888,-3.0631,-3.0449,-3.0604,-3.0744,-3.1008,-3.0907,-3.1179,-3.1308,-3.1147,-3.0851,-3.0551,-3.0294,-2.9947,-3.0061,-3.0149,-2.9527,-2.9038,-2.9248,-2.909,-2.8544,-2.8241,-2.8583,-2.9028,-2.9437,-2.981,-3.0213,-3.0779,-3.1044,-3.1179,-3.1106,-3.0952,-3.0764,-3.079,-3.1441,-3.1592,-3.1447,-3.1243,-3.1634,-3.202,-3.2313,-3.2562,-3.2789,-3.2772,-3.2848,-3.3208,-3.3129,-3.3108,-3.3298,-3.334,-3.3307,-3.3037,-3.285,-3.2844,-3.3767,-3.4025,-3.4728,-3.537,-3.5674,-3.5574,-3.5698,-3.5533,-3.5294,-3.5185,-3.5149,-3.5259,-3.5683,-3.6131,-3.6791,-3.739,-3.7695,-3.7721,-3.7832,-3.8073,-3.8064,-3.8012,-3.806,-3.8144,-3.8249,-3.8477,-3.8515,-3.8182,-3.7874,-3.7413,-3.7227,-3.6947,-3.6597,-3.6007,-3.5746,-3.5745,-3.5861,-3.605,-3.6531,-3.7091,-3.6892,-3.6614,-3.6624,-3.6712,-3.6703,-3.4011,-3.4501,-3.4921,-3.5385,-3.5737,-3.5812,-3.5793,-3.5738,-3.5212,-3.4951,-3.4747,-3.4263,-3.4106,-3.4192,-3.3772,-3.3147,-3.2706,-3.2047,-3.1989,-3.2109,-3.2254,-3.2097,-3.1872,-3.2125,-3.2057,-3.1878,-3.1548,-3.1201,-3.0771,-3.0543,-3.0549,-3.0576,-3.0152,-3.0032,-3.0006,-2.9739,-2.9403,-2.927,-2.9513,-2.9926,-3.0409,-3.072,-3.1271,-3.1473,-3.188,-3.2047,-3.2003,-3.1964,-3.1845,-3.1833,-3.2184,-3.2313,-3.2386,-3.2774,-3.3138,-3.3283,-3.3603,-3.3842,-3.4032,-3.405,-3.42,-3.4219,-3.4151,-3.405,-3.4078,-3.422,-3.4313,-3.4279,-3.4022,-3.381,-3.4072,-3.4568,-3.5154,-3.5615,-3.6045,-3.6196,-3.6226,-3.61,-3.6061,-3.6014,-3.6124,-3.629,-3.6654,-3.7138,-3.7689,-3.8148,-3.8546,-3.8472,-3.841,-3.8522,-3.8783,-3.9151,-3.924,-3.9499,-3.9648,-3.9698,-3.9936,-3.9666,-3.9222,-3.8655,-3.8227,-3.786,-3.7464,-3.6904,-3.6709,-3.6502,-3.6798,-3.7047,-3.7568,-3.7935,-3.78,-3.7733,-3.7546,-3.7512,-3.7581,-3.45,-3.4662,-3.5357,-3.5716,-3.5759,-3.5808,-3.578,-3.5804,-3.5797,-3.5727,-3.5781,-3.5533,-3.54,-3.5368,-3.5101,-3.4793,-3.4564,-3.3602,-3.3483,-3.3561,-3.3523,-3.3248,-3.3064,-3.2973,-3.3048,-3.2995,-3.2889,-3.2232,-3.1397,-3.1253,-3.1244,-3.1244,-3.124,-3.104,-3.068,-3.0722,-3.0099,-3.0101,-3.0311,-3.0762,-3.1041,-3.1457,-3.1875,-3.1944,-3.2562,-3.2831,-3.2681,-3.2843,-3.2696,-3.2582,-3.2724,-3.2866,-3.2951,-3.4096,-3.4806,-3.4742,-3.5105,-3.5111,-3.5052,-3.5018,-3.5052,-3.5148,-3.497,-3.4939,-3.5037,-3.5272,-3.5432,-3.5537,-3.5268,-3.4898,-3.4852,-3.5177,-3.561,-3.5949,-3.6322,-3.6476,-3.6476,-3.6475,-3.6626,-3.674,-3.691,-3.7225,-3.7623,-3.7685,-3.8139,-3.847,-3.8841,-3.9062,-3.8927,-3.922,-3.9525,-4.0091,-4.0466,-4.0867,-4.0967,-4.083,-4.0943,-4.0969,-4.0364,-3.9782,-3.9213,-3.8698,-3.8333,-3.8017,-3.7535,-3.7438,-3.7687,-3.7947,-3.8488,-3.8718,-3.8792,-3.8733,-3.8624,-3.8776,-3.8935,-3.507,-3.5213,-3.5454,-3.5563,-3.5616,-3.5755,-3.5811,-3.5786,-3.5858,-3.5894,-3.5879,-3.5794,-3.5725,-3.5659,-3.5456,-3.523,-3.5015,-3.4679,-3.4431,-3.4417,-3.4367,-3.4414,-3.4578,-3.4697,-3.4608,-3.4449,-3.4437,-3.3466,-3.2441,-3.2161,-3.2056,-3.1949,-3.1949,-3.2057,-3.1741,-3.1672,-3.1987,-3.1917,-3.1987,-3.1987,-3.1881,-3.1768,-3.1765,-3.2078,-3.249,-3.3041,-3.3141,-3.3441,-3.3317,-3.2861,-3.323,-3.355,-3.3842,-3.4668,-3.5659,-3.6063,-3.6079,-3.5622,-3.5453,-3.5498,-3.5701,-3.5933,-3.5966,-3.624,-3.6439,-3.6364,-3.6226,-3.5764,-3.5815,-3.5928,-3.602,-3.5927,-3.6515,-3.677,-3.6904,-3.7029,-3.6997,-3.6754,-3.694,-3.7556,-3.7827,-3.8202,-3.853,-3.8502,-3.8531,-3.8835,-3.9106,-3.9328,-3.9638,-3.9917,-4.04,-4.1057,-4.136,-4.1709,-4.1831,-4.1728,-4.1676,-4.1879,-4.1539,-4.0879,-4.041,-3.9987,-3.9617,-3.9215,-3.8806,-3.8522,-3.886,-3.9232,-3.9535,-3.9648,-3.9879,-3.9747,-3.9562,-3.9857,-4.0343,-3.5447,-3.5747,-3.5812,-3.5724,-3.5577,-3.562,-3.565,-3.5709,-3.5806,-3.584,-3.5855,-3.5884,-3.5827,-3.5755,-3.5601,-3.5504,-3.5406,-3.5209,-3.5081,-3.5151,-3.5229,-3.5415,-3.5549,-3.5901,-3.6122,-3.592,-3.567,-3.506,-3.3929,-3.3012,-3.2606,-3.2335,-3.23,-3.2231,-3.2335,-3.23,-3.2546,-3.2757,-3.2932,-3.2757,-3.2372,-3.2125,-3.2227,-3.2825,-3.2916,-3.3429,-3.4051,-3.4017,-3.4054,-3.3768,-3.3967,-3.4169,-3.4559,-3.5094,-3.574,-3.6676,-3.6696,-3.6492,-3.6291,-3.6284,-3.6388,-3.6478,-3.6707,-3.7084,-3.7702,-3.7768,-3.7656,-3.7785,-3.7513,-3.739,-3.7327,-3.7233,-3.7398,-3.7594,-3.7421,-3.7389,-3.7329,-3.7181,-3.728,-3.7997,-3.8743,-3.9031,-3.9268,-3.9304,-3.9143,-3.9098,-3.9414,-3.9668,-4.0218,-4.0825,-4.1429,-4.2099,-4.2283,-4.2438,-4.2386,-4.2363,-4.214,-4.2241,-4.2797,-4.2223,-4.1733,-4.1323,-4.1073,-4.1132,-4.1223,-4.0896,-4.0508,-4.0351,-4.0461,-4.0733,-4.1,-4.0901,-4.0812,-4.1229,-4.1821,-3.6107,-3.6507,-3.6343,-3.6176,-3.595,-3.594,-3.5933,-3.5852,-3.5998,-3.5943,-3.5836,-3.5854,-3.5884,-3.5827,-3.5755,-3.5676,-3.5669,-3.5688,-3.5559,-3.5676,-3.6107,-3.6407,-3.6629,-3.7014,-3.7506,-3.7293,-3.7105,-3.6567,-3.5588,-3.4418,-3.3363,-3.2702,-3.2636,-3.2537,-3.2504,-3.2574,-3.2823,-3.3528,-3.3248,-3.3142,-3.3107,-3.2686,-3.3072,-3.3528,-3.3873,-3.4202,-3.5149,-3.5292,-3.5163,-3.449,-3.4559,-3.4757,-3.5053,-3.5413,-3.6169,-3.6996,-3.7319,-3.7319,-3.7094,-3.7009,-3.7061,-3.7255,-3.7713,-3.8533,-3.9069,-3.9109,-3.8907,-3.9043,-3.8863,-3.869,-3.8576,-3.8197,-3.8148,-3.8065,-3.7865,-3.7775,-3.7658,-3.7701,-3.7991,-3.8842,-3.9502,-3.9769,-3.9992,-4.0047,-3.9849,-3.9553,-3.9751,-4.0038,-4.0801,-4.165,-4.2119,-4.2672,-4.2731,-4.2799,-4.2909,-4.2799,-4.2578,-4.2737,-4.3224,-4.3257,-4.2711,-4.2678,-4.2693,-4.2879,-4.3125,-4.2805,-4.2085,-4.1731,-4.1462,-4.1565,-4.166,-4.1928,-4.2164,-4.2677,-4.3028,-3.7257,-3.7649,-3.7093,-3.6964,-3.7086,-3.7243,-3.6944,-3.6507,-3.66,-3.6358,-3.6066,-3.5931,-3.6005,-3.5898,-3.5907,-3.5844,-3.5927,-3.657,-3.635,-3.6407,-3.6986,-3.7555,-3.7844,-3.829,-3.8953,-3.9186,-3.8652,-3.8108,-3.7464,-3.591,-3.4623,-3.3553,-3.3152,-3.3055,-3.3104,-3.3223,-3.3407,-3.3768,-3.342,-3.367,-3.3952,-3.3882,-3.381,-3.4621,-3.5217,-3.5706,-3.5811,-3.6085,-3.5793,-3.4766,-3.5048,-3.5206,-3.5398,-3.5719,-3.6541,-3.7506,-3.7898,-3.7863,-3.7685,-3.7456,-3.7732,-3.8668,-3.9468,-3.9829,-4.0192,-4.0068,-3.9919,-3.9629,-3.9558,-3.9435,-3.9115,-3.8843,-3.8711,-3.852,-3.8351,-3.8123,-3.8168,-3.838,-3.8829,-3.9656,-4.0198,-4.0478,-4.0618,-4.0622,-4.0301,-3.998,-4.0437,-4.0755,-4.164,-4.2462,-4.2772,-4.3031,-4.3031,-4.304,-4.318,-4.3159,-4.3197,-4.3389,-4.3818,-4.3796,-4.3481,-4.3661,-4.4263,-4.4081,-4.4157,-4.3983,-4.3714,-4.3148,-4.2656,-4.2315,-4.2345,-4.3035,-4.3517,-4.4045,-4.4278,-3.6866,-3.7942,-3.786,-3.7549,-3.7055,-3.7268,-3.7222,-3.7109,-3.7239,-3.7308,-3.7133,-3.6826,-3.665,-3.6534,-3.6092,-3.6194,-3.665,-3.6884,-3.7078,-3.7647,-3.8346,-3.8711,-3.8969,-3.9303,-3.9927,-4.0005,-3.9561,-3.9018,-3.8288,-3.73,-3.6211,-3.5066,-3.398,-3.3762,-3.3821,-3.4119,-3.4347,-3.4211,-3.4153,-3.4443,-3.416,-3.4624,-3.48,-3.5723,-3.5044,-3.5819,-3.6456,-3.6385,-3.592,-3.5524,-3.5671,-3.5754,-3.583,-3.615,-3.6968,-3.7962,-3.8174,-3.814,-3.8146,-3.8005,-3.8616,-3.9553,-4.0155,-4.0447,-4.0849,-4.0693,-4.0451,-4.0254,-4.0154,-3.9952,-3.9677,-3.9415,-3.9255,-3.904,-3.8766,-3.8544,-3.8617,-3.89,-3.945,-4.028,-4.0734,-4.1024,-4.1112,-4.1189,-4.0783,-4.0392,-4.0982,-4.1595,-4.25,-4.3085,-4.3307,-4.3409,-4.3409,-4.322,-4.328,-4.3549,-4.3767,-4.4132,-4.4383,-4.4482,-4.4435,-4.5286,-4.5726,-4.5488,-4.5072,-4.4972,-4.4627,-4.4153,-4.3725,-4.3188,-4.3571,-4.4361,-4.4881,-4.5315,-4.5528,-3.6608,-3.7998,-3.8201,-3.7985,-3.7504,-3.7727,-3.7717,-3.7683,-3.7813,-3.789,-3.7938,-3.7531,-3.7397,-3.7222,-3.698,-3.6946,-3.7536,-3.787,-3.8088,-3.8634,-3.9248,-3.9575,-3.9741,-3.9981,-4.0377,-4.0372,-4.0176,-3.9681,-3.9299,-3.8672,-3.7438,-3.6157,-3.5106,-3.4825,-3.4266,-3.4883,-3.5047,-3.4914,-3.4993,-3.5256,-3.49,-3.5295,-3.583,-3.6542,-3.6113,-3.6252,-3.6964,-3.6929,-3.6429,-3.6215,-3.6252,-3.647,-3.6542,-3.6755,-3.7358,-3.7889,-3.8207,-3.814,-3.8218,-3.8724,-3.9309,-3.9779,-4.0526,-4.0767,-4.1035,-4.1071,-4.0836,-4.0631,-4.0583,-4.0436,-4.0037,-3.9833,-3.9573,-3.9255,-3.8985,-3.8776,-3.9162,-3.9483,-4.013,-4.0809,-4.1238,-4.1693,-4.1789,-4.1841,-4.1548,-4.1449,-4.213,-4.2663,-4.3183,-4.3623,-4.3758,-4.3801,-4.3723,-4.3536,-4.3379,-4.3828,-4.4197,-4.4363,-4.4703,-4.5361,-4.5664,-4.6372,-4.658,-4.6167,-4.59,-4.5927,-4.5681,-4.5367,-4.4583,-4.3877,-4.4645,-4.554,-4.6059,-4.6397,-4.6451,-3.6827,-3.7791,-3.7931,-3.8227,-3.8442,-3.883,-3.8686,-3.8334,-3.8395,-3.8249,-3.806,-3.804,-3.809,-3.8035,-3.7911,-3.8049,-3.8453,-3.91,-3.9287,-3.9199,-4.0018,-4.0205,-4.0141,-4.0328,-4.0668,-4.0642,-4.0477,-4.0296,-4.0168,-3.9357,-3.8249,-3.7461,-3.6596,-3.5876,-3.4244,-3.447,-3.4956,-3.5447,-3.5692,-3.5888,-3.6111,-3.6326,-3.6898,-3.7113,-3.7184,-3.7254,-3.7325,-3.7433,-3.6897,-3.6434,-3.6968,-3.7041,-3.6748,-3.7361,-3.7859,-3.8204,-3.8207,-3.8174,-3.8249,-3.9115,-3.9554,-3.9911,-4.0778,-4.1349,-4.1265,-4.1209,-4.1152,-4.0918,-4.0776,-4.0583,-4.0337,-4.0138,-3.9781,-3.952,-3.9255,-3.9161,-3.9584,-3.9975,-4.0626,-4.1188,-4.1814,-4.2365,-4.2462,-4.2457,-4.2291,-4.2466,-4.3231,-4.3766,-4.4065,-4.4129,-4.4159,-4.4112,-4.4065,-4.4061,-4.3995,-4.4368,-4.471,-4.4796,-4.5198,-4.5947,-4.6307,-4.6634,-4.6667,-4.658,-4.6521,-4.6343,-4.6427,-4.6508,-4.5967,-4.5565,-4.5857,-4.6542,-4.7039,-4.7288,-4.7288,-3.5929,-3.6683,-3.7435,-3.7861,-3.8099,-3.8548,-3.8728,-3.8819,-3.9124,-3.9326,-3.9204,-3.8958,-3.8762,-3.867,-3.8462,-3.8576,-3.9162,-3.9403,-3.9524,-4.0267,-4.0812,-4.0733,-4.0648,-4.0632,-4.0801,-4.0749,-4.0655,-4.0549,-4.0423,-3.984,-3.9297,-3.8518,-3.7692,-3.7084,-3.6694,-3.6675,-3.6705,-3.676,-3.6708,-3.6594,-3.668,-3.711,-3.747,-3.7613,-3.7613,-3.7613,-3.7613,-3.7613,-3.7256,-3.6684,-3.722,-3.7292,-3.7,-3.7503,-3.8003,-3.8174,-3.8174,-3.8106,-3.822,-3.8796,-3.9685,-4.0415,-4.1138,-4.1682,-4.1788,-4.1604,-4.138,-4.1198,-4.1024,-4.0871,-4.0631,-4.0337,-4.0087,-3.9884,-3.9692,-3.9686,-3.9907,-4.0426,-4.0939,-4.1476,-4.207,-4.2236,-4.2366,-4.3069,-4.3105,-4.3294,-4.3934,-4.4518,-4.493,-4.4631,-4.4496,-4.4419,-4.4404,-4.4494,-4.4643,-4.5141,-4.5556,-4.5763,-4.6281,-4.7031,-4.713,-4.7076,-4.7078,-4.711,-4.6933,-4.6874,-4.7227,-4.757,-4.7565,-4.747,-4.749,-4.7511,-4.7671,-4.7782,-4.7801,-3.5427,-3.6116,-3.7035,-3.7469,-3.7613,-3.8165,-3.8554,-3.8826,-3.935,-3.9693,-3.97,-3.9451,-3.9411,-3.9308,-3.9176,-3.911,-3.9849,-4.0039,-4.0287,-4.1047,-4.1091,-4.1001,-4.0976,-4.0961,-4.0914,-4.0835,-4.0762,-4.0665,-4.0604,-4.0492,-4.006,-3.9332,-3.8404,-3.8272,-3.8177,-3.8021,-3.7477,-3.747,-3.7369,-3.7326,-3.7275,-3.7392,-3.7827,-3.7792,-3.7757,-3.7685,-3.7721,-3.7614,-3.7435,-3.7149,-3.7184,-3.7435,-3.7327,-3.7504,-3.7934,-3.8003,-3.8038,-3.8003,-3.8149,-3.8618,-3.9586,-4.0623,-4.1314,-4.1724,-4.1931,-4.1823,-4.1604,-4.1436,-4.13,-4.1071,-4.0871,-4.0583,-4.0337,-4.0138,-4.0202,-4.0113,-4.0613,-4.1082,-4.169,-4.2141,-4.2288,-4.233,-4.2366,-4.3259,-4.3918,-4.425,-4.4575,-4.5132,-4.5625,-4.5235,-4.4936,-4.4922,-4.4925,-4.5187,-4.5554,-4.602,-4.6407,-4.6789,-4.728,-4.78,-4.7842,-4.7758,-4.77,-4.7732,-4.7882,-4.809,-4.8413,-4.8605,-4.861,-4.8663,-4.8706,-4.8553,-4.846,-4.8331,-4.8218,-3.5232,-3.6096,-3.6786,-3.7167,-3.7354,-3.7791,-3.8165,-3.8523,-3.8961,-3.9234,-3.9314,-3.9687,-3.9785,-4.0042,-4.0172,-4.0292,-4.0359,-4.0578,-4.0765,-4.0955,-4.1043,-4.1052,-4.1052,-4.1023,-4.0998,-4.0972,-4.0882,-4.0791,-4.0703,-4.0602,-4.0462,-4.0175,-3.9335,-3.9259,-3.918,-3.8874,-3.8197,-3.8164,-3.828,-3.8071,-3.7717,-3.7809,-3.8032,-3.8,-3.7933,-3.7898,-3.7899,-3.7827,-3.7756,-3.765,-3.7613,-3.7613,-3.7685,-3.7793,-3.7793,-3.7793,-3.7971,-3.8042,-3.8075,-3.8654,-3.9193,-4.0053,-4.0727,-4.1238,-4.1795,-4.1995,-4.1866,-4.1692,-4.156,-4.13,-4.1059,-4.0823,-4.0534,-4.051,-4.0609,-4.0916,-4.14,-4.2019,-4.2601,-4.2954,-4.2977,-4.2965,-4.2784,-4.3421,-4.4277,-4.4573,-4.4907,-4.534,-4.5709,-4.5782,-4.552,-4.5696,-4.5765,-4.5942,-4.6329,-4.6831,-4.7323,-4.7707,-4.7927,-4.8359,-4.8404,-4.8591,-4.8593,-4.8715,-4.9075,-4.9343,-4.9307,-4.9478,-4.9734,-4.9735,-4.9582,-4.9136,-4.8837,-4.8647,-4.8647,-3.4196,-3.4959,-3.6052,-3.6611,-3.6856,-3.7243,-3.765,-3.8162,-3.8548,-3.8876,-3.9234,-3.9377,-3.9647,-3.9873,-4.0138,-4.0325,-4.0438,-4.0549,-4.0699,-4.0874,-4.1095,-4.1058,-4.1087,-4.1132,-4.1086,-4.1035,-4.0968,-4.0889,-4.0801,-4.0694,-4.064,-4.0468,-4.0065,-4.0059,-3.9929,-3.9713,-3.9209,-3.895,-3.908,-3.8691,-3.8309,-3.8376,-3.836,-3.8234,-3.8101,-3.807,-3.807,-3.8036,-3.7967,-3.7898,-3.7828,-3.7828,-3.7898,-3.8331,-3.8617,-3.8726,-3.8726,-3.8546,-3.8148,-3.8185,-3.8582,-3.9372,-4.005,-4.1157,-4.1864,-4.221,-4.2086,-4.1952,-4.178,-4.1569,-4.13,-4.1024,-4.0776,-4.0724,-4.0968,-4.1485,-4.2009,-4.2635,-4.3222,-4.3389,-4.3416,-4.3215,-4.3105,-4.3552,-4.4309,-4.4738,-4.5096,-4.557,-4.5886,-4.5918,-4.6044,-4.615,-4.6523,-4.6764,-4.7122,-4.7627,-4.8204,-4.8714,-4.876,-4.9042,-4.9448,-4.9607,-4.9609,-4.9703,-5.0035,-5.0064,-5.0,-5.0203,-5.0496,-5.036,-5.0183,-4.9687,-4.9308,-4.918,-4.9189,-3.3383,-3.4263,-3.5256,-3.6,-3.6568,-3.6851,-3.7208,-3.765,-3.8032,-3.8455,-3.8884,-3.9352,-3.9586,-3.9698,-4.0154,-4.0403,-4.0269,-4.0476,-4.077,-4.1335,-4.1276,-4.1487,-4.151,-4.1511,-4.1366,-4.1249,-4.1041,-4.0955,-4.0914,-4.0819,-4.0757,-4.0651,-4.0508,-4.0427,-4.0269,-4.0082,-3.9982,-3.9687,-3.9489,-3.9261,-3.9045,-3.8847,-3.864,-3.8491,-3.836,-3.83,-3.8201,-3.8201,-3.8101,-3.8002,-3.7898,-3.7792,-3.79,-3.8364,-3.8904,-3.9013,-3.9014,-3.8617,-3.8253,-3.7969,-3.8402,-3.8941,-3.973,-4.0694,-4.155,-4.2078,-4.2139,-4.2121,-4.2037,-4.1831,-4.1569,-4.1335,-4.1047,-4.0796,-4.1358,-4.1985,-4.2571,-4.3182,-4.3461,-4.3698,-4.3635,-4.3403,-4.349,-4.3975,-4.4245,-4.4516,-4.5009,-4.5634,-4.5981,-4.6202,-4.636,-4.6539,-4.7038,-4.7528,-4.7995,-4.8345,-4.8862,-4.9251,-4.932,-4.961,-5.0289,-5.0659,-5.0603,-5.0608,-5.088,-5.0817,-5.0785,-5.0933,-5.1139,-5.0947,-5.078,-5.0543,-5.0133,-4.9767,-4.9836,-3.261,-3.3669,-3.4374,-3.5437,-3.6429,-3.6684,-3.6851,-3.7048,-3.7541,-3.7964,-3.8474,-3.9392,-3.9682,-3.9762,-4.0339,-4.0511,-4.0383,-4.0404,-4.0745,-4.1769,-4.1763,-4.1859,-4.2011,-4.2286,-4.2131,-4.1562,-4.1201,-4.1293,-4.103,-4.0922,-4.078,-4.0717,-4.0626,-4.053,-4.0406,-4.0321,-4.0214,-4.008,-3.9857,-3.9632,-3.9338,-3.9127,-3.899,-3.8942,-3.8766,-3.8585,-3.8496,-3.8368,-3.8238,-3.807,-3.7898,-3.7721,-3.822,-3.8465,-3.8974,-3.9192,-3.9373,-3.8833,-3.8361,-3.8003,-3.8258,-3.8906,-3.9805,-4.0448,-4.1124,-4.2092,-4.2297,-4.2246,-4.2127,-4.1995,-4.178,-4.1525,-4.13,-4.1242,-4.1641,-4.2228,-4.2841,-4.3532,-4.4103,-4.4188,-4.3926,-4.3822,-4.3942,-4.4363,-4.4655,-4.4643,-4.4985,-4.5665,-4.6108,-4.6424,-4.6771,-4.7024,-4.7554,-4.8138,-4.8729,-4.9078,-4.9439,-4.9674,-4.9866,-5.0396,-5.1172,-5.142,-5.1544,-5.1516,-5.1486,-5.1545,-5.1574,-5.1602,-5.1509,-5.1353,-5.1314,-5.1393,-5.1179,-5.0743,-5.0628,-3.1449,-3.2537,-3.3784,-3.5101,-3.626,-3.6395,-3.669,-3.7087,-3.7241,-3.7542,-3.8178,-3.9028,-3.968,-3.9946,-4.049,-4.0674,-4.0602,-4.0289,-4.0442,-4.1037,-4.1523,-4.1932,-4.2247,-4.2688,-4.2841,-4.2806,-4.238,-4.1735,-4.1318,-4.1051,-4.0916,-4.089,-4.0801,-4.063,-4.0574,-4.05,-4.0389,-4.0286,-4.0196,-3.9979,-3.9717,-3.9526,-3.9376,-3.9219,-3.9027,-3.8913,-3.8833,-3.8683,-3.8621,-3.8496,-3.8271,-3.8721,-3.9625,-3.9729,-3.9874,-4.0058,-3.995,-3.9301,-3.8469,-3.8072,-3.8149,-3.8618,-3.9337,-3.9946,-4.073,-4.1884,-4.2454,-4.2333,-4.2246,-4.2079,-4.1987,-4.1744,-4.1595,-4.1685,-4.1919,-4.2546,-4.3133,-4.3868,-4.4674,-4.4529,-4.4271,-4.4344,-4.4493,-4.472,-4.5011,-4.5239,-4.5484,-4.5918,-4.6297,-4.6645,-4.7277,-4.7624,-4.8135,-4.8686,-4.9228,-4.9688,-5.0018,-5.0506,-5.0913,-5.1471,-5.2027,-5.215,-5.2121,-5.2063,-5.2002,-5.2063,-5.1972,-5.188,-5.1818,-5.1632,-5.1837,-5.2007,-5.2375,-5.2129,-5.186,-3.0462,-3.17,-3.3404,-3.4732,-3.5617,-3.6019,-3.6533,-3.6974,-3.7087,-3.7281,-3.79,-3.9013,-3.9724,-4.0068,-4.0607,-4.0854,-4.0679,-4.0208,-4.0538,-4.0958,-4.1387,-4.1701,-4.2279,-4.2966,-4.2843,-4.2928,-4.3047,-4.2572,-4.1796,-4.1597,-4.1537,-4.112,-4.0898,-4.0791,-4.0703,-4.0615,-4.0515,-4.0444,-4.0411,-4.0271,-3.9979,-3.9829,-3.9647,-3.9452,-3.9298,-3.9165,-3.9064,-3.8921,-3.8833,-3.8866,-3.8761,-3.9428,-4.0237,-4.0673,-4.0636,-4.0601,-4.042,-3.9986,-3.8755,-3.8142,-3.8074,-3.8473,-3.9446,-4.0236,-4.0369,-4.1447,-4.2418,-4.2369,-4.2287,-4.2163,-4.2115,-4.1874,-4.1815,-4.1917,-4.2658,-4.3409,-4.394,-4.4536,-4.4852,-4.4677,-4.4532,-4.4495,-4.4685,-4.5014,-4.5213,-4.5183,-4.5484,-4.5792,-4.6234,-4.6972,-4.7605,-4.8162,-4.8576,-4.9125,-4.9759,-5.0154,-5.0474,-5.1024,-5.1775,-5.2052,-5.227,-5.2516,-5.261,-5.2458,-5.2337,-5.2246,-5.2246,-5.2155,-5.2002,-5.1818,-5.2238,-5.2653,-5.2957,-5.3317,-5.3026,-2.9826,-3.1102,-3.297,-3.4185,-3.4908,-3.5762,-3.6409,-3.6891,-3.697,-3.7126,-3.7496,-3.9078,-3.9553,-4.0047,-4.0767,-4.0837,-4.0809,-4.0653,-4.0896,-4.1203,-4.1781,-4.2082,-4.2556,-4.3104,-4.3316,-4.3428,-4.3544,-4.3164,-4.2578,-4.2303,-4.187,-4.127,-4.1042,-4.0903,-4.078,-4.0681,-4.0615,-4.05,-4.0476,-4.0394,-4.0252,-4.0118,-3.9851,-3.967,-3.9502,-3.9324,-3.9165,-3.9055,-3.9007,-3.9121,-3.9313,-4.0024,-4.062,-4.1139,-4.1213,-4.1104,-4.096,-4.009,-3.9003,-3.85,-3.8254,-3.8437,-3.9698,-4.0346,-4.0408,-4.1157,-4.2127,-4.2409,-4.2328,-4.2246,-4.2121,-4.2243,-4.222,-4.23,-4.3196,-4.416,-4.4664,-4.5108,-4.5015,-4.492,-4.4899,-4.487,-4.5041,-4.5341,-4.5556,-4.5432,-4.5508,-4.5714,-4.6149,-4.7078,-4.7838,-4.8428,-4.8906,-4.955,-5.034,-5.0611,-5.0816,-5.1518,-5.2144,-5.2329,-5.2483,-5.2577,-5.267,-5.2729,-5.2608,-5.2518,-5.2427,-5.2427,-5.2246,-5.2063,-5.2822,-5.3395,-5.3561,-5.3803,-5.3858,-2.984,-3.0868,-3.2158,-3.335,-3.4408,-3.5436,-3.6241,-3.6725,-3.6965,-3.7013,-3.7415,-3.8282,-3.9226,-4.0167,-4.1285,-4.1548,-4.1252,-4.1146,-4.1092,-4.1268,-4.2362,-4.2698,-4.3041,-4.3682,-4.4521,-4.462,-4.4367,-4.4052,-4.3475,-4.2851,-4.2343,-4.2021,-4.1228,-4.1022,-4.0874,-4.077,-4.0681,-4.0574,-4.0523,-4.0444,-4.0381,-4.0196,-4.0017,-3.9867,-3.9717,-3.9526,-3.935,-3.9192,-3.9137,-3.9342,-3.9785,-4.0456,-4.0993,-4.1445,-4.1669,-4.1745,-4.1567,-4.0518,-3.9647,-3.8966,-3.8576,-3.815,-3.9265,-4.0311,-4.0738,-4.1558,-4.2203,-4.2409,-4.2364,-4.224,-4.2221,-4.2789,-4.3006,-4.2973,-4.3453,-4.446,-4.5251,-4.5372,-4.5318,-4.5473,-4.5578,-4.549,-4.5401,-4.5864,-4.661,-4.6565,-4.6592,-4.6673,-4.6239,-4.7161,-4.8179,-4.8631,-4.911,-5.0084,-5.0965,-5.1006,-5.1274,-5.1951,-5.2483,-5.2544,-5.2606,-5.2667,-5.2729,-5.2729,-5.2729,-5.2608,-5.2608,-5.2518,-5.2427,-5.249,-5.3436,-5.4074,-5.4122,-5.4375,-5.457]}]]